Sunteți pe pagina 1din 132

type time latitude longitude altitude (m) color width opacity name

desc
T 2017-11-26 20:16:23 37.873978000 -122.274880000 43.9 #ec892a
8 0.87 Track <p>Start: Nov 26, 2017 12:16:23 PM End: Nov 26, 2017
1:31:50 PM Duration: 1h15'27" Elements: 3864 Length: 94.4km Avg Speed: 75.1km h Max
Speed: 120km h Low: -11.4m High: 191m Gain: 1103m</p>
T 2017-11-26 20:17:00 37.873990000 -122.274850000 45.6

T 2017-11-26 20:17:02 37.874000000 -122.274796000 45.6

T 2017-11-26 20:17:04 37.874016000 -122.274734000 46.8

T 2017-11-26 20:17:06 37.874030000 -122.274650000 47.3

T 2017-11-26 20:17:07 37.874043000 -122.274600000 47.5

T 2017-11-26 20:17:08 37.874050000 -122.274540000 47.8

T 2017-11-26 20:17:09 37.874060000 -122.274480000 48.1

T 2017-11-26 20:17:11 37.874096000 -122.274350000 48.3

T 2017-11-26 20:17:12 37.874110000 -122.274290000 48.9

T 2017-11-26 20:17:13 37.874120000 -122.274230000 49.2

T 2017-11-26 20:17:14 37.874126000 -122.274155000 49.1

T 2017-11-26 20:17:15 37.874138000 -122.274086000 49.3

T 2017-11-26 20:17:16 37.874153000 -122.274010000 50.0

T 2017-11-26 20:17:17 37.874165000 -122.273926000 50.4

T 2017-11-26 20:17:19 37.874184000 -122.273770000 51.1

T 2017-11-26 20:17:20 37.874195000 -122.273700000 51.3

T 2017-11-26 20:17:21 37.874203000 -122.273636000 51.5

T 2017-11-26 20:17:22 37.874210000 -122.273575000 51.5

T 2017-11-26 20:17:23 37.874210000 -122.273520000 51.4

T 2017-11-26 20:17:25 37.874214000 -122.273420000 53.1

T 2017-11-26 20:17:29 37.874200000 -122.273380000 49.9

T 2017-11-26 20:17:30 37.874176000 -122.273350000 49.8

T 2017-11-26 20:17:32 37.874123000 -122.273310000 51.5

T 2017-11-26 20:17:33 37.874080000 -122.273310000 49.1

T 2017-11-26 20:17:34 37.874035000 -122.273300000 50.2

T 2017-11-26 20:17:35 37.873950000 -122.273290000 50.3

T 2017-11-26 20:17:36 37.873867000 -122.273285000 49.8


T 2017-11-26 20:17:38 37.873707000 -122.273280000 49.5

T 2017-11-26 20:17:39 37.873634000 -122.273260000 49.2

T 2017-11-26 20:17:40 37.873566000 -122.273250000 48.7

T 2017-11-26 20:17:41 37.873497000 -122.273230000 49.0

T 2017-11-26 20:17:42 37.873444000 -122.273220000 48.6

T 2017-11-26 20:17:43 37.873398000 -122.273210000 47.4

T 2017-11-26 20:17:44 37.873367000 -122.273170000 46.8

T 2017-11-26 20:17:45 37.873350000 -122.273120000 47.5

T 2017-11-26 20:17:47 37.873360000 -122.273000000 46.6

T 2017-11-26 20:17:48 37.873370000 -122.272910000 47.5

T 2017-11-26 20:17:49 37.873383000 -122.272810000 47.6

T 2017-11-26 20:17:50 37.873398000 -122.272705000 47.3

T 2017-11-26 20:17:51 37.873405000 -122.272600000 48.0

T 2017-11-26 20:17:52 37.873417000 -122.272484000 48.8

T 2017-11-26 20:17:53 37.873420000 -122.272370000 49.3

T 2017-11-26 20:17:55 37.873444000 -122.272190000 50.7

T 2017-11-26 20:17:56 37.873440000 -122.272095000 50.1

T 2017-11-26 20:17:57 37.873447000 -122.272000000 50.4

T 2017-11-26 20:17:58 37.873460000 -122.271904000 50.7

T 2017-11-26 20:17:59 37.873466000 -122.271810000 51.7

T 2017-11-26 20:18:00 37.873474000 -122.271706000 51.7

T 2017-11-26 20:18:01 37.873490000 -122.271614000 51.7

T 2017-11-26 20:18:03 37.873493000 -122.271420000 52.5

T 2017-11-26 20:18:04 37.873505000 -122.271324000 51.9

T 2017-11-26 20:18:05 37.873528000 -122.271225000 52.3

T 2017-11-26 20:18:06 37.873550000 -122.271120000 53.3

T 2017-11-26 20:18:07 37.873558000 -122.271010000 53.8

T 2017-11-26 20:18:09 37.873585000 -122.270780000 54.2

T 2017-11-26 20:18:10 37.873600000 -122.270676000 54.5


T 2017-11-26 20:18:11 37.873610000 -122.270550000 55.0

T 2017-11-26 20:18:12 37.873623000 -122.270424000 55.0

T 2017-11-26 20:18:13 37.873650000 -122.270310000 55.7

T 2017-11-26 20:18:14 37.873660000 -122.270190000 56.3

T 2017-11-26 20:18:15 37.873680000 -122.270070000 56.9

T 2017-11-26 20:18:16 37.873700000 -122.269960000 57.2

T 2017-11-26 20:18:17 37.873720000 -122.269870000 57.4

T 2017-11-26 20:18:18 37.873726000 -122.269750000 57.5

T 2017-11-26 20:18:20 37.873760000 -122.269550000 59.1

T 2017-11-26 20:18:21 37.873775000 -122.269450000 58.9

T 2017-11-26 20:18:22 37.873800000 -122.269340000 57.2

T 2017-11-26 20:18:23 37.873833000 -122.269270000 55.8

T 2017-11-26 20:18:24 37.873840000 -122.269190000 56.1

T 2017-11-26 20:18:25 37.873848000 -122.269130000 55.9

T 2017-11-26 20:18:26 37.873850000 -122.269080000 56.0

T 2017-11-26 20:18:28 37.873867000 -122.269000000 55.4

T 2017-11-26 20:18:29 37.873882000 -122.268950000 55.4

T 2017-11-26 20:18:31 37.873894000 -122.268845000 55.8

T 2017-11-26 20:18:32 37.873898000 -122.268776000 55.7

T 2017-11-26 20:18:33 37.873900000 -122.268690000 56.5

T 2017-11-26 20:18:34 37.873870000 -122.268610000 55.9

T 2017-11-26 20:18:35 37.873860000 -122.268520000 55.9

T 2017-11-26 20:18:36 37.873880000 -122.268440000 56.1

T 2017-11-26 20:18:38 37.873898000 -122.268265000 57.7

T 2017-11-26 20:18:39 37.873905000 -122.268166000 58.7

T 2017-11-26 20:18:40 37.873913000 -122.268070000 59.6

T 2017-11-26 20:18:41 37.873928000 -122.267975000 61.0

T 2017-11-26 20:18:42 37.873936000 -122.267880000 61.6

T 2017-11-26 20:18:44 37.873947000 -122.267710000 64.8

T 2017-11-26 20:18:45 37.873960000 -122.267630000 65.5


T 2017-11-26 20:18:46 37.873962000 -122.267550000 65.4

T 2017-11-26 20:18:47 37.873955000 -122.267460000 65.1

T 2017-11-26 20:18:48 37.873962000 -122.267370000 64.9

T 2017-11-26 20:18:49 37.873974000 -122.267290000 64.6

T 2017-11-26 20:18:50 37.873985000 -122.267200000 64.5

T 2017-11-26 20:18:51 37.874000000 -122.267105000 64.8

T 2017-11-26 20:18:52 37.874010000 -122.267020000 65.1

T 2017-11-26 20:18:53 37.874020000 -122.266940000 65.4

T 2017-11-26 20:18:54 37.874027000 -122.266860000 66.1

T 2017-11-26 20:18:56 37.874050000 -122.266716000 67.0

T 2017-11-26 20:18:57 37.874058000 -122.266655000 67.4

T 2017-11-26 20:18:59 37.874054000 -122.266600000 68.1

T 2017-11-26 20:19:05 37.874058000 -122.266610000 72.1

T 2017-11-26 20:19:10 37.874058000 -122.266540000 71.3

T 2017-11-26 20:19:11 37.874060000 -122.266490000 71.1

T 2017-11-26 20:19:12 37.874084000 -122.266426000 72.6

T 2017-11-26 20:19:13 37.874080000 -122.266360000 71.3

T 2017-11-26 20:19:14 37.874100000 -122.266290000 72.1

T 2017-11-26 20:19:15 37.874120000 -122.266220000 72.5

T 2017-11-26 20:19:17 37.874140000 -122.266075000 71.4

T 2017-11-26 20:19:18 37.874153000 -122.266000000 71.5

T 2017-11-26 20:19:19 37.874172000 -122.265915000 71.4

T 2017-11-26 20:19:20 37.874176000 -122.265830000 70.7

T 2017-11-26 20:19:21 37.874190000 -122.265740000 70.7

T 2017-11-26 20:19:22 37.874203000 -122.265650000 71.1

T 2017-11-26 20:19:24 37.874226000 -122.265450000 72.5

T 2017-11-26 20:19:25 37.874240000 -122.265350000 72.9

T 2017-11-26 20:19:26 37.874250000 -122.265240000 73.4

T 2017-11-26 20:19:27 37.874264000 -122.265120000 73.7


T 2017-11-26 20:19:28 37.874283000 -122.265010000 74.0

T 2017-11-26 20:19:29 37.874310000 -122.264885000 74.3

T 2017-11-26 20:19:30 37.874332000 -122.264760000 75.0

T 2017-11-26 20:19:31 37.874367000 -122.264630000 75.3

T 2017-11-26 20:19:33 37.874447000 -122.264404000 76.6

T 2017-11-26 20:19:34 37.874480000 -122.264275000 77.7

T 2017-11-26 20:19:35 37.874508000 -122.264150000 78.1

T 2017-11-26 20:19:36 37.874542000 -122.264040000 78.4

T 2017-11-26 20:19:37 37.874570000 -122.263920000 79.3

T 2017-11-26 20:19:38 37.874588000 -122.263794000 79.8

T 2017-11-26 20:19:39 37.874607000 -122.263664000 80.6

T 2017-11-26 20:19:40 37.874626000 -122.263535000 81.5

T 2017-11-26 20:19:42 37.874653000 -122.263300000 83.2

T 2017-11-26 20:19:43 37.874670000 -122.263180000 84.5

T 2017-11-26 20:19:44 37.874687000 -122.263070000 85.6

T 2017-11-26 20:19:45 37.874710000 -122.262955000 86.1

T 2017-11-26 20:19:46 37.874720000 -122.262840000 86.4

T 2017-11-26 20:19:47 37.874744000 -122.262730000 87.1

T 2017-11-26 20:19:48 37.874763000 -122.262630000 88.4

T 2017-11-26 20:19:49 37.874783000 -122.262530000 88.4

T 2017-11-26 20:19:50 37.874805000 -122.262436000 88.4

T 2017-11-26 20:19:51 37.874825000 -122.262340000 88.1

T 2017-11-26 20:19:52 37.874840000 -122.262245000 88.4

T 2017-11-26 20:19:54 37.874905000 -122.262050000 87.4

T 2017-11-26 20:19:55 37.874830000 -122.261920000 89.0

T 2017-11-26 20:19:56 37.874878000 -122.261826000 87.8

T 2017-11-26 20:19:57 37.874866000 -122.261710000 88.0

T 2017-11-26 20:19:58 37.874880000 -122.261604000 87.6

T 2017-11-26 20:19:59 37.874910000 -122.261520000 87.4

T 2017-11-26 20:20:00 37.874924000 -122.261420000 87.4


T 2017-11-26 20:20:01 37.874930000 -122.261330000 87.8

T 2017-11-26 20:20:02 37.874940000 -122.261240000 88.0

T 2017-11-26 20:20:04 37.874973000 -122.261080000 88.6

T 2017-11-26 20:20:05 37.874985000 -122.260990000 90.2

T 2017-11-26 20:20:06 37.874985000 -122.260910000 90.9

T 2017-11-26 20:20:07 37.874992000 -122.260820000 91.0

T 2017-11-26 20:20:08 37.875000000 -122.260735000 90.6

T 2017-11-26 20:20:09 37.875015000 -122.260630000 90.6

T 2017-11-26 20:20:10 37.875030000 -122.260510000 90.9

T 2017-11-26 20:20:11 37.875050000 -122.260414000 91.1

T 2017-11-26 20:20:12 37.875065000 -122.260310000 92.2

T 2017-11-26 20:20:13 37.875060000 -122.260190000 93.6

T 2017-11-26 20:20:14 37.875080000 -122.260080000 94.2

T 2017-11-26 20:20:15 37.875120000 -122.259970000 94.9

T 2017-11-26 20:20:17 37.875168000 -122.259740000 96.8

T 2017-11-26 20:20:18 37.875187000 -122.259630000 97.7

T 2017-11-26 20:20:20 37.875217000 -122.259420000 99.5

T 2017-11-26 20:20:21 37.875233000 -122.259320000 100.3

T 2017-11-26 20:20:22 37.875240000 -122.259220000 99.4

T 2017-11-26 20:20:23 37.875280000 -122.259125000 100.8

T 2017-11-26 20:20:24 37.875290000 -122.259026000 101.3

T 2017-11-26 20:20:25 37.875298000 -122.258930000 101.9

T 2017-11-26 20:20:26 37.875310000 -122.258835000 102.7

T 2017-11-26 20:20:27 37.875320000 -122.258750000 104.0

T 2017-11-26 20:20:29 37.875355000 -122.258606000 104.7

T 2017-11-26 20:20:30 37.875360000 -122.258540000 105.7

T 2017-11-26 20:20:31 37.875362000 -122.258480000 107.0

T 2017-11-26 20:20:32 37.875374000 -122.258400000 107.8

T 2017-11-26 20:20:33 37.875390000 -122.258316000 108.2


T 2017-11-26 20:20:34 37.875412000 -122.258240000 107.9

T 2017-11-26 20:20:35 37.875430000 -122.258150000 108.4

T 2017-11-26 20:20:36 37.875420000 -122.258050000 108.2

T 2017-11-26 20:20:37 37.875435000 -122.257950000 108.4

T 2017-11-26 20:20:38 37.875440000 -122.257840000 108.9

T 2017-11-26 20:20:40 37.875440000 -122.257614000 110.9

T 2017-11-26 20:20:41 37.875440000 -122.257515000 112.3

T 2017-11-26 20:20:42 37.875450000 -122.257416000 113.0

T 2017-11-26 20:20:43 37.875460000 -122.257310000 114.0

T 2017-11-26 20:20:44 37.875484000 -122.257225000 115.1

T 2017-11-26 20:20:45 37.875490000 -122.257150000 115.9

T 2017-11-26 20:20:46 37.875496000 -122.257080000 116.6

T 2017-11-26 20:20:47 37.875496000 -122.257020000 118.1

T 2017-11-26 20:20:48 37.875496000 -122.256966000 120.0

T 2017-11-26 20:20:49 37.875504000 -122.256910000 121.1

T 2017-11-26 20:20:50 37.875492000 -122.256870000 121.2

T 2017-11-26 20:20:52 37.875443000 -122.256780000 121.4

T 2017-11-26 20:20:53 37.875390000 -122.256750000 120.7

T 2017-11-26 20:20:54 37.875317000 -122.256710000 120.5

T 2017-11-26 20:20:55 37.875248000 -122.256650000 121.6

T 2017-11-26 20:20:56 37.875160000 -122.256610000 120.3

T 2017-11-26 20:20:57 37.875095000 -122.256530000 119.2

T 2017-11-26 20:20:58 37.875053000 -122.256454000 118.4

T 2017-11-26 20:20:59 37.874985000 -122.256380000 117.4

T 2017-11-26 20:21:00 37.874928000 -122.256320000 117.9

T 2017-11-26 20:21:02 37.874798000 -122.256165000 116.1

T 2017-11-26 20:21:03 37.874730000 -122.256110000 115.3

T 2017-11-26 20:21:04 37.874670000 -122.256040000 113.5

T 2017-11-26 20:21:05 37.874596000 -122.255980000 113.6

T 2017-11-26 20:21:06 37.874530000 -122.255930000 113.6


T 2017-11-26 20:21:07 37.874477000 -122.255875000 114.0

T 2017-11-26 20:21:08 37.874420000 -122.255830000 113.7

T 2017-11-26 20:21:10 37.874270000 -122.255740000 112.6

T 2017-11-26 20:21:11 37.874203000 -122.255684000 111.7

T 2017-11-26 20:21:12 37.874140000 -122.255640000 111.5

T 2017-11-26 20:21:13 37.874090000 -122.255585000 110.6

T 2017-11-26 20:21:14 37.874023000 -122.255570000 109.6

T 2017-11-26 20:21:15 37.873936000 -122.255560000 108.2

T 2017-11-26 20:21:16 37.873870000 -122.255520000 108.5

T 2017-11-26 20:21:17 37.873790000 -122.255480000 109.3

T 2017-11-26 20:21:18 37.873737000 -122.255424000 109.0

T 2017-11-26 20:21:20 37.873615000 -122.255300000 110.7

T 2017-11-26 20:21:21 37.873558000 -122.255226000 110.9

T 2017-11-26 20:21:22 37.873497000 -122.255160000 110.9

T 2017-11-26 20:21:23 37.873444000 -122.255066000 111.0

T 2017-11-26 20:21:24 37.873380000 -122.255000000 111.3

T 2017-11-26 20:21:25 37.873295000 -122.254900000 110.8

T 2017-11-26 20:21:26 37.873210000 -122.254830000 110.5

T 2017-11-26 20:21:27 37.873130000 -122.254730000 110.6

T 2017-11-26 20:21:28 37.873062000 -122.254640000 111.2

T 2017-11-26 20:21:29 37.873000000 -122.254560000 110.2

T 2017-11-26 20:21:30 37.872940000 -122.254480000 117.2

T 2017-11-26 20:21:32 37.872837000 -122.254310000 114.0

T 2017-11-26 20:21:33 37.872790000 -122.254220000 113.7

T 2017-11-26 20:21:34 37.872738000 -122.254140000 114.2

T 2017-11-26 20:21:35 37.872704000 -122.254060000 114.7

T 2017-11-26 20:21:36 37.872658000 -122.253975000 114.5

T 2017-11-26 20:21:38 37.872616000 -122.253910000 113.9

T 2017-11-26 20:21:41 37.872536000 -122.253820000 113.5


T 2017-11-26 20:21:43 37.872463000 -122.253690000 113.1

T 2017-11-26 20:21:44 37.872414000 -122.253620000 113.5

T 2017-11-26 20:21:45 37.872364000 -122.253530000 113.6

T 2017-11-26 20:21:46 37.872280000 -122.253450000 112.9

T 2017-11-26 20:21:47 37.872230000 -122.253365000 112.3

T 2017-11-26 20:21:48 37.872170000 -122.253270000 111.9

T 2017-11-26 20:21:49 37.872110000 -122.253180000 112.4

T 2017-11-26 20:21:51 37.871952000 -122.253006000 113.4

T 2017-11-26 20:21:52 37.871864000 -122.252930000 113.4

T 2017-11-26 20:21:53 37.871784000 -122.252870000 113.6

T 2017-11-26 20:21:54 37.871708000 -122.252830000 113.5

T 2017-11-26 20:21:55 37.871624000 -122.252810000 113.5

T 2017-11-26 20:21:56 37.871582000 -122.252785000 111.1

T 2017-11-26 20:21:57 37.871550000 -122.252770000 110.9

T 2017-11-26 20:21:59 37.871490000 -122.252770000 109.5

T 2017-11-26 20:22:00 37.871452000 -122.252760000 107.1

T 2017-11-26 20:22:01 37.871384000 -122.252754000 107.2

T 2017-11-26 20:22:03 37.871240000 -122.252760000 107.1

T 2017-11-26 20:22:04 37.871150000 -122.252754000 105.7

T 2017-11-26 20:22:05 37.871060000 -122.252754000 105.0

T 2017-11-26 20:22:06 37.870964000 -122.252730000 104.3

T 2017-11-26 20:22:07 37.870865000 -122.252716000 103.4

T 2017-11-26 20:22:08 37.870773000 -122.252690000 104.2

T 2017-11-26 20:22:09 37.870678000 -122.252680000 104.7

T 2017-11-26 20:22:11 37.870500000 -122.252590000 103.4

T 2017-11-26 20:22:12 37.870410000 -122.252556000 103.4

T 2017-11-26 20:22:13 37.870320000 -122.252520000 103.4

T 2017-11-26 20:22:14 37.870230000 -122.252480000 103.2

T 2017-11-26 20:22:15 37.870136000 -122.252440000 103.9

T 2017-11-26 20:22:16 37.870050000 -122.252410000 104.0


T 2017-11-26 20:22:17 37.869972000 -122.252380000 104.1

T 2017-11-26 20:22:18 37.869900000 -122.252370000 105.5

T 2017-11-26 20:22:19 37.869854000 -122.252380000 106.1

T 2017-11-26 20:22:20 37.869804000 -122.252380000 106.2

T 2017-11-26 20:22:22 37.869743000 -122.252365000 104.4

T 2017-11-26 20:22:28 37.869682000 -122.252335000 102.7

T 2017-11-26 20:22:30 37.869602000 -122.252330000 103.3

T 2017-11-26 20:22:31 37.869553000 -122.252330000 103.9

T 2017-11-26 20:22:32 37.869495000 -122.252330000 103.9

T 2017-11-26 20:22:33 37.869440000 -122.252330000 103.5

T 2017-11-26 20:22:34 37.869380000 -122.252320000 103.3

T 2017-11-26 20:22:36 37.869274000 -122.252310000 101.3

T 2017-11-26 20:22:37 37.869217000 -122.252310000 100.7

T 2017-11-26 20:22:38 37.869156000 -122.252310000 100.9

T 2017-11-26 20:22:39 37.869095000 -122.252310000 100.5

T 2017-11-26 20:22:40 37.869030000 -122.252310000 100.5

T 2017-11-26 20:22:41 37.868965000 -122.252304000 100.2

T 2017-11-26 20:22:42 37.868900000 -122.252300000 100.5

T 2017-11-26 20:22:44 37.868782000 -122.252280000 100.9

T 2017-11-26 20:22:45 37.868740000 -122.252270000 101.6

T 2017-11-26 20:22:49 37.868683000 -122.252250000 102.0

T 2017-11-26 20:22:50 37.868630000 -122.252250000 101.9

T 2017-11-26 20:22:51 37.868565000 -122.252240000 101.5

T 2017-11-26 20:22:52 37.868504000 -122.252220000 100.8

T 2017-11-26 20:22:53 37.868440000 -122.252205000 100.5

T 2017-11-26 20:22:54 37.868360000 -122.252180000 100.7

T 2017-11-26 20:22:55 37.868282000 -122.252150000 99.9

T 2017-11-26 20:22:56 37.868202000 -122.252130000 99.4

T 2017-11-26 20:22:58 37.868070000 -122.252075000 97.2


T 2017-11-26 20:22:59 37.868030000 -122.252075000 97.1

T 2017-11-26 20:23:01 37.867990000 -122.252075000 96.7

T 2017-11-26 20:23:09 37.867954000 -122.252070000 98.2

T 2017-11-26 20:23:11 37.867897000 -122.252075000 97.5

T 2017-11-26 20:23:13 37.867825000 -122.252090000 95.9

T 2017-11-26 20:23:14 37.867786000 -122.252100000 95.8

T 2017-11-26 20:23:15 37.867737000 -122.252090000 95.4

T 2017-11-26 20:23:16 37.867683000 -122.252070000 95.5

T 2017-11-26 20:23:18 37.867570000 -122.252020000 95.5

T 2017-11-26 20:23:19 37.867523000 -122.251976000 95.7

T 2017-11-26 20:23:20 37.867474000 -122.251930000 95.2

T 2017-11-26 20:23:21 37.867416000 -122.251900000 93.7

T 2017-11-26 20:23:22 37.867344000 -122.251884000 93.9

T 2017-11-26 20:23:23 37.867270000 -122.251884000 93.2

T 2017-11-26 20:23:24 37.867190000 -122.251890000 92.7

T 2017-11-26 20:23:25 37.867107000 -122.251900000 93.1

T 2017-11-26 20:23:26 37.867030000 -122.251884000 92.7

T 2017-11-26 20:23:27 37.866960000 -122.251870000 92.8

T 2017-11-26 20:23:28 37.866882000 -122.251870000 92.7

T 2017-11-26 20:23:29 37.866806000 -122.251854000 93.1

T 2017-11-26 20:23:31 37.866676000 -122.251800000 94.0

T 2017-11-26 20:23:32 37.866585000 -122.251760000 94.3

T 2017-11-26 20:23:33 37.866512000 -122.251740000 95.3

T 2017-11-26 20:23:34 37.866432000 -122.251730000 96.2

T 2017-11-26 20:23:35 37.866360000 -122.251690000 96.5

T 2017-11-26 20:23:36 37.866283000 -122.251660000 96.1

T 2017-11-26 20:23:37 37.866220000 -122.251620000 97.2

T 2017-11-26 20:23:38 37.866160000 -122.251580000 96.9

T 2017-11-26 20:23:39 37.866116000 -122.251526000 96.2

T 2017-11-26 20:23:41 37.866013000 -122.251430000 95.0


T 2017-11-26 20:23:42 37.865974000 -122.251366000 95.4

T 2017-11-26 20:23:43 37.865930000 -122.251300000 95.9

T 2017-11-26 20:23:44 37.865890000 -122.251220000 96.7

T 2017-11-26 20:23:45 37.865845000 -122.251140000 96.7

T 2017-11-26 20:23:46 37.865795000 -122.251030000 98.2

T 2017-11-26 20:23:47 37.865757000 -122.250930000 98.3

T 2017-11-26 20:23:48 37.865700000 -122.250840000 98.3

T 2017-11-26 20:23:49 37.865646000 -122.250740000 98.6

T 2017-11-26 20:23:51 37.865520000 -122.250590000 98.2

T 2017-11-26 20:23:52 37.865456000 -122.250530000 97.7

T 2017-11-26 20:23:53 37.865383000 -122.250460000 97.5

T 2017-11-26 20:23:54 37.865284000 -122.250435000 96.4

T 2017-11-26 20:23:55 37.865190000 -122.250420000 95.2

T 2017-11-26 20:23:56 37.865093000 -122.250410000 94.9

T 2017-11-26 20:23:58 37.864895000 -122.250400000 92.4

T 2017-11-26 20:23:59 37.864803000 -122.250390000 91.7

T 2017-11-26 20:24:00 37.864704000 -122.250380000 91.7

T 2017-11-26 20:24:01 37.864613000 -122.250374000 91.6

T 2017-11-26 20:24:02 37.864520000 -122.250370000 91.3

T 2017-11-26 20:24:03 37.864433000 -122.250360000 91.5

T 2017-11-26 20:24:04 37.864360000 -122.250350000 91.1

T 2017-11-26 20:24:05 37.864300000 -122.250350000 91.6

T 2017-11-26 20:24:07 37.864246000 -122.250340000 91.5

T 2017-11-26 20:24:09 37.864178000 -122.250330000 91.0

T 2017-11-26 20:24:10 37.864130000 -122.250320000 90.5

T 2017-11-26 20:24:11 37.864056000 -122.250320000 90.2

T 2017-11-26 20:24:12 37.863976000 -122.250305000 90.1

T 2017-11-26 20:24:13 37.863880000 -122.250300000 90.3

T 2017-11-26 20:24:14 37.863790000 -122.250300000 89.9


T 2017-11-26 20:24:15 37.863700000 -122.250280000 89.7

T 2017-11-26 20:24:16 37.863605000 -122.250275000 89.5

T 2017-11-26 20:24:17 37.863510000 -122.250260000 90.0

T 2017-11-26 20:24:18 37.863420000 -122.250244000 90.2

T 2017-11-26 20:24:19 37.863330000 -122.250230000 90.5

T 2017-11-26 20:24:21 37.863148000 -122.250210000 89.7

T 2017-11-26 20:24:22 37.863056000 -122.250206000 89.4

T 2017-11-26 20:24:23 37.862970000 -122.250200000 89.1

T 2017-11-26 20:24:24 37.862877000 -122.250190000 89.5

T 2017-11-26 20:24:25 37.862790000 -122.250180000 89.5

T 2017-11-26 20:24:26 37.862705000 -122.250180000 89.0

T 2017-11-26 20:24:27 37.862625000 -122.250175000 89.2

T 2017-11-26 20:24:28 37.862553000 -122.250170000 89.0

T 2017-11-26 20:24:30 37.862440000 -122.250150000 88.9

T 2017-11-26 20:24:31 37.862410000 -122.250150000 88.8

T 2017-11-26 20:24:33 37.862377000 -122.250145000 89.5

T 2017-11-26 20:24:34 37.862347000 -122.250145000 89.8

T 2017-11-26 20:24:35 37.862320000 -122.250120000 90.0

T 2017-11-26 20:24:37 37.862286000 -122.250030000 90.6

T 2017-11-26 20:24:38 37.862286000 -122.249954000 90.9

T 2017-11-26 20:24:39 37.862293000 -122.249870000 91.1

T 2017-11-26 20:24:40 37.862293000 -122.249770000 92.5

T 2017-11-26 20:24:41 37.862310000 -122.249664000 93.9

T 2017-11-26 20:24:42 37.862330000 -122.249580000 94.9

T 2017-11-26 20:24:43 37.862330000 -122.249466000 96.3

T 2017-11-26 20:24:44 37.862373000 -122.249340000 97.7

T 2017-11-26 20:24:45 37.862362000 -122.249230000 99.5

T 2017-11-26 20:24:47 37.862380000 -122.248990000 101.1

T 2017-11-26 20:24:48 37.862385000 -122.248860000 101.4

T 2017-11-26 20:24:49 37.862390000 -122.248730000 102.8


T 2017-11-26 20:24:50 37.862390000 -122.248604000 102.9

T 2017-11-26 20:24:51 37.862396000 -122.248474000 103.4

T 2017-11-26 20:24:52 37.862404000 -122.248344000 104.0

T 2017-11-26 20:24:53 37.862410000 -122.248215000 105.7

T 2017-11-26 20:24:54 37.862423000 -122.248085000 105.7

T 2017-11-26 20:24:55 37.862434000 -122.247970000 105.2

T 2017-11-26 20:24:56 37.862442000 -122.247856000 105.7

T 2017-11-26 20:24:58 37.862453000 -122.247630000 107.4

T 2017-11-26 20:24:59 37.862453000 -122.247520000 107.2

T 2017-11-26 20:25:00 37.862457000 -122.247430000 107.4

T 2017-11-26 20:25:02 37.862453000 -122.247375000 107.0

T 2017-11-26 20:25:11 37.862476000 -122.247290000 106.3

T 2017-11-26 20:25:12 37.862490000 -122.247215000 107.3

T 2017-11-26 20:25:13 37.862484000 -122.247130000 108.4

T 2017-11-26 20:25:15 37.862500000 -122.246956000 109.0

T 2017-11-26 20:25:16 37.862507000 -122.246860000 109.1

T 2017-11-26 20:25:17 37.862500000 -122.246750000 109.9

T 2017-11-26 20:25:18 37.862507000 -122.246640000 109.8

T 2017-11-26 20:25:19 37.862500000 -122.246540000 110.6

T 2017-11-26 20:25:20 37.862514000 -122.246430000 111.7

T 2017-11-26 20:25:21 37.862526000 -122.246340000 111.7

T 2017-11-26 20:25:22 37.862530000 -122.246254000 111.2

T 2017-11-26 20:25:23 37.862540000 -122.246160000 110.8

T 2017-11-26 20:25:24 37.862520000 -122.246086000 110.8

T 2017-11-26 20:25:25 37.862520000 -122.246030000 110.1

T 2017-11-26 20:25:26 37.862427000 -122.245980000 109.6

T 2017-11-26 20:25:28 37.862247000 -122.245970000 107.8

T 2017-11-26 20:25:29 37.862152000 -122.245964000 107.0

T 2017-11-26 20:25:30 37.862050000 -122.245960000 107.4


T 2017-11-26 20:25:31 37.861954000 -122.245950000 107.3

T 2017-11-26 20:25:32 37.861860000 -122.245940000 107.0

T 2017-11-26 20:25:33 37.861767000 -122.245926000 106.2

T 2017-11-26 20:25:34 37.861668000 -122.245910000 104.9

T 2017-11-26 20:25:35 37.861576000 -122.245900000 104.6

T 2017-11-26 20:25:36 37.861480000 -122.245895000 104.5

T 2017-11-26 20:25:37 37.861385000 -122.245890000 104.2

T 2017-11-26 20:25:39 37.861183000 -122.245865000 103.2

T 2017-11-26 20:25:40 37.861095000 -122.245860000 103.8

T 2017-11-26 20:25:41 37.860996000 -122.245850000 103.6

T 2017-11-26 20:25:42 37.860897000 -122.245850000 104.6

T 2017-11-26 20:25:43 37.860798000 -122.245850000 104.9

T 2017-11-26 20:25:44 37.860730000 -122.245766000 103.3

T 2017-11-26 20:25:45 37.860650000 -122.245705000 103.6

T 2017-11-26 20:25:46 37.860573000 -122.245620000 102.7

T 2017-11-26 20:25:47 37.860497000 -122.245560000 102.8

T 2017-11-26 20:25:48 37.860400000 -122.245530000 101.0

T 2017-11-26 20:25:50 37.860214000 -122.245480000 101.1

T 2017-11-26 20:25:51 37.860126000 -122.245476000 101.6

T 2017-11-26 20:25:52 37.860027000 -122.245470000 101.4

T 2017-11-26 20:25:53 37.859940000 -122.245460000 101.4

T 2017-11-26 20:25:54 37.859850000 -122.245445000 101.4

T 2017-11-26 20:25:55 37.859768000 -122.245440000 101.0

T 2017-11-26 20:25:56 37.859676000 -122.245430000 100.5

T 2017-11-26 20:25:57 37.859585000 -122.245420000 100.6

T 2017-11-26 20:25:58 37.859500000 -122.245390000 99.7

T 2017-11-26 20:25:59 37.859410000 -122.245390000 98.6

T 2017-11-26 20:26:00 37.859318000 -122.245384000 97.7

T 2017-11-26 20:26:01 37.859245000 -122.245370000 96.7

T 2017-11-26 20:26:03 37.859116000 -122.245350000 96.0


T 2017-11-26 20:26:04 37.859070000 -122.245350000 96.2

T 2017-11-26 20:26:05 37.859030000 -122.245350000 96.3

T 2017-11-26 20:26:07 37.858990000 -122.245346000 97.2

T 2017-11-26 20:26:08 37.858948000 -122.245340000 96.7

T 2017-11-26 20:26:09 37.858894000 -122.245330000 96.2

T 2017-11-26 20:26:10 37.858840000 -122.245320000 96.2

T 2017-11-26 20:26:11 37.858780000 -122.245290000 96.8

T 2017-11-26 20:26:12 37.858727000 -122.245255000 96.5

T 2017-11-26 20:26:13 37.858677000 -122.245220000 95.6

T 2017-11-26 20:26:15 37.858578000 -122.245140000 94.2

T 2017-11-26 20:26:17 37.858536000 -122.245120000 97.2

T 2017-11-26 20:26:22 37.858517000 -122.245100000 94.0

T 2017-11-26 20:26:24 37.858486000 -122.245094000 94.8

T 2017-11-26 20:26:26 37.858456000 -122.245094000 93.8

T 2017-11-26 20:26:28 37.858418000 -122.245080000 94.0

T 2017-11-26 20:26:30 37.858360000 -122.245094000 93.8

T 2017-11-26 20:26:31 37.858322000 -122.245110000 93.6

T 2017-11-26 20:26:32 37.858288000 -122.245130000 93.6

T 2017-11-26 20:26:34 37.858220000 -122.245190000 93.9

T 2017-11-26 20:26:35 37.858190000 -122.245220000 93.8

T 2017-11-26 20:26:36 37.858166000 -122.245240000 93.4

T 2017-11-26 20:26:47 37.858135000 -122.245255000 94.5

T 2017-11-26 20:26:49 37.858060000 -122.245230000 94.5

T 2017-11-26 20:26:50 37.858020000 -122.245155000 94.6

T 2017-11-26 20:26:51 37.858017000 -122.245080000 95.8

T 2017-11-26 20:26:52 37.858020000 -122.244990000 96.3

T 2017-11-26 20:26:53 37.858025000 -122.244890000 97.1

T 2017-11-26 20:26:55 37.858044000 -122.244644000 97.9

T 2017-11-26 20:26:56 37.858050000 -122.244520000 98.3


T 2017-11-26 20:26:57 37.858063000 -122.244410000 99.1

T 2017-11-26 20:26:58 37.858067000 -122.244300000 100.7

T 2017-11-26 20:26:59 37.858067000 -122.244210000 101.7

T 2017-11-26 20:27:00 37.858067000 -122.244125000 102.1

T 2017-11-26 20:27:01 37.858063000 -122.244060000 102.5

T 2017-11-26 20:27:03 37.858067000 -122.244020000 98.9

T 2017-11-26 20:27:23 37.858055000 -122.243965000 98.6

T 2017-11-26 20:27:24 37.858040000 -122.243890000 98.9

T 2017-11-26 20:27:25 37.858032000 -122.243820000 99.3

T 2017-11-26 20:27:27 37.857998000 -122.243645000 99.6

T 2017-11-26 20:27:28 37.857975000 -122.243540000 100.5

T 2017-11-26 20:27:29 37.857964000 -122.243430000 101.2

T 2017-11-26 20:27:30 37.857925000 -122.243320000 101.2

T 2017-11-26 20:27:31 37.857890000 -122.243195000 101.8

T 2017-11-26 20:27:32 37.857826000 -122.243090000 102.7

T 2017-11-26 20:27:33 37.857765000 -122.242990000 103.6

T 2017-11-26 20:27:34 37.857708000 -122.242905000 104.6

T 2017-11-26 20:27:35 37.857660000 -122.242800000 105.8

T 2017-11-26 20:27:36 37.857628000 -122.242680000 105.2

T 2017-11-26 20:27:38 37.857582000 -122.242470000 106.7

T 2017-11-26 20:27:39 37.857550000 -122.242350000 107.6

T 2017-11-26 20:27:40 37.857506000 -122.242240000 108.0

T 2017-11-26 20:27:41 37.857480000 -122.242120000 108.2

T 2017-11-26 20:27:42 37.857420000 -122.242004000 108.5

T 2017-11-26 20:27:43 37.857357000 -122.241900000 108.8

T 2017-11-26 20:27:44 37.857240000 -122.241810000 110.4

T 2017-11-26 20:27:45 37.857160000 -122.241740000 110.6

T 2017-11-26 20:27:46 37.857040000 -122.241670000 110.8

T 2017-11-26 20:27:47 37.856922000 -122.241600000 112.9

T 2017-11-26 20:27:49 37.856724000 -122.241430000 115.7


T 2017-11-26 20:27:50 37.856690000 -122.241300000 115.7

T 2017-11-26 20:27:51 37.856620000 -122.241165000 116.0

T 2017-11-26 20:27:52 37.856544000 -122.241030000 115.4

T 2017-11-26 20:27:53 37.856453000 -122.240930000 115.2

T 2017-11-26 20:27:54 37.856407000 -122.240850000 117.7

T 2017-11-26 20:27:55 37.856340000 -122.240770000 117.6

T 2017-11-26 20:27:57 37.856182000 -122.240610000 119.0

T 2017-11-26 20:27:58 37.856064000 -122.240524000 117.8

T 2017-11-26 20:27:59 37.855972000 -122.240440000 118.9

T 2017-11-26 20:28:00 37.855896000 -122.240360000 118.7

T 2017-11-26 20:28:01 37.855820000 -122.240250000 118.8

T 2017-11-26 20:28:02 37.855730000 -122.240120000 119.6

T 2017-11-26 20:28:03 37.855640000 -122.240000000 120.4

T 2017-11-26 20:28:04 37.855564000 -122.239890000 120.3

T 2017-11-26 20:28:05 37.855515000 -122.239760000 122.4

T 2017-11-26 20:28:06 37.855453000 -122.239640000 122.9

T 2017-11-26 20:28:07 37.855396000 -122.239510000 124.3

T 2017-11-26 20:28:09 37.855312000 -122.239230000 125.3

T 2017-11-26 20:28:10 37.855297000 -122.239075000 126.7

T 2017-11-26 20:28:11 37.855267000 -122.238914000 114.2

T 2017-11-26 20:28:12 37.855240000 -122.238750000 121.7

T 2017-11-26 20:28:13 37.855210000 -122.238560000 126.1

T 2017-11-26 20:28:14 37.855170000 -122.238390000 127.8

T 2017-11-26 20:28:15 37.855137000 -122.238210000 129.5

T 2017-11-26 20:28:16 37.855072000 -122.238030000 130.6

T 2017-11-26 20:28:17 37.855022000 -122.237860000 133.7

T 2017-11-26 20:28:18 37.854977000 -122.237710000 135.6

T 2017-11-26 20:28:19 37.854930000 -122.237560000 135.6

T 2017-11-26 20:28:21 37.854794000 -122.237270000 135.6


T 2017-11-26 20:28:22 37.854733000 -122.237120000 135.8

T 2017-11-26 20:28:23 37.854614000 -122.236984000 134.5

T 2017-11-26 20:28:24 37.854534000 -122.236870000 134.5

T 2017-11-26 20:28:25 37.854410000 -122.236755000 134.8

T 2017-11-26 20:28:26 37.854300000 -122.236650000 135.3

T 2017-11-26 20:28:27 37.854170000 -122.236560000 134.8

T 2017-11-26 20:28:28 37.854100000 -122.236440000 136.8

T 2017-11-26 20:28:30 37.853928000 -122.236210000 138.3

T 2017-11-26 20:28:31 37.853820000 -122.236115000 139.2

T 2017-11-26 20:28:32 37.853740000 -122.236050000 140.3

T 2017-11-26 20:28:33 37.853630000 -122.235985000 141.5

T 2017-11-26 20:28:34 37.853535000 -122.235916000 142.2

T 2017-11-26 20:28:35 37.853428000 -122.235850000 141.7

T 2017-11-26 20:28:37 37.853264000 -122.235680000 143.5

T 2017-11-26 20:28:38 37.853172000 -122.235570000 144.6

T 2017-11-26 20:28:39 37.853070000 -122.235440000 145.9

T 2017-11-26 20:28:40 37.852962000 -122.235306000 145.9

T 2017-11-26 20:28:41 37.852905000 -122.235230000 142.5

T 2017-11-26 20:28:42 37.852814000 -122.235085000 142.2

T 2017-11-26 20:28:43 37.852722000 -122.234960000 142.4

T 2017-11-26 20:28:44 37.852654000 -122.234850000 143.9

T 2017-11-26 20:28:45 37.852627000 -122.234730000 145.4

T 2017-11-26 20:28:46 37.852590000 -122.234634000 146.4

T 2017-11-26 20:28:47 37.852547000 -122.234510000 146.5

T 2017-11-26 20:28:49 37.852470000 -122.234276000 146.6

T 2017-11-26 20:28:50 37.852432000 -122.234146000 145.9

T 2017-11-26 20:28:51 37.852380000 -122.234010000 147.2

T 2017-11-26 20:28:52 37.852325000 -122.233894000 148.4

T 2017-11-26 20:28:53 37.852240000 -122.233770000 147.8

T 2017-11-26 20:28:54 37.852160000 -122.233665000 148.2


T 2017-11-26 20:28:55 37.852060000 -122.233570000 147.8

T 2017-11-26 20:28:56 37.851960000 -122.233470000 148.5

T 2017-11-26 20:28:57 37.851856000 -122.233380000 149.4

T 2017-11-26 20:28:58 37.851746000 -122.233315000 150.6

T 2017-11-26 20:28:59 37.851646000 -122.233240000 151.1

T 2017-11-26 20:29:01 37.851467000 -122.233116000 152.3

T 2017-11-26 20:29:02 37.851376000 -122.233060000 153.1

T 2017-11-26 20:29:03 37.851273000 -122.233000000 150.6

T 2017-11-26 20:29:04 37.851173000 -122.232940000 151.3

T 2017-11-26 20:29:05 37.851044000 -122.232880000 151.3

T 2017-11-26 20:29:06 37.850945000 -122.232800000 150.9

T 2017-11-26 20:29:07 37.850830000 -122.232700000 151.3

T 2017-11-26 20:29:08 37.850708000 -122.232590000 151.9

T 2017-11-26 20:29:09 37.850597000 -122.232470000 151.6

T 2017-11-26 20:29:11 37.850395000 -122.232185000 149.5

T 2017-11-26 20:29:12 37.850304000 -122.232030000 149.9

T 2017-11-26 20:29:13 37.850235000 -122.231860000 149.8

T 2017-11-26 20:29:14 37.850174000 -122.231670000 148.6

T 2017-11-26 20:29:15 37.850090000 -122.231490000 148.2

T 2017-11-26 20:29:16 37.850020000 -122.231300000 147.9

T 2017-11-26 20:29:17 37.849957000 -122.231094000 146.1

T 2017-11-26 20:29:18 37.849873000 -122.230900000 144.8

T 2017-11-26 20:29:19 37.849792000 -122.230705000 143.9

T 2017-11-26 20:29:20 37.849700000 -122.230510000 143.1

T 2017-11-26 20:29:21 37.849613000 -122.230290000 141.7

T 2017-11-26 20:29:22 37.849514000 -122.230080000 139.9

T 2017-11-26 20:29:24 37.849323000 -122.229640000 137.8

T 2017-11-26 20:29:25 37.849236000 -122.229400000 136.0

T 2017-11-26 20:29:26 37.849136000 -122.229164000 135.4


T 2017-11-26 20:29:27 37.849033000 -122.228940000 134.7

T 2017-11-26 20:29:28 37.848923000 -122.228730000 134.0

T 2017-11-26 20:29:29 37.848804000 -122.228500000 133.8

T 2017-11-26 20:29:30 37.848670000 -122.228280000 133.7

T 2017-11-26 20:29:31 37.848534000 -122.228065000 133.9

T 2017-11-26 20:29:32 37.848312000 -122.228000000 138.2

T 2017-11-26 20:29:33 37.848118000 -122.227844000 137.7

T 2017-11-26 20:29:34 37.847908000 -122.227776000 136.6

T 2017-11-26 20:29:36 37.847507000 -122.227610000 135.4

T 2017-11-26 20:29:37 37.847282000 -122.227630000 136.4

T 2017-11-26 20:29:38 37.847076000 -122.227630000 136.0

T 2017-11-26 20:29:39 37.846867000 -122.227646000 137.2

T 2017-11-26 20:29:40 37.846650000 -122.227650000 137.9

T 2017-11-26 20:29:41 37.846440000 -122.227660000 138.9

T 2017-11-26 20:29:42 37.846233000 -122.227660000 139.1

T 2017-11-26 20:29:43 37.846024000 -122.227650000 139.7

T 2017-11-26 20:29:44 37.845818000 -122.227620000 139.9

T 2017-11-26 20:29:45 37.845627000 -122.227570000 139.3

T 2017-11-26 20:29:46 37.845432000 -122.227486000 140.4

T 2017-11-26 20:29:48 37.845043000 -122.227300000 141.0

T 2017-11-26 20:29:49 37.844850000 -122.227210000 140.9

T 2017-11-26 20:29:50 37.844666000 -122.227100000 140.4

T 2017-11-26 20:29:51 37.844482000 -122.226950000 140.7

T 2017-11-26 20:29:52 37.844296000 -122.226830000 140.1

T 2017-11-26 20:29:54 37.843925000 -122.226560000 139.8

T 2017-11-26 20:29:55 37.843740000 -122.226425000 140.3

T 2017-11-26 20:29:56 37.843555000 -122.226290000 140.4

T 2017-11-26 20:29:57 37.843380000 -122.226135000 140.8

T 2017-11-26 20:29:58 37.843210000 -122.226000000 142.2

T 2017-11-26 20:29:59 37.843030000 -122.225850000 142.4


T 2017-11-26 20:30:00 37.842857000 -122.225700000 143.1

T 2017-11-26 20:30:01 37.842686000 -122.225550000 143.7

T 2017-11-26 20:30:02 37.842514000 -122.225400000 143.6

T 2017-11-26 20:30:04 37.842160000 -122.225136000 143.8

T 2017-11-26 20:30:05 37.841984000 -122.225006000 144.5

T 2017-11-26 20:30:06 37.841800000 -122.224870000 145.3

T 2017-11-26 20:30:07 37.841630000 -122.224740000 144.5

T 2017-11-26 20:30:08 37.841446000 -122.224610000 144.8

T 2017-11-26 20:30:09 37.841260000 -122.224490000 144.9

T 2017-11-26 20:30:10 37.841072000 -122.224350000 145.7

T 2017-11-26 20:30:11 37.840885000 -122.224220000 145.2

T 2017-11-26 20:30:12 37.840690000 -122.224106000 145.9

T 2017-11-26 20:30:13 37.840510000 -122.223950000 144.2

T 2017-11-26 20:30:15 37.840115000 -122.223670000 143.7

T 2017-11-26 20:30:16 37.839916000 -122.223530000 144.4

T 2017-11-26 20:30:17 37.839752000 -122.223450000 145.6

T 2017-11-26 20:30:18 37.839554000 -122.223300000 146.1

T 2017-11-26 20:30:19 37.839348000 -122.223120000 146.5

T 2017-11-26 20:30:20 37.839160000 -122.222980000 147.6

T 2017-11-26 20:30:21 37.838974000 -122.222810000 147.8

T 2017-11-26 20:30:22 37.838790000 -122.222640000 148.1

T 2017-11-26 20:30:23 37.838623000 -122.222466000 149.5

T 2017-11-26 20:30:25 37.838276000 -122.222084000 148.9

T 2017-11-26 20:30:26 37.838108000 -122.221900000 147.9

T 2017-11-26 20:30:27 37.837975000 -122.221695000 149.2

T 2017-11-26 20:30:28 37.837830000 -122.221490000 150.1

T 2017-11-26 20:30:29 37.837677000 -122.221280000 150.3

T 2017-11-26 20:30:30 37.837530000 -122.221080000 150.9

T 2017-11-26 20:30:31 37.837376000 -122.220870000 151.1


T 2017-11-26 20:30:32 37.837220000 -122.220660000 151.8

T 2017-11-26 20:30:33 37.837060000 -122.220450000 152.1

T 2017-11-26 20:30:35 37.836730000 -122.220080000 153.0

T 2017-11-26 20:30:36 37.836567000 -122.219890000 154.3

T 2017-11-26 20:30:37 37.836384000 -122.219700000 153.1

T 2017-11-26 20:30:38 37.836216000 -122.219550000 153.6

T 2017-11-26 20:30:39 37.836063000 -122.219380000 154.3

T 2017-11-26 20:30:40 37.835884000 -122.219260000 154.3

T 2017-11-26 20:30:41 37.835693000 -122.219150000 154.9

T 2017-11-26 20:30:43 37.835290000 -122.218895000 159.9

T 2017-11-26 20:30:44 37.835100000 -122.218760000 149.2

T 2017-11-26 20:30:45 37.834904000 -122.218620000 157.0

T 2017-11-26 20:30:46 37.834717000 -122.218480000 162.2

T 2017-11-26 20:30:47 37.834520000 -122.218360000 166.7

T 2017-11-26 20:30:48 37.834316000 -122.218230000 169.7

T 2017-11-26 20:30:49 37.834120000 -122.218100000 171.0

T 2017-11-26 20:30:50 37.833930000 -122.217964000 173.7

T 2017-11-26 20:30:51 37.833740000 -122.217830000 175.5

T 2017-11-26 20:30:52 37.833546000 -122.217690000 178.2

T 2017-11-26 20:30:53 37.833350000 -122.217550000 178.8

T 2017-11-26 20:30:55 37.832966000 -122.217260000 179.5

T 2017-11-26 20:30:56 37.832770000 -122.217125000 180.5

T 2017-11-26 20:30:57 37.832573000 -122.216970000 182.5

T 2017-11-26 20:30:58 37.832380000 -122.216820000 183.8

T 2017-11-26 20:30:59 37.832188000 -122.216660000 184.9

T 2017-11-26 20:31:00 37.831997000 -122.216500000 184.8

T 2017-11-26 20:31:01 37.831814000 -122.216330000 184.4

T 2017-11-26 20:31:02 37.831630000 -122.216156000 184.5

T 2017-11-26 20:31:03 37.831444000 -122.215980000 185.0

T 2017-11-26 20:31:04 37.831280000 -122.215805000 186.3


T 2017-11-26 20:31:06 37.830933000 -122.215450000 185.9

T 2017-11-26 20:31:07 37.830753000 -122.215270000 186.3

T 2017-11-26 20:31:08 37.830578000 -122.215090000 186.4

T 2017-11-26 20:31:09 37.830402000 -122.214920000 187.0

T 2017-11-26 20:31:10 37.830227000 -122.214750000 188.1

T 2017-11-26 20:31:11 37.830050000 -122.214580000 188.7

T 2017-11-26 20:31:12 37.829872000 -122.214400000 189.5

T 2017-11-26 20:31:13 37.829693000 -122.214226000 189.9

T 2017-11-26 20:31:14 37.829514000 -122.214050000 190.0

T 2017-11-26 20:31:15 37.829340000 -122.213875000 190.3

T 2017-11-26 20:31:16 37.829163000 -122.213700000 190.7

T 2017-11-26 20:31:18 37.828820000 -122.213360000 189.3

T 2017-11-26 20:31:19 37.828650000 -122.213190000 188.6

T 2017-11-26 20:31:20 37.828476000 -122.213005000 189.9

T 2017-11-26 20:31:21 37.828290000 -122.212830000 190.4

T 2017-11-26 20:31:22 37.828100000 -122.212670000 189.5

T 2017-11-26 20:31:23 37.827910000 -122.212510000 189.1

T 2017-11-26 20:31:24 37.827713000 -122.212360000 187.8

T 2017-11-26 20:31:25 37.827526000 -122.212200000 187.1

T 2017-11-26 20:31:26 37.827330000 -122.212036000 186.0

T 2017-11-26 20:31:28 37.826958000 -122.211710000 182.9

T 2017-11-26 20:31:30 37.826572000 -122.211380000 181.5

T 2017-11-26 20:31:31 37.826378000 -122.211230000 179.5

T 2017-11-26 20:31:32 37.826190000 -122.211075000 178.3

T 2017-11-26 20:31:33 37.825980000 -122.210920000 177.6

T 2017-11-26 20:31:34 37.825783000 -122.210785000 177.2

T 2017-11-26 20:31:35 37.825596000 -122.210630000 180.9

T 2017-11-26 20:31:36 37.825428000 -122.210510000 179.0

T 2017-11-26 20:31:37 37.825250000 -122.210370000 178.6


T 2017-11-26 20:31:38 37.825070000 -122.210205000 179.8

T 2017-11-26 20:31:40 37.824703000 -122.209890000 177.8

T 2017-11-26 20:31:41 37.824516000 -122.209724000 176.1

T 2017-11-26 20:31:42 37.824326000 -122.209570000 174.4

T 2017-11-26 20:31:43 37.824140000 -122.209420000 173.2

T 2017-11-26 20:31:44 37.823948000 -122.209270000 171.6

T 2017-11-26 20:31:45 37.823750000 -122.209114000 169.1

T 2017-11-26 20:31:46 37.823550000 -122.208960000 167.8

T 2017-11-26 20:31:47 37.823357000 -122.208810000 166.8

T 2017-11-26 20:31:48 37.823160000 -122.208650000 164.3

T 2017-11-26 20:31:49 37.822968000 -122.208500000 162.0

T 2017-11-26 20:31:51 37.822590000 -122.208180000 158.5

T 2017-11-26 20:31:52 37.822400000 -122.208030000 156.7

T 2017-11-26 20:31:53 37.822212000 -122.207886000 154.3

T 2017-11-26 20:31:54 37.822025000 -122.207726000 153.0

T 2017-11-26 20:31:55 37.821840000 -122.207570000 150.9

T 2017-11-26 20:31:56 37.821650000 -122.207420000 149.0

T 2017-11-26 20:31:57 37.821465000 -122.207260000 148.3

T 2017-11-26 20:31:58 37.821274000 -122.207100000 148.8

T 2017-11-26 20:31:59 37.821095000 -122.206955000 147.9

T 2017-11-26 20:32:00 37.820915000 -122.206800000 149.9

T 2017-11-26 20:32:02 37.820553000 -122.206474000 148.7

T 2017-11-26 20:32:03 37.820377000 -122.206320000 149.6

T 2017-11-26 20:32:04 37.820210000 -122.206180000 151.3

T 2017-11-26 20:32:05 37.820026000 -122.206030000 152.4

T 2017-11-26 20:32:06 37.819847000 -122.205890000 152.7

T 2017-11-26 20:32:07 37.819664000 -122.205740000 152.4

T 2017-11-26 20:32:08 37.819485000 -122.205590000 152.6

T 2017-11-26 20:32:09 37.819298000 -122.205440000 154.5

T 2017-11-26 20:32:10 37.819122000 -122.205280000 155.1


T 2017-11-26 20:32:11 37.818935000 -122.205124000 156.2

T 2017-11-26 20:32:12 37.818756000 -122.204970000 157.0

T 2017-11-26 20:32:14 37.818386000 -122.204660000 159.2

T 2017-11-26 20:32:15 37.818203000 -122.204500000 159.4

T 2017-11-26 20:32:16 37.818016000 -122.204346000 159.9

T 2017-11-26 20:32:17 37.817830000 -122.204190000 161.2

T 2017-11-26 20:32:18 37.817642000 -122.204050000 161.7

T 2017-11-26 20:32:19 37.817455000 -122.203896000 162.0

T 2017-11-26 20:32:20 37.817270000 -122.203735000 162.1

T 2017-11-26 20:32:21 37.817078000 -122.203590000 162.6

T 2017-11-26 20:32:22 37.816890000 -122.203440000 163.6

T 2017-11-26 20:32:23 37.816700000 -122.203290000 164.0

T 2017-11-26 20:32:24 37.816510000 -122.203150000 164.6

T 2017-11-26 20:32:26 37.816116000 -122.202866000 166.7

T 2017-11-26 20:32:27 37.815926000 -122.202730000 167.3

T 2017-11-26 20:32:28 37.815727000 -122.202580000 168.2

T 2017-11-26 20:32:29 37.815533000 -122.202440000 169.2

T 2017-11-26 20:32:30 37.815340000 -122.202310000 170.7

T 2017-11-26 20:32:31 37.815150000 -122.202170000 172.2

T 2017-11-26 20:32:32 37.814960000 -122.202034000 173.5

T 2017-11-26 20:32:33 37.814774000 -122.201890000 174.1

T 2017-11-26 20:32:35 37.814390000 -122.201620000 175.1

T 2017-11-26 20:32:36 37.814200000 -122.201480000 175.4

T 2017-11-26 20:32:37 37.814022000 -122.201330000 176.8

T 2017-11-26 20:32:38 37.813847000 -122.201170000 177.8

T 2017-11-26 20:32:39 37.813663000 -122.201020000 179.2

T 2017-11-26 20:32:40 37.813477000 -122.200860000 180.2

T 2017-11-26 20:32:41 37.813290000 -122.200700000 180.9

T 2017-11-26 20:32:42 37.813103000 -122.200540000 181.9


T 2017-11-26 20:32:43 37.812920000 -122.200380000 182.2

T 2017-11-26 20:32:44 37.812748000 -122.200220000 183.8

T 2017-11-26 20:32:45 37.812565000 -122.200040000 184.1

T 2017-11-26 20:32:46 37.812393000 -122.199880000 185.0

T 2017-11-26 20:32:48 37.812042000 -122.199540000 186.4

T 2017-11-26 20:32:49 37.811867000 -122.199350000 186.3

T 2017-11-26 20:32:50 37.811726000 -122.199180000 186.7

T 2017-11-26 20:32:51 37.811580000 -122.199030000 186.9

T 2017-11-26 20:32:52 37.811410000 -122.198820000 187.9

T 2017-11-26 20:32:53 37.811237000 -122.198610000 183.4

T 2017-11-26 20:32:54 37.811066000 -122.198395000 184.4

T 2017-11-26 20:32:55 37.810894000 -122.198170000 185.2

T 2017-11-26 20:32:56 37.810734000 -122.197960000 186.4

T 2017-11-26 20:32:57 37.810574000 -122.197730000 186.8

T 2017-11-26 20:32:59 37.810260000 -122.197300000 186.9

T 2017-11-26 20:33:00 37.810093000 -122.197100000 186.4

T 2017-11-26 20:33:01 37.809933000 -122.196910000 187.4

T 2017-11-26 20:33:02 37.809770000 -122.196700000 187.5

T 2017-11-26 20:33:03 37.809612000 -122.196500000 186.9

T 2017-11-26 20:33:04 37.809460000 -122.196304000 186.2

T 2017-11-26 20:33:05 37.809300000 -122.196100000 186.1

T 2017-11-26 20:33:07 37.808970000 -122.195710000 185.1

T 2017-11-26 20:33:08 37.808807000 -122.195520000 184.3

T 2017-11-26 20:33:09 37.808643000 -122.195320000 183.8

T 2017-11-26 20:33:10 37.808470000 -122.195120000 184.0

T 2017-11-26 20:33:12 37.808125000 -122.194740000 182.0

T 2017-11-26 20:33:13 37.807940000 -122.194565000 180.9

T 2017-11-26 20:33:14 37.807760000 -122.194400000 179.7

T 2017-11-26 20:33:15 37.807580000 -122.194230000 178.5

T 2017-11-26 20:33:16 37.807396000 -122.194060000 177.8


T 2017-11-26 20:33:17 37.807213000 -122.193890000 176.8

T 2017-11-26 20:33:18 37.807026000 -122.193740000 177.6

T 2017-11-26 20:33:19 37.806843000 -122.193580000 176.1

T 2017-11-26 20:33:20 37.806660000 -122.193410000 174.6

T 2017-11-26 20:33:21 37.806477000 -122.193250000 173.4

T 2017-11-26 20:33:22 37.806286000 -122.193110000 171.7

T 2017-11-26 20:33:23 37.806095000 -122.192950000 169.3

T 2017-11-26 20:33:24 37.805916000 -122.192790000 168.2

T 2017-11-26 20:33:26 37.805546000 -122.192470000 165.0

T 2017-11-26 20:33:27 37.805355000 -122.192310000 163.8

T 2017-11-26 20:33:28 37.805170000 -122.192150000 162.1

T 2017-11-26 20:33:29 37.804980000 -122.191986000 161.2

T 2017-11-26 20:33:30 37.804800000 -122.191830000 158.9

T 2017-11-26 20:33:31 37.804604000 -122.191680000 157.9

T 2017-11-26 20:33:32 37.804413000 -122.191530000 156.7

T 2017-11-26 20:33:33 37.804222000 -122.191380000 155.5

T 2017-11-26 20:33:34 37.804028000 -122.191230000 154.7

T 2017-11-26 20:33:36 37.803642000 -122.190930000 151.3

T 2017-11-26 20:33:37 37.803460000 -122.190780000 149.3

T 2017-11-26 20:33:38 37.803276000 -122.190610000 147.4

T 2017-11-26 20:33:39 37.803093000 -122.190460000 146.9

T 2017-11-26 20:33:40 37.802902000 -122.190310000 147.0

T 2017-11-26 20:33:41 37.802723000 -122.190125000 146.5

T 2017-11-26 20:33:42 37.802555000 -122.189940000 145.1

T 2017-11-26 20:33:43 37.802402000 -122.189766000 145.3

T 2017-11-26 20:33:44 37.802250000 -122.189575000 146.3

T 2017-11-26 20:33:45 37.802097000 -122.189384000 146.7

T 2017-11-26 20:33:47 37.801792000 -122.188990000 145.0

T 2017-11-26 20:33:48 37.801632000 -122.188790000 143.8


T 2017-11-26 20:33:49 37.801470000 -122.188580000 142.7

T 2017-11-26 20:33:51 37.801174000 -122.188180000 141.9

T 2017-11-26 20:33:52 37.801014000 -122.187980000 141.1

T 2017-11-26 20:33:53 37.800846000 -122.187790000 141.3

T 2017-11-26 20:33:54 37.800686000 -122.187600000 140.9

T 2017-11-26 20:33:55 37.800520000 -122.187410000 139.5

T 2017-11-26 20:33:56 37.800354000 -122.187225000 138.4

T 2017-11-26 20:33:57 37.800182000 -122.187035000 139.0

T 2017-11-26 20:33:58 37.800007000 -122.186860000 137.7

T 2017-11-26 20:34:00 37.799660000 -122.186490000 133.2

T 2017-11-26 20:34:01 37.799477000 -122.186320000 132.1

T 2017-11-26 20:34:02 37.799297000 -122.186150000 129.6

T 2017-11-26 20:34:03 37.799118000 -122.185974000 128.6

T 2017-11-26 20:34:04 37.798940000 -122.185810000 127.0

T 2017-11-26 20:34:05 37.798760000 -122.185640000 126.5

T 2017-11-26 20:34:06 37.798580000 -122.185470000 125.6

T 2017-11-26 20:34:07 37.798393000 -122.185300000 125.1

T 2017-11-26 20:34:08 37.798203000 -122.185160000 124.4

T 2017-11-26 20:34:09 37.798016000 -122.185020000 123.4

T 2017-11-26 20:34:11 37.797626000 -122.184746000 122.5

T 2017-11-26 20:34:12 37.797436000 -122.184590000 122.5

T 2017-11-26 20:34:13 37.797253000 -122.184440000 122.2

T 2017-11-26 20:34:14 37.797066000 -122.184296000 122.0

T 2017-11-26 20:34:15 37.796880000 -122.184140000 121.0

T 2017-11-26 20:34:16 37.796690000 -122.184000000 119.8

T 2017-11-26 20:34:17 37.796500000 -122.183850000 119.4

T 2017-11-26 20:34:18 37.796307000 -122.183710000 118.8

T 2017-11-26 20:34:19 37.796112000 -122.183556000 117.5

T 2017-11-26 20:34:20 37.795920000 -122.183400000 116.5

T 2017-11-26 20:34:22 37.795532000 -122.183110000 113.3


T 2017-11-26 20:34:23 37.795338000 -122.182976000 112.0

T 2017-11-26 20:34:24 37.795135000 -122.182840000 110.8

T 2017-11-26 20:34:25 37.794937000 -122.182690000 109.2

T 2017-11-26 20:34:26 37.794743000 -122.182556000 108.0

T 2017-11-26 20:34:27 37.794540000 -122.182430000 107.0

T 2017-11-26 20:34:29 37.794136000 -122.182180000 105.8

T 2017-11-26 20:34:30 37.793930000 -122.182060000 105.7

T 2017-11-26 20:34:31 37.793728000 -122.181940000 105.4

T 2017-11-26 20:34:32 37.793526000 -122.181816000 103.4

T 2017-11-26 20:34:33 37.793320000 -122.181694000 102.1

T 2017-11-26 20:34:34 37.793120000 -122.181580000 99.9

T 2017-11-26 20:34:35 37.792910000 -122.181470000 98.4

T 2017-11-26 20:34:36 37.792706000 -122.181366000 96.9

T 2017-11-26 20:34:37 37.792492000 -122.181270000 95.0

T 2017-11-26 20:34:38 37.792274000 -122.181206000 93.8

T 2017-11-26 20:34:40 37.791890000 -122.181120000 90.4

T 2017-11-26 20:34:41 37.791700000 -122.181110000 89.1

T 2017-11-26 20:34:42 37.791500000 -122.181114000 88.1

T 2017-11-26 20:34:43 37.791298000 -122.181114000 87.4

T 2017-11-26 20:34:44 37.791103000 -122.181140000 86.3

T 2017-11-26 20:34:45 37.790920000 -122.181170000 84.7

T 2017-11-26 20:34:46 37.790737000 -122.181200000 83.4

T 2017-11-26 20:34:47 37.790543000 -122.181240000 83.7

T 2017-11-26 20:34:48 37.790344000 -122.181280000 84.1

T 2017-11-26 20:34:49 37.790142000 -122.181320000 84.0

T 2017-11-26 20:34:51 37.789730000 -122.181420000 83.4

T 2017-11-26 20:34:52 37.789524000 -122.181470000 84.4

T 2017-11-26 20:34:53 37.789288000 -122.181465000 85.8

T 2017-11-26 20:34:54 37.789093000 -122.181480000 84.8


T 2017-11-26 20:34:55 37.788880000 -122.181470000 83.8

T 2017-11-26 20:34:56 37.788662000 -122.181465000 83.6

T 2017-11-26 20:34:57 37.788456000 -122.181430000 82.4

T 2017-11-26 20:34:58 37.788240000 -122.181370000 81.6

T 2017-11-26 20:34:59 37.788020000 -122.181290000 80.8

T 2017-11-26 20:35:00 37.787827000 -122.181200000 80.4

T 2017-11-26 20:35:02 37.787453000 -122.180930000 79.5

T 2017-11-26 20:35:03 37.787273000 -122.180770000 78.8

T 2017-11-26 20:35:05 37.786910000 -122.180466000 77.6

T 2017-11-26 20:35:06 37.786716000 -122.180300000 77.7

T 2017-11-26 20:35:07 37.786537000 -122.180115000 76.5

T 2017-11-26 20:35:08 37.786350000 -122.179950000 75.9

T 2017-11-26 20:35:09 37.786156000 -122.179780000 75.5

T 2017-11-26 20:35:10 37.785957000 -122.179610000 75.6

T 2017-11-26 20:35:11 37.785748000 -122.179474000 76.0

T 2017-11-26 20:35:12 37.785540000 -122.179340000 75.6

T 2017-11-26 20:35:14 37.785100000 -122.179090000 74.6

T 2017-11-26 20:35:15 37.784880000 -122.178980000 74.7

T 2017-11-26 20:35:16 37.784668000 -122.178860000 73.6

T 2017-11-26 20:35:17 37.784443000 -122.178760000 73.9

T 2017-11-26 20:35:18 37.784225000 -122.178650000 74.7

T 2017-11-26 20:35:19 37.784010000 -122.178540000 74.9

T 2017-11-26 20:35:20 37.783802000 -122.178430000 75.1

T 2017-11-26 20:35:21 37.783610000 -122.178280000 74.6

T 2017-11-26 20:35:22 37.783430000 -122.178130000 74.3

T 2017-11-26 20:35:23 37.783253000 -122.177970000 74.6

T 2017-11-26 20:35:24 37.783080000 -122.177790000 74.5

T 2017-11-26 20:35:25 37.782917000 -122.177590000 74.3

T 2017-11-26 20:35:27 37.782642000 -122.177140000 73.6

T 2017-11-26 20:35:28 37.782505000 -122.176895000 74.8


T 2017-11-26 20:35:29 37.782368000 -122.176640000 75.5

T 2017-11-26 20:35:30 37.782230000 -122.176390000 75.2

T 2017-11-26 20:35:31 37.782090000 -122.176150000 75.4

T 2017-11-26 20:35:32 37.781950000 -122.175890000 75.8

T 2017-11-26 20:35:33 37.781820000 -122.175644000 76.6

T 2017-11-26 20:35:34 37.781685000 -122.175400000 76.7

T 2017-11-26 20:35:35 37.781550000 -122.175156000 94.7

T 2017-11-26 20:35:36 37.781430000 -122.174910000 96.6

T 2017-11-26 20:35:37 37.781303000 -122.174675000 90.2

T 2017-11-26 20:35:39 37.781050000 -122.174200000 84.2

T 2017-11-26 20:35:40 37.780920000 -122.173970000 84.7

T 2017-11-26 20:35:41 37.780792000 -122.173744000 85.1

T 2017-11-26 20:35:42 37.780674000 -122.173510000 85.5

T 2017-11-26 20:35:43 37.780552000 -122.173260000 85.1

T 2017-11-26 20:35:44 37.780440000 -122.173030000 84.7

T 2017-11-26 20:35:45 37.780327000 -122.172780000 84.3

T 2017-11-26 20:35:46 37.780200000 -122.172530000 84.0

T 2017-11-26 20:35:47 37.780075000 -122.172270000 83.4

T 2017-11-26 20:35:48 37.779950000 -122.172010000 83.3

T 2017-11-26 20:35:50 37.779705000 -122.171490000 83.1

T 2017-11-26 20:35:51 37.779570000 -122.171234000 83.3

T 2017-11-26 20:35:52 37.779434000 -122.170970000 83.8

T 2017-11-26 20:35:53 37.779297000 -122.170700000 83.4

T 2017-11-26 20:35:54 37.779163000 -122.170425000 83.7

T 2017-11-26 20:35:55 37.779026000 -122.170140000 83.6

T 2017-11-26 20:35:57 37.778760000 -122.169600000 83.1

T 2017-11-26 20:35:58 37.778620000 -122.169330000 82.5

T 2017-11-26 20:35:59 37.778484000 -122.169060000 83.0

T 2017-11-26 20:36:00 37.778347000 -122.168800000 83.3


T 2017-11-26 20:36:01 37.778217000 -122.168530000 82.8

T 2017-11-26 20:36:02 37.778100000 -122.168280000 82.4

T 2017-11-26 20:36:04 37.777855000 -122.167760000 82.8

T 2017-11-26 20:36:05 37.777737000 -122.167510000 82.7

T 2017-11-26 20:36:06 37.777620000 -122.167250000 82.9

T 2017-11-26 20:36:07 37.777504000 -122.167000000 83.2

T 2017-11-26 20:36:08 37.777400000 -122.166750000 83.1

T 2017-11-26 20:36:09 37.777287000 -122.166504000 83.8

T 2017-11-26 20:36:10 37.777172000 -122.166250000 84.2

T 2017-11-26 20:36:11 37.777058000 -122.166010000 85.1

T 2017-11-26 20:36:12 37.776950000 -122.165764000 85.4

T 2017-11-26 20:36:13 37.776844000 -122.165520000 86.6

T 2017-11-26 20:36:14 37.776737000 -122.165276000 86.7

T 2017-11-26 20:36:15 37.776627000 -122.165040000 87.0

T 2017-11-26 20:36:16 37.776520000 -122.164800000 87.9

T 2017-11-26 20:36:17 37.776410000 -122.164566000 88.8

T 2017-11-26 20:36:19 37.776188000 -122.164090000 89.1

T 2017-11-26 20:36:20 37.776073000 -122.163860000 89.5

T 2017-11-26 20:36:21 37.775960000 -122.163620000 90.5

T 2017-11-26 20:36:22 37.775837000 -122.163380000 90.8

T 2017-11-26 20:36:23 37.775720000 -122.163150000 91.1

T 2017-11-26 20:36:24 37.775600000 -122.162910000 91.1

T 2017-11-26 20:36:25 37.775482000 -122.162670000 92.1

T 2017-11-26 20:36:26 37.775364000 -122.162430000 93.4

T 2017-11-26 20:36:27 37.775240000 -122.162190000 93.7

T 2017-11-26 20:36:28 37.775116000 -122.161950000 93.7

T 2017-11-26 20:36:30 37.774868000 -122.161480000 93.4

T 2017-11-26 20:36:31 37.774730000 -122.161255000 93.5

T 2017-11-26 20:36:32 37.774593000 -122.161020000 93.7

T 2017-11-26 20:36:33 37.774510000 -122.160770000 92.9


T 2017-11-26 20:36:34 37.774390000 -122.160530000 93.2

T 2017-11-26 20:36:35 37.774265000 -122.160290000 93.1

T 2017-11-26 20:36:36 37.774130000 -122.160060000 93.2

T 2017-11-26 20:36:37 37.774010000 -122.159810000 93.9

T 2017-11-26 20:36:39 37.773777000 -122.159320000 92.2

T 2017-11-26 20:36:40 37.773643000 -122.159080000 91.3

T 2017-11-26 20:36:41 37.773487000 -122.158844000 90.8

T 2017-11-26 20:36:42 37.773373000 -122.158615000 88.3

T 2017-11-26 20:36:43 37.773240000 -122.158400000 88.7

T 2017-11-26 20:36:44 37.773098000 -122.158180000 88.5

T 2017-11-26 20:36:45 37.772953000 -122.157950000 88.5

T 2017-11-26 20:36:46 37.772808000 -122.157740000 88.8

T 2017-11-26 20:36:47 37.772670000 -122.157530000 88.5

T 2017-11-26 20:36:48 37.772522000 -122.157326000 87.7

T 2017-11-26 20:36:49 37.772373000 -122.157120000 87.4

T 2017-11-26 20:36:50 37.772213000 -122.156910000 87.5

T 2017-11-26 20:36:52 37.771880000 -122.156530000 86.3

T 2017-11-26 20:36:53 37.771713000 -122.156334000 85.2

T 2017-11-26 20:36:54 37.771545000 -122.156136000 85.0

T 2017-11-26 20:36:55 37.771378000 -122.155980000 85.3

T 2017-11-26 20:36:56 37.771206000 -122.155810000 85.3

T 2017-11-26 20:36:57 37.771020000 -122.155660000 85.1

T 2017-11-26 20:36:58 37.770836000 -122.155495000 85.5

T 2017-11-26 20:36:59 37.770660000 -122.155340000 85.9

T 2017-11-26 20:37:00 37.770470000 -122.155190000 85.5

T 2017-11-26 20:37:01 37.770287000 -122.155040000 85.3

T 2017-11-26 20:37:03 37.769897000 -122.154755000 85.3

T 2017-11-26 20:37:04 37.769703000 -122.154620000 85.3

T 2017-11-26 20:37:05 37.769510000 -122.154490000 85.1


T 2017-11-26 20:37:06 37.769306000 -122.154366000 85.1

T 2017-11-26 20:37:07 37.769108000 -122.154236000 84.5

T 2017-11-26 20:37:08 37.768906000 -122.154110000 84.3

T 2017-11-26 20:37:09 37.768703000 -122.153990000 84.1

T 2017-11-26 20:37:10 37.768500000 -122.153870000 83.8

T 2017-11-26 20:37:11 37.768300000 -122.153740000 83.9

T 2017-11-26 20:37:12 37.768097000 -122.153620000 83.8

T 2017-11-26 20:37:14 37.767693000 -122.153370000 84.0

T 2017-11-26 20:37:15 37.767490000 -122.153260000 83.9

T 2017-11-26 20:37:17 37.767082000 -122.153015000 84.0

T 2017-11-26 20:37:18 37.766880000 -122.152885000 84.3

T 2017-11-26 20:37:19 37.766678000 -122.152760000 85.1

T 2017-11-26 20:37:20 37.766470000 -122.152650000 85.3

T 2017-11-26 20:37:21 37.766277000 -122.152530000 85.3

T 2017-11-26 20:37:22 37.766083000 -122.152390000 85.5

T 2017-11-26 20:37:24 37.765694000 -122.152110000 85.9

T 2017-11-26 20:37:25 37.765503000 -122.151955000 86.1

T 2017-11-26 20:37:27 37.765130000 -122.151634000 85.4

T 2017-11-26 20:37:28 37.764940000 -122.151474000 85.5

T 2017-11-26 20:37:29 37.764748000 -122.151310000 85.2

T 2017-11-26 20:37:30 37.764560000 -122.151150000 84.9

T 2017-11-26 20:37:31 37.764374000 -122.151000000 83.7

T 2017-11-26 20:37:32 37.764180000 -122.150850000 83.4

T 2017-11-26 20:37:33 37.763990000 -122.150696000 83.0

T 2017-11-26 20:37:34 37.763786000 -122.150550000 82.4

T 2017-11-26 20:37:36 37.763390000 -122.150270000 80.5

T 2017-11-26 20:37:37 37.763187000 -122.150120000 79.9

T 2017-11-26 20:37:38 37.762990000 -122.149980000 78.5

T 2017-11-26 20:37:39 37.762794000 -122.149826000 77.6

T 2017-11-26 20:37:40 37.762590000 -122.149700000 78.0


T 2017-11-26 20:37:41 37.762383000 -122.149570000 77.9

T 2017-11-26 20:37:42 37.762190000 -122.149410000 76.9

T 2017-11-26 20:37:43 37.761970000 -122.149284000 76.9

T 2017-11-26 20:37:44 37.761776000 -122.149155000 75.3

T 2017-11-26 20:37:45 37.761570000 -122.149025000 74.2

T 2017-11-26 20:37:46 37.761387000 -122.148870000 73.5

T 2017-11-26 20:37:47 37.761180000 -122.148750000 72.6

T 2017-11-26 20:37:49 37.760754000 -122.148544000 76.5

T 2017-11-26 20:37:50 37.760560000 -122.148415000 74.8

T 2017-11-26 20:37:51 37.760360000 -122.148315000 75.0

T 2017-11-26 20:37:52 37.760147000 -122.148230000 71.6

T 2017-11-26 20:37:53 37.759933000 -122.148160000 69.8

T 2017-11-26 20:37:54 37.759712000 -122.148100000 69.8

T 2017-11-26 20:37:55 37.759500000 -122.148050000 70.5

T 2017-11-26 20:37:56 37.759277000 -122.148010000 68.6

T 2017-11-26 20:37:57 37.759060000 -122.147964000 67.8

T 2017-11-26 20:37:59 37.758617000 -122.147970000 67.7

T 2017-11-26 20:38:00 37.758390000 -122.147980000 66.9

T 2017-11-26 20:38:01 37.758163000 -122.147980000 65.5

T 2017-11-26 20:38:02 37.757940000 -122.148000000 65.4

T 2017-11-26 20:38:03 37.757710000 -122.148050000 65.5

T 2017-11-26 20:38:04 37.757490000 -122.148186000 64.8

T 2017-11-26 20:38:05 37.757282000 -122.148290000 62.3

T 2017-11-26 20:38:06 37.757070000 -122.148384000 61.5

T 2017-11-26 20:38:07 37.756855000 -122.148500000 60.9

T 2017-11-26 20:38:08 37.756668000 -122.148630000 59.0

T 2017-11-26 20:38:09 37.756474000 -122.148770000 58.7

T 2017-11-26 20:38:11 37.756104000 -122.149120000 57.3

T 2017-11-26 20:38:12 37.755924000 -122.149290000 55.5


T 2017-11-26 20:38:13 37.755753000 -122.149470000 54.5

T 2017-11-26 20:38:14 37.755580000 -122.149666000 53.9

T 2017-11-26 20:38:15 37.755410000 -122.149850000 53.9

T 2017-11-26 20:38:16 37.755234000 -122.150040000 53.3

T 2017-11-26 20:38:17 37.755062000 -122.150230000 53.1

T 2017-11-26 20:38:18 37.754894000 -122.150420000 50.9

T 2017-11-26 20:38:19 37.754726000 -122.150610000 50.7

T 2017-11-26 20:38:20 37.754555000 -122.150790000 50.3

T 2017-11-26 20:38:21 37.754380000 -122.150960000 50.6

T 2017-11-26 20:38:22 37.754192000 -122.151120000 51.3

T 2017-11-26 20:38:24 37.753807000 -122.151405000 51.1

T 2017-11-26 20:38:25 37.753610000 -122.151530000 51.2

T 2017-11-26 20:38:26 37.753403000 -122.151634000 51.2

T 2017-11-26 20:38:27 37.753190000 -122.151726000 50.9

T 2017-11-26 20:38:28 37.752975000 -122.151800000 50.9

T 2017-11-26 20:38:30 37.752550000 -122.151920000 51.5

T 2017-11-26 20:38:31 37.752327000 -122.151960000 51.2

T 2017-11-26 20:38:32 37.752100000 -122.151990000 50.3

T 2017-11-26 20:38:33 37.751873000 -122.152010000 50.3

T 2017-11-26 20:38:34 37.751644000 -122.152010000 50.1

T 2017-11-26 20:38:35 37.751415000 -122.151990000 50.0

T 2017-11-26 20:38:36 37.751190000 -122.151960000 49.5

T 2017-11-26 20:38:38 37.750750000 -122.151855000 47.5

T 2017-11-26 20:38:39 37.750523000 -122.151790000 46.9

T 2017-11-26 20:38:40 37.750310000 -122.151690000 45.8

T 2017-11-26 20:38:41 37.750095000 -122.151590000 45.2

T 2017-11-26 20:38:42 37.749878000 -122.151480000 44.0

T 2017-11-26 20:38:43 37.749660000 -122.151380000 43.0

T 2017-11-26 20:38:44 37.749450000 -122.151280000 41.4

T 2017-11-26 20:38:45 37.749233000 -122.151180000 40.9


T 2017-11-26 20:38:46 37.749023000 -122.151080000 40.3

T 2017-11-26 20:38:47 37.748810000 -122.150970000 39.5

T 2017-11-26 20:38:49 37.748390000 -122.150770000 38.0

T 2017-11-26 20:38:50 37.748184000 -122.150670000 37.2

T 2017-11-26 20:38:51 37.747970000 -122.150566000 36.7

T 2017-11-26 20:38:52 37.747765000 -122.150475000 36.4

T 2017-11-26 20:38:53 37.747560000 -122.150375000 35.7

T 2017-11-26 20:38:54 37.747350000 -122.150270000 36.0

T 2017-11-26 20:38:55 37.747143000 -122.150170000 36.2

T 2017-11-26 20:38:56 37.746933000 -122.150060000 35.8

T 2017-11-26 20:38:57 37.746723000 -122.149960000 35.4

T 2017-11-26 20:38:58 37.746520000 -122.149864000 34.5

T 2017-11-26 20:38:59 37.746315000 -122.149765000 34.6

T 2017-11-26 20:39:01 37.745910000 -122.149550000 33.6

T 2017-11-26 20:39:02 37.745700000 -122.149440000 33.5

T 2017-11-26 20:39:03 37.745502000 -122.149300000 33.3

T 2017-11-26 20:39:04 37.745308000 -122.149170000 33.4

T 2017-11-26 20:39:05 37.745120000 -122.149000000 33.0

T 2017-11-26 20:39:06 37.744938000 -122.148840000 33.1

T 2017-11-26 20:39:07 37.744755000 -122.148674000 33.1

T 2017-11-26 20:39:08 37.744580000 -122.148490000 32.5

T 2017-11-26 20:39:09 37.744408000 -122.148300000 32.7

T 2017-11-26 20:39:10 37.744232000 -122.148110000 32.1

T 2017-11-26 20:39:12 37.743923000 -122.147680000 31.0

T 2017-11-26 20:39:13 37.743780000 -122.147470000 30.5

T 2017-11-26 20:39:14 37.743626000 -122.147250000 29.7

T 2017-11-26 20:39:15 37.743484000 -122.147026000 28.6

T 2017-11-26 20:39:16 37.743336000 -122.146805000 28.1

T 2017-11-26 20:39:17 37.743187000 -122.146610000 27.1


T 2017-11-26 20:39:18 37.743030000 -122.146410000 26.4

T 2017-11-26 20:39:19 37.742867000 -122.146210000 25.8

T 2017-11-26 20:39:20 37.742687000 -122.146030000 24.9

T 2017-11-26 20:39:21 37.742510000 -122.145850000 24.4

T 2017-11-26 20:39:22 37.742344000 -122.145690000 23.2

T 2017-11-26 20:39:24 37.741974000 -122.145370000 22.6

T 2017-11-26 20:39:25 37.741787000 -122.145220000 22.5

T 2017-11-26 20:39:26 37.741592000 -122.145080000 22.6

T 2017-11-26 20:39:27 37.741398000 -122.144936000 23.1

T 2017-11-26 20:39:28 37.741215000 -122.144790000 22.6

T 2017-11-26 20:39:29 37.741024000 -122.144646000 22.1

T 2017-11-26 20:39:30 37.740830000 -122.144500000 22.2

T 2017-11-26 20:39:31 37.740635000 -122.144356000 28.7

T 2017-11-26 20:39:32 37.740448000 -122.144200000 26.8

T 2017-11-26 20:39:33 37.740260000 -122.144040000 26.3

T 2017-11-26 20:39:35 37.739910000 -122.143710000 26.7

T 2017-11-26 20:39:36 37.739746000 -122.143530000 27.6

T 2017-11-26 20:39:37 37.739586000 -122.143340000 28.2

T 2017-11-26 20:39:38 37.739420000 -122.143140000 29.0

T 2017-11-26 20:39:39 37.739270000 -122.142944000 29.2

T 2017-11-26 20:39:40 37.739113000 -122.142746000 29.5

T 2017-11-26 20:39:41 37.738953000 -122.142555000 29.9

T 2017-11-26 20:39:42 37.738785000 -122.142360000 31.4

T 2017-11-26 20:39:43 37.738630000 -122.142160000 31.3

T 2017-11-26 20:39:44 37.738476000 -122.141950000 30.6

T 2017-11-26 20:39:45 37.738316000 -122.141760000 30.8

T 2017-11-26 20:39:47 37.737965000 -122.141396000 28.6

T 2017-11-26 20:39:48 37.737778000 -122.141230000 29.5

T 2017-11-26 20:39:49 37.737587000 -122.141075000 30.1

T 2017-11-26 20:39:50 37.737396000 -122.140930000 30.0


T 2017-11-26 20:39:51 37.737194000 -122.140790000 29.2

T 2017-11-26 20:39:52 37.736990000 -122.140680000 28.7

T 2017-11-26 20:39:54 37.736572000 -122.140470000 27.9

T 2017-11-26 20:39:55 37.736355000 -122.140380000 28.6

T 2017-11-26 20:39:57 37.735916000 -122.140240000 28.9

T 2017-11-26 20:39:58 37.735700000 -122.140200000 28.3

T 2017-11-26 20:39:59 37.735480000 -122.140150000 28.1

T 2017-11-26 20:40:00 37.735252000 -122.140110000 27.4

T 2017-11-26 20:40:01 37.735027000 -122.140050000 26.9

T 2017-11-26 20:40:02 37.734810000 -122.140010000 27.2

T 2017-11-26 20:40:03 37.734580000 -122.139950000 26.5

T 2017-11-26 20:40:05 37.734142000 -122.139854000 25.4

T 2017-11-26 20:40:06 37.733917000 -122.139810000 25.1

T 2017-11-26 20:40:07 37.733696000 -122.139755000 24.9

T 2017-11-26 20:40:08 37.733480000 -122.139700000 25.2

T 2017-11-26 20:40:09 37.733265000 -122.139650000 25.3

T 2017-11-26 20:40:10 37.733044000 -122.139595000 25.1

T 2017-11-26 20:40:11 37.732822000 -122.139540000 25.2

T 2017-11-26 20:40:12 37.732605000 -122.139490000 25.4

T 2017-11-26 20:40:13 37.732390000 -122.139430000 24.9

T 2017-11-26 20:40:14 37.732170000 -122.139370000 25.0

T 2017-11-26 20:40:15 37.731950000 -122.139310000 24.8

T 2017-11-26 20:40:17 37.731510000 -122.139190000 24.9

T 2017-11-26 20:40:18 37.731293000 -122.139130000 25.0

T 2017-11-26 20:40:19 37.731075000 -122.139060000 24.3

T 2017-11-26 20:40:20 37.730854000 -122.139000000 24.1

T 2017-11-26 20:40:21 37.730637000 -122.138940000 24.4

T 2017-11-26 20:40:22 37.730420000 -122.138880000 24.2

T 2017-11-26 20:40:23 37.730194000 -122.138810000 23.9


T 2017-11-26 20:40:24 37.729973000 -122.138750000 24.1

T 2017-11-26 20:40:25 37.729755000 -122.138690000 23.8

T 2017-11-26 20:40:26 37.729534000 -122.138620000 24.0

T 2017-11-26 20:40:27 37.729313000 -122.138560000 23.9

T 2017-11-26 20:40:28 37.729095000 -122.138510000 24.1

T 2017-11-26 20:40:29 37.728874000 -122.138450000 24.6

T 2017-11-26 20:40:31 37.728430000 -122.138360000 24.6

T 2017-11-26 20:40:32 37.728207000 -122.138310000 24.7

T 2017-11-26 20:40:33 37.727980000 -122.138275000 24.8

T 2017-11-26 20:40:34 37.727753000 -122.138245000 24.8

T 2017-11-26 20:40:35 37.727528000 -122.138214000 25.4

T 2017-11-26 20:40:36 37.727295000 -122.138176000 25.1

T 2017-11-26 20:40:37 37.727074000 -122.138145000 25.0

T 2017-11-26 20:40:38 37.726850000 -122.138110000 24.4

T 2017-11-26 20:40:39 37.726612000 -122.138070000 23.6

T 2017-11-26 20:40:40 37.726383000 -122.138040000 23.6

T 2017-11-26 20:40:42 37.725945000 -122.137970000 21.8

T 2017-11-26 20:40:43 37.725723000 -122.137930000 21.6

T 2017-11-26 20:40:44 37.725510000 -122.137860000 20.0

T 2017-11-26 20:40:45 37.725290000 -122.137800000 19.5

T 2017-11-26 20:40:46 37.725063000 -122.137726000 18.8

T 2017-11-26 20:40:47 37.724846000 -122.137634000 17.8

T 2017-11-26 20:40:49 37.724422000 -122.137430000 15.7

T 2017-11-26 20:40:50 37.724210000 -122.137330000 14.9

T 2017-11-26 20:40:51 37.724007000 -122.137210000 14.4

T 2017-11-26 20:40:52 37.723804000 -122.137080000 14.1

T 2017-11-26 20:40:54 37.723423000 -122.136810000 14.5

T 2017-11-26 20:40:55 37.723240000 -122.136665000 13.9

T 2017-11-26 20:40:56 37.723060000 -122.136510000 13.3

T 2017-11-26 20:40:57 37.722870000 -122.136370000 13.5


T 2017-11-26 20:40:58 37.722680000 -122.136215000 13.7

T 2017-11-26 20:40:59 37.722492000 -122.136060000 13.3

T 2017-11-26 20:41:00 37.722317000 -122.135925000 12.3

T 2017-11-26 20:41:02 37.721928000 -122.135635000 13.5

T 2017-11-26 20:41:03 37.721740000 -122.135480000 14.8

T 2017-11-26 20:41:04 37.721550000 -122.135345000 14.6

T 2017-11-26 20:41:05 37.721360000 -122.135200000 14.9

T 2017-11-26 20:41:06 37.721170000 -122.135060000 15.1

T 2017-11-26 20:41:07 37.720980000 -122.134926000 15.4

T 2017-11-26 20:41:08 37.720790000 -122.134790000 15.6

T 2017-11-26 20:41:09 37.720590000 -122.134640000 16.6

T 2017-11-26 20:41:10 37.720390000 -122.134500000 17.3

T 2017-11-26 20:41:12 37.719994000 -122.134240000 19.3

T 2017-11-26 20:41:13 37.719788000 -122.134110000 19.9

T 2017-11-26 20:41:14 37.719585000 -122.133990000 20.1

T 2017-11-26 20:41:15 37.719383000 -122.133860000 19.4

T 2017-11-26 20:41:16 37.719173000 -122.133740000 18.8

T 2017-11-26 20:41:17 37.718960000 -122.133620000 18.7

T 2017-11-26 20:41:18 37.718750000 -122.133510000 18.7

T 2017-11-26 20:41:19 37.718533000 -122.133390000 18.2

T 2017-11-26 20:41:20 37.718323000 -122.133286000 17.7

T 2017-11-26 20:41:21 37.718110000 -122.133180000 17.8

T 2017-11-26 20:41:22 37.717896000 -122.133080000 17.4

T 2017-11-26 20:41:24 37.717464000 -122.132890000 16.7

T 2017-11-26 20:41:25 37.717260000 -122.132790000 17.3

T 2017-11-26 20:41:26 37.717052000 -122.132700000 16.7

T 2017-11-26 20:41:27 37.716840000 -122.132590000 16.5

T 2017-11-26 20:41:28 37.716630000 -122.132490000 16.0

T 2017-11-26 20:41:29 37.716423000 -122.132390000 15.4


T 2017-11-26 20:41:30 37.716210000 -122.132300000 16.1

T 2017-11-26 20:41:32 37.715794000 -122.132110000 16.4

T 2017-11-26 20:41:33 37.715584000 -122.132010000 16.6

T 2017-11-26 20:41:34 37.715378000 -122.131910000 16.6

T 2017-11-26 20:41:35 37.715168000 -122.131800000 16.3

T 2017-11-26 20:41:36 37.714962000 -122.131680000 15.6

T 2017-11-26 20:41:37 37.714764000 -122.131560000 14.8

T 2017-11-26 20:41:38 37.714560000 -122.131430000 14.8

T 2017-11-26 20:41:39 37.714367000 -122.131294000 14.2

T 2017-11-26 20:41:40 37.714172000 -122.131140000 14.1

T 2017-11-26 20:41:41 37.713985000 -122.130990000 13.8

T 2017-11-26 20:41:43 37.713615000 -122.130670000 14.2

T 2017-11-26 20:41:44 37.713436000 -122.130510000 14.2

T 2017-11-26 20:41:45 37.713260000 -122.130330000 13.9

T 2017-11-26 20:41:46 37.713090000 -122.130150000 14.1

T 2017-11-26 20:41:47 37.712917000 -122.129970000 13.6

T 2017-11-26 20:41:48 37.712750000 -122.129770000 13.6

T 2017-11-26 20:41:49 37.712590000 -122.129570000 13.8

T 2017-11-26 20:41:50 37.712433000 -122.129370000 13.5

T 2017-11-26 20:41:51 37.712276000 -122.129166000 13.9

T 2017-11-26 20:41:53 37.711990000 -122.128720000 12.7

T 2017-11-26 20:41:54 37.711850000 -122.128500000 12.7

T 2017-11-26 20:41:55 37.711716000 -122.128280000 12.7

T 2017-11-26 20:41:56 37.711582000 -122.128044000 12.4

T 2017-11-26 20:41:57 37.711452000 -122.127810000 12.1

T 2017-11-26 20:41:58 37.711334000 -122.127560000 11.5

T 2017-11-26 20:41:59 37.711216000 -122.127320000 11.3

T 2017-11-26 20:42:00 37.711100000 -122.127075000 10.5

T 2017-11-26 20:42:01 37.710995000 -122.126830000 10.1

T 2017-11-26 20:42:02 37.710884000 -122.126595000 9.3


T 2017-11-26 20:42:03 37.710773000 -122.126340000 8.4

T 2017-11-26 20:42:05 37.710530000 -122.125854000 7.3

T 2017-11-26 20:42:06 37.710407000 -122.125620000 7.4

T 2017-11-26 20:42:07 37.710274000 -122.125390000 7.0

T 2017-11-26 20:42:08 37.710148000 -122.125160000 5.7

T 2017-11-26 20:42:09 37.710003000 -122.124940000 5.3

T 2017-11-26 20:42:10 37.709866000 -122.124720000 4.9

T 2017-11-26 20:42:11 37.709720000 -122.124504000 4.4

T 2017-11-26 20:42:12 37.709568000 -122.124300000 3.7

T 2017-11-26 20:42:13 37.709410000 -122.124084000 4.6

T 2017-11-26 20:42:14 37.709260000 -122.123890000 4.9

T 2017-11-26 20:42:15 37.709100000 -122.123690000 5.3

T 2017-11-26 20:42:17 37.708797000 -122.123300000 5.0

T 2017-11-26 20:42:18 37.708637000 -122.123110000 4.8

T 2017-11-26 20:42:19 37.708485000 -122.122894000 3.7

T 2017-11-26 20:42:20 37.708330000 -122.122696000 3.5

T 2017-11-26 20:42:21 37.708180000 -122.122500000 4.5

T 2017-11-26 20:42:22 37.708015000 -122.122290000 4.3

T 2017-11-26 20:42:23 37.707844000 -122.122090000 4.7

T 2017-11-26 20:42:24 37.707687000 -122.121910000 5.2

T 2017-11-26 20:42:25 37.707530000 -122.121710000 5.9

T 2017-11-26 20:42:26 37.707380000 -122.121500000 5.6

T 2017-11-26 20:42:27 37.707250000 -122.121284000 4.7

T 2017-11-26 20:42:29 37.706993000 -122.120834000 5.7

T 2017-11-26 20:42:30 37.706870000 -122.120600000 6.6

T 2017-11-26 20:42:31 37.706760000 -122.120350000 7.1

T 2017-11-26 20:42:32 37.706650000 -122.120100000 8.4

T 2017-11-26 20:42:33 37.706547000 -122.119860000 9.0

T 2017-11-26 20:42:34 37.706436000 -122.119600000 9.4


T 2017-11-26 20:42:35 37.706326000 -122.119350000 9.7

T 2017-11-26 20:42:36 37.706220000 -122.119095000 10.3

T 2017-11-26 20:42:37 37.706112000 -122.118840000 11.1

T 2017-11-26 20:42:38 37.706000000 -122.118600000 11.4

T 2017-11-26 20:42:39 37.705894000 -122.118355000 11.9

T 2017-11-26 20:42:40 37.705784000 -122.118110000 12.5

T 2017-11-26 20:42:42 37.705536000 -122.117630000 15.0

T 2017-11-26 20:42:43 37.705414000 -122.117390000 16.2

T 2017-11-26 20:42:44 37.705290000 -122.117160000 16.8

T 2017-11-26 20:42:45 37.705173000 -122.116920000 17.2

T 2017-11-26 20:42:46 37.705060000 -122.116690000 17.1

T 2017-11-26 20:42:47 37.704920000 -122.116460000 17.6

T 2017-11-26 20:42:49 37.704666000 -122.116005000 19.8

T 2017-11-26 20:42:50 37.704530000 -122.115770000 19.8

T 2017-11-26 20:42:51 37.704388000 -122.115550000 20.1

T 2017-11-26 20:42:52 37.704254000 -122.115320000 20.3

T 2017-11-26 20:42:53 37.704105000 -122.115100000 20.7

T 2017-11-26 20:42:54 37.703964000 -122.114876000 20.9

T 2017-11-26 20:42:55 37.703827000 -122.114650000 20.6

T 2017-11-26 20:42:56 37.703680000 -122.114410000 20.5

T 2017-11-26 20:42:57 37.703540000 -122.114190000 20.9

T 2017-11-26 20:42:58 37.703392000 -122.113960000 21.0

T 2017-11-26 20:42:59 37.703260000 -122.113730000 21.2

T 2017-11-26 20:43:01 37.703003000 -122.113290000 19.9

T 2017-11-26 20:43:02 37.702860000 -122.113060000 20.2

T 2017-11-26 20:43:03 37.702713000 -122.112830000 20.4

T 2017-11-26 20:43:04 37.702570000 -122.112600000 20.0

T 2017-11-26 20:43:06 37.702297000 -122.112170000 21.4

T 2017-11-26 20:43:07 37.702168000 -122.111960000 11.3

T 2017-11-26 20:43:08 37.702030000 -122.111730000 13.8


T 2017-11-26 20:43:09 37.701878000 -122.111496000 15.3

T 2017-11-26 20:43:10 37.701720000 -122.111244000 17.0

T 2017-11-26 20:43:11 37.701553000 -122.110990000 17.8

T 2017-11-26 20:43:12 37.701380000 -122.110730000 19.6

T 2017-11-26 20:43:14 37.701046000 -122.110230000 21.1

T 2017-11-26 20:43:15 37.700880000 -122.109960000 23.9

T 2017-11-26 20:43:16 37.700710000 -122.109695000 26.1

T 2017-11-26 20:43:17 37.700527000 -122.109440000 27.0

T 2017-11-26 20:43:18 37.700350000 -122.109200000 28.7

T 2017-11-26 20:43:19 37.700170000 -122.108955000 29.7

T 2017-11-26 20:43:20 37.699978000 -122.108730000 30.1

T 2017-11-26 20:43:21 37.699770000 -122.108505000 30.9

T 2017-11-26 20:43:22 37.699562000 -122.108284000 31.3

T 2017-11-26 20:43:24 37.699135000 -122.107880000 31.4

T 2017-11-26 20:43:25 37.698917000 -122.107680000 32.6

T 2017-11-26 20:43:26 37.698704000 -122.107480000 32.6

T 2017-11-26 20:43:27 37.698486000 -122.107290000 32.8

T 2017-11-26 20:43:28 37.698277000 -122.107100000 33.2

T 2017-11-26 20:43:29 37.698060000 -122.106920000 33.4

T 2017-11-26 20:43:30 37.697850000 -122.106730000 33.7

T 2017-11-26 20:43:31 37.697647000 -122.106544000 34.1

T 2017-11-26 20:43:32 37.697440000 -122.106360000 34.5

T 2017-11-26 20:43:33 37.697247000 -122.106180000 34.9

T 2017-11-26 20:43:35 37.696870000 -122.105840000 35.9

T 2017-11-26 20:43:36 37.696686000 -122.105675000 36.0

T 2017-11-26 20:43:37 37.696503000 -122.105515000 36.0

T 2017-11-26 20:43:38 37.696327000 -122.105370000 36.1

T 2017-11-26 20:43:39 37.696156000 -122.105225000 36.3

T 2017-11-26 20:43:40 37.695988000 -122.105080000 36.5


T 2017-11-26 20:43:41 37.695820000 -122.104940000 37.2

T 2017-11-26 20:43:42 37.695652000 -122.104810000 37.3

T 2017-11-26 20:43:43 37.695496000 -122.104675000 37.1

T 2017-11-26 20:43:45 37.695187000 -122.104416000 36.7

T 2017-11-26 20:43:46 37.695050000 -122.104290000 35.4

T 2017-11-26 20:43:47 37.694900000 -122.104164000 34.9

T 2017-11-26 20:43:48 37.694763000 -122.104040000 34.5

T 2017-11-26 20:43:49 37.694637000 -122.103940000 34.5

T 2017-11-26 20:43:50 37.694515000 -122.103850000 35.0

T 2017-11-26 20:43:51 37.694390000 -122.103750000 35.0

T 2017-11-26 20:43:52 37.694270000 -122.103650000 35.4

T 2017-11-26 20:43:53 37.694160000 -122.103550000 35.9

T 2017-11-26 20:43:55 37.693943000 -122.103386000 35.7

T 2017-11-26 20:43:56 37.693848000 -122.103310000 36.2

T 2017-11-26 20:43:57 37.693752000 -122.103230000 36.4

T 2017-11-26 20:43:58 37.693676000 -122.103165000 36.8

T 2017-11-26 20:43:59 37.693600000 -122.103096000 36.0

T 2017-11-26 20:44:00 37.693530000 -122.103035000 36.0

T 2017-11-26 20:44:02 37.693390000 -122.102920000 35.3

T 2017-11-26 20:44:03 37.693333000 -122.102870000 35.1

T 2017-11-26 20:44:04 37.693264000 -122.102810000 34.7

T 2017-11-26 20:44:05 37.693207000 -122.102760000 33.3

T 2017-11-26 20:44:06 37.693146000 -122.102710000 32.5

T 2017-11-26 20:44:07 37.693073000 -122.102650000 32.2

T 2017-11-26 20:44:08 37.692993000 -122.102615000 33.0

T 2017-11-26 20:44:09 37.692920000 -122.102560000 32.9

T 2017-11-26 20:44:11 37.692795000 -122.102500000 32.7

T 2017-11-26 20:44:12 37.692740000 -122.102470000 33.9

T 2017-11-26 20:44:13 37.692696000 -122.102450000 33.7

T 2017-11-26 20:44:14 37.692657000 -122.102420000 34.7


T 2017-11-26 20:44:15 37.692616000 -122.102394000 34.8

T 2017-11-26 20:44:16 37.692577000 -122.102370000 35.2

T 2017-11-26 20:44:17 37.692543000 -122.102350000 35.1

T 2017-11-26 20:44:19 37.692470000 -122.102295000 35.9

T 2017-11-26 20:44:20 37.692430000 -122.102270000 36.1

T 2017-11-26 20:44:21 37.692380000 -122.102240000 35.9

T 2017-11-26 20:44:22 37.692326000 -122.102200000 35.7

T 2017-11-26 20:44:23 37.692265000 -122.102165000 35.7

T 2017-11-26 20:44:24 37.692200000 -122.102130000 35.6

T 2017-11-26 20:44:25 37.692140000 -122.102080000 35.9

T 2017-11-26 20:44:26 37.692074000 -122.102036000 35.3

T 2017-11-26 20:44:27 37.692000000 -122.101990000 34.6

T 2017-11-26 20:44:28 37.691933000 -122.101950000 34.7

T 2017-11-26 20:44:29 37.691864000 -122.101906000 34.6

T 2017-11-26 20:44:31 37.691730000 -122.101820000 34.1

T 2017-11-26 20:44:32 37.691660000 -122.101776000 33.5

T 2017-11-26 20:44:33 37.691593000 -122.101740000 33.4

T 2017-11-26 20:44:34 37.691532000 -122.101700000 32.8

T 2017-11-26 20:44:35 37.691463000 -122.101670000 32.8

T 2017-11-26 20:44:36 37.691402000 -122.101640000 32.2

T 2017-11-26 20:44:37 37.691357000 -122.101620000 31.2

T 2017-11-26 20:44:38 37.691300000 -122.101610000 31.9

T 2017-11-26 20:44:39 37.691254000 -122.101590000 31.5

T 2017-11-26 20:44:40 37.691196000 -122.101590000 30.9

T 2017-11-26 20:44:41 37.691128000 -122.101590000 31.7

T 2017-11-26 20:44:43 37.691010000 -122.101600000 31.8

T 2017-11-26 20:44:44 37.690956000 -122.101610000 31.4

T 2017-11-26 20:44:45 37.690903000 -122.101616000 31.4

T 2017-11-26 20:44:46 37.690857000 -122.101630000 30.5


T 2017-11-26 20:44:47 37.690820000 -122.101640000 30.7

T 2017-11-26 20:44:48 37.690790000 -122.101650000 29.8

T 2017-11-26 20:44:50 37.690740000 -122.101660000 29.7

T 2017-11-26 20:44:52 37.690704000 -122.101670000 28.7

T 2017-11-26 20:44:53 37.690674000 -122.101680000 28.6

T 2017-11-26 20:44:54 37.690647000 -122.101685000 28.7

T 2017-11-26 20:44:57 37.690605000 -122.101710000 29.2

T 2017-11-26 20:45:27 37.690570000 -122.101740000 28.0

T 2017-11-26 20:45:29 37.690533000 -122.101760000 27.1

T 2017-11-26 20:45:31 37.690490000 -122.101780000 27.6

T 2017-11-26 20:45:33 37.690434000 -122.101820000 27.5

T 2017-11-26 20:45:34 37.690400000 -122.101845000 27.7

T 2017-11-26 20:45:35 37.690365000 -122.101870000 27.7

T 2017-11-26 20:45:37 37.690290000 -122.101930000 27.8

T 2017-11-26 20:45:38 37.690250000 -122.101970000 27.9

T 2017-11-26 20:45:39 37.690200000 -122.102010000 27.9

T 2017-11-26 20:45:40 37.690163000 -122.102050000 28.0

T 2017-11-26 20:45:41 37.690125000 -122.102090000 28.0

T 2017-11-26 20:45:42 37.690094000 -122.102130000 28.1

T 2017-11-26 20:45:43 37.690070000 -122.102150000 27.0

T 2017-11-26 20:45:44 37.690050000 -122.102190000 26.1

T 2017-11-26 20:45:45 37.690020000 -122.102220000 25.8

T 2017-11-26 20:45:46 37.690002000 -122.102270000 26.4

T 2017-11-26 20:45:47 37.689980000 -122.102320000 26.5

T 2017-11-26 20:45:49 37.689930000 -122.102420000 26.2

T 2017-11-26 20:45:50 37.689903000 -122.102460000 25.8

T 2017-11-26 20:45:51 37.689880000 -122.102516000 25.6

T 2017-11-26 20:45:52 37.689860000 -122.102570000 25.6

T 2017-11-26 20:45:53 37.689840000 -122.102620000 25.0

T 2017-11-26 20:45:54 37.689816000 -122.102684000 25.0


T 2017-11-26 20:45:55 37.689793000 -122.102745000 24.7

T 2017-11-26 20:45:56 37.689770000 -122.102806000 25.0

T 2017-11-26 20:45:57 37.689750000 -122.102870000 24.3

T 2017-11-26 20:45:58 37.689735000 -122.102930000 23.8

T 2017-11-26 20:45:59 37.689724000 -122.102990000 23.6

T 2017-11-26 20:46:01 37.689700000 -122.103100000 23.2

T 2017-11-26 20:46:02 37.689693000 -122.103150000 23.2

T 2017-11-26 20:46:03 37.689686000 -122.103195000 22.6

T 2017-11-26 20:46:05 37.689670000 -122.103280000 22.6

T 2017-11-26 20:46:06 37.689663000 -122.103320000 22.4

T 2017-11-26 20:46:08 37.689650000 -122.103386000 21.3

T 2017-11-26 20:46:09 37.689648000 -122.103420000 21.1

T 2017-11-26 20:46:10 37.689640000 -122.103460000 21.2

T 2017-11-26 20:46:11 37.689636000 -122.103500000 21.2

T 2017-11-26 20:46:12 37.689632000 -122.103546000 21.2

T 2017-11-26 20:46:13 37.689625000 -122.103600000 21.1

T 2017-11-26 20:46:14 37.689617000 -122.103650000 21.3

T 2017-11-26 20:46:15 37.689610000 -122.103714000 21.2

T 2017-11-26 20:46:16 37.689600000 -122.103775000 21.1

T 2017-11-26 20:46:17 37.689594000 -122.103836000 21.1

T 2017-11-26 20:46:19 37.689575000 -122.103966000 21.0

T 2017-11-26 20:46:20 37.689568000 -122.104034000 20.7

T 2017-11-26 20:46:21 37.689560000 -122.104100000 20.6

T 2017-11-26 20:46:22 37.689550000 -122.104180000 20.6

T 2017-11-26 20:46:23 37.689533000 -122.104256000 20.3

T 2017-11-26 20:46:24 37.689518000 -122.104330000 20.0

T 2017-11-26 20:46:25 37.689503000 -122.104400000 20.0

T 2017-11-26 20:46:26 37.689490000 -122.104480000 19.8

T 2017-11-26 20:46:27 37.689480000 -122.104550000 19.9


T 2017-11-26 20:46:29 37.689453000 -122.104700000 19.2

T 2017-11-26 20:46:30 37.689440000 -122.104760000 19.4

T 2017-11-26 20:46:31 37.689426000 -122.104820000 19.4

T 2017-11-26 20:46:32 37.689423000 -122.104866000 19.3

T 2017-11-26 20:46:33 37.689415000 -122.104910000 19.4

T 2017-11-26 20:46:35 37.689407000 -122.104965000 19.3

T 2017-11-26 20:46:37 37.689396000 -122.105034000 19.4

T 2017-11-26 20:46:38 37.689392000 -122.105064000 19.3

T 2017-11-26 20:46:39 37.689390000 -122.105110000 19.2

T 2017-11-26 20:46:41 37.689377000 -122.105194000 19.2

T 2017-11-26 20:46:42 37.689373000 -122.105240000 19.0

T 2017-11-26 20:46:43 37.689370000 -122.105286000 18.6

T 2017-11-26 20:46:44 37.689360000 -122.105340000 18.2

T 2017-11-26 20:46:45 37.689358000 -122.105385000 17.8

T 2017-11-26 20:46:46 37.689350000 -122.105440000 18.0

T 2017-11-26 20:46:47 37.689342000 -122.105530000 17.7

T 2017-11-26 20:46:48 37.689335000 -122.105600000 17.2

T 2017-11-26 20:46:49 37.689327000 -122.105690000 17.2

T 2017-11-26 20:46:51 37.689310000 -122.105865000 16.8

T 2017-11-26 20:46:52 37.689300000 -122.105960000 16.7

T 2017-11-26 20:46:53 37.689290000 -122.106040000 16.3

T 2017-11-26 20:46:54 37.689280000 -122.106130000 16.2

T 2017-11-26 20:46:55 37.689270000 -122.106230000 15.7

T 2017-11-26 20:46:56 37.689260000 -122.106316000 15.4

T 2017-11-26 20:46:57 37.689250000 -122.106415000 14.9

T 2017-11-26 20:46:58 37.689236000 -122.106500000 14.9

T 2017-11-26 20:46:59 37.689224000 -122.106590000 14.9

T 2017-11-26 20:47:00 37.689213000 -122.106680000 14.8

T 2017-11-26 20:47:01 37.689200000 -122.106760000 14.7

T 2017-11-26 20:47:02 37.689190000 -122.106820000 14.4


T 2017-11-26 20:47:04 37.689167000 -122.106920000 14.0

T 2017-11-26 20:47:09 37.689160000 -122.106950000 14.0

T 2017-11-26 20:47:11 37.689156000 -122.106995000 14.0

T 2017-11-26 20:47:12 37.689144000 -122.107030000 14.3

T 2017-11-26 20:47:14 37.689133000 -122.107120000 14.2

T 2017-11-26 20:47:16 37.689117000 -122.107254000 14.4

T 2017-11-26 20:47:17 37.689114000 -122.107320000 14.0

T 2017-11-26 20:47:18 37.689106000 -122.107400000 14.0

T 2017-11-26 20:47:19 37.689095000 -122.107480000 14.1

T 2017-11-26 20:47:20 37.689087000 -122.107560000 13.6

T 2017-11-26 20:47:21 37.689080000 -122.107640000 13.0

T 2017-11-26 20:47:23 37.689056000 -122.107800000 12.3

T 2017-11-26 20:47:24 37.689045000 -122.107895000 12.4

T 2017-11-26 20:47:25 37.689037000 -122.107980000 12.1

T 2017-11-26 20:47:26 37.689030000 -122.108060000 12.0

T 2017-11-26 20:47:27 37.689020000 -122.108150000 11.8

T 2017-11-26 20:47:28 37.689010000 -122.108230000 11.6

T 2017-11-26 20:47:29 37.689003000 -122.108315000 11.1

T 2017-11-26 20:47:30 37.688990000 -122.108390000 11.2

T 2017-11-26 20:47:31 37.688988000 -122.108470000 11.1

T 2017-11-26 20:47:33 37.688972000 -122.108630000 11.0

T 2017-11-26 20:47:34 37.688965000 -122.108710000 11.6

T 2017-11-26 20:47:35 37.688953000 -122.108800000 11.3

T 2017-11-26 20:47:36 37.688940000 -122.108900000 11.5

T 2017-11-26 20:47:37 37.688927000 -122.109010000 12.2

T 2017-11-26 20:47:38 37.688923000 -122.109110000 11.6

T 2017-11-26 20:47:39 37.688908000 -122.109230000 11.5

T 2017-11-26 20:47:41 37.688880000 -122.109474000 11.7

T 2017-11-26 20:47:42 37.688870000 -122.109590000 12.3


T 2017-11-26 20:47:43 37.688854000 -122.109700000 12.5

T 2017-11-26 20:47:44 37.688843000 -122.109820000 12.8

T 2017-11-26 20:47:45 37.688830000 -122.109920000 13.2

T 2017-11-26 20:47:46 37.688820000 -122.110000000 12.7

T 2017-11-26 20:47:47 37.688816000 -122.110090000 12.2

T 2017-11-26 20:47:48 37.688805000 -122.110180000 12.4

T 2017-11-26 20:47:49 37.688793000 -122.110280000 12.2

T 2017-11-26 20:47:50 37.688786000 -122.110374000 12.3

T 2017-11-26 20:47:51 37.688778000 -122.110466000 12.5

T 2017-11-26 20:47:53 37.688763000 -122.110650000 12.9

T 2017-11-26 20:47:54 37.688747000 -122.110725000 13.0

T 2017-11-26 20:47:55 37.688740000 -122.110810000 13.3

T 2017-11-26 20:47:56 37.688740000 -122.110890000 13.5

T 2017-11-26 20:47:57 37.688732000 -122.110970000 13.6

T 2017-11-26 20:47:58 37.688730000 -122.111046000 13.2

T 2017-11-26 20:47:59 37.688725000 -122.111115000 13.8

T 2017-11-26 20:48:00 37.688717000 -122.111180000 13.7

T 2017-11-26 20:48:02 37.688705000 -122.111310000 13.7

T 2017-11-26 20:48:03 37.688705000 -122.111374000 12.6

T 2017-11-26 20:48:04 37.688710000 -122.111450000 13.6

T 2017-11-26 20:48:05 37.688710000 -122.111530000 13.9

T 2017-11-26 20:48:07 37.688705000 -122.111690000 14.7

T 2017-11-26 20:48:08 37.688710000 -122.111760000 14.3

T 2017-11-26 20:48:09 37.688710000 -122.111855000 14.1

T 2017-11-26 20:48:10 37.688710000 -122.111946000 14.6

T 2017-11-26 20:48:11 37.688713000 -122.112045000 14.8

T 2017-11-26 20:48:12 37.688710000 -122.112140000 14.9

T 2017-11-26 20:48:13 37.688710000 -122.112240000 15.0

T 2017-11-26 20:48:14 37.688705000 -122.112350000 15.1

T 2017-11-26 20:48:16 37.688713000 -122.112590000 15.4


T 2017-11-26 20:48:17 37.688720000 -122.112700000 15.5

T 2017-11-26 20:48:18 37.688732000 -122.112830000 15.4

T 2017-11-26 20:48:19 37.688744000 -122.112970000 15.2

T 2017-11-26 20:48:20 37.688755000 -122.113106000 15.0

T 2017-11-26 20:48:21 37.688770000 -122.113240000 15.2

T 2017-11-26 20:48:22 37.688786000 -122.113380000 15.3

T 2017-11-26 20:48:23 37.688800000 -122.113525000 15.4

T 2017-11-26 20:48:24 37.688820000 -122.113660000 15.6

T 2017-11-26 20:48:25 37.688840000 -122.113800000 15.9

T 2017-11-26 20:48:26 37.688847000 -122.113930000 15.3

T 2017-11-26 20:48:27 37.688870000 -122.114070000 15.3

T 2017-11-26 20:48:29 37.688910000 -122.114310000 15.5

T 2017-11-26 20:48:30 37.688927000 -122.114430000 15.6

T 2017-11-26 20:48:31 37.688950000 -122.114555000 15.2

T 2017-11-26 20:48:32 37.688972000 -122.114685000 14.1

T 2017-11-26 20:48:33 37.688990000 -122.114820000 13.5

T 2017-11-26 20:48:34 37.689026000 -122.114975000 13.8

T 2017-11-26 20:48:35 37.689056000 -122.115130000 14.6

T 2017-11-26 20:48:36 37.689087000 -122.115290000 14.4

T 2017-11-26 20:48:37 37.689114000 -122.115440000 14.4

T 2017-11-26 20:48:38 37.689144000 -122.115610000 14.8

T 2017-11-26 20:48:40 37.689205000 -122.115910000 15.1

T 2017-11-26 20:48:41 37.689240000 -122.116070000 14.6

T 2017-11-26 20:48:42 37.689274000 -122.116234000 14.6

T 2017-11-26 20:48:43 37.689304000 -122.116400000 14.3

T 2017-11-26 20:48:44 37.689335000 -122.116580000 14.1

T 2017-11-26 20:48:45 37.689365000 -122.116760000 14.1

T 2017-11-26 20:48:46 37.689392000 -122.116940000 13.3

T 2017-11-26 20:48:48 37.689440000 -122.117320000 12.5


T 2017-11-26 20:48:49 37.689465000 -122.117510000 12.3

T 2017-11-26 20:48:50 37.689487000 -122.117690000 11.6

T 2017-11-26 20:48:51 37.689503000 -122.117890000 11.1

T 2017-11-26 20:48:52 37.689520000 -122.118090000 10.8

T 2017-11-26 20:48:53 37.689545000 -122.118300000 10.6

T 2017-11-26 20:48:54 37.689570000 -122.118515000 10.1

T 2017-11-26 20:48:55 37.689598000 -122.118720000 10.0

T 2017-11-26 20:48:57 37.689663000 -122.119156000 9.2

T 2017-11-26 20:48:58 37.689700000 -122.119380000 9.1

T 2017-11-26 20:48:59 37.689730000 -122.119590000 9.0

T 2017-11-26 20:49:00 37.689762000 -122.119804000 8.6

T 2017-11-26 20:49:01 37.689796000 -122.120026000 8.6

T 2017-11-26 20:49:02 37.689835000 -122.120250000 8.7

T 2017-11-26 20:49:03 37.689865000 -122.120480000 8.3

T 2017-11-26 20:49:04 37.689903000 -122.120705000 8.0

T 2017-11-26 20:49:05 37.689938000 -122.120930000 7.5

T 2017-11-26 20:49:06 37.689972000 -122.121170000 7.2

T 2017-11-26 20:49:07 37.690006000 -122.121410000 7.3

T 2017-11-26 20:49:08 37.690044000 -122.121640000 6.6

T 2017-11-26 20:49:09 37.690075000 -122.121880000 6.2

T 2017-11-26 20:49:10 37.690110000 -122.122116000 5.9

T 2017-11-26 20:49:12 37.690178000 -122.122600000 6.4

T 2017-11-26 20:49:13 37.690220000 -122.122826000 6.2

T 2017-11-26 20:49:14 37.690260000 -122.123060000 6.4

T 2017-11-26 20:49:15 37.690296000 -122.123310000 6.8

T 2017-11-26 20:49:16 37.690330000 -122.123540000 7.0

T 2017-11-26 20:49:17 37.690365000 -122.123790000 7.2

T 2017-11-26 20:49:19 37.690460000 -122.124290000 8.3

T 2017-11-26 20:49:20 37.690510000 -122.124535000 8.9

T 2017-11-26 20:49:21 37.690560000 -122.124770000 9.4


T 2017-11-26 20:49:22 37.690610000 -122.125010000 9.7

T 2017-11-26 20:49:23 37.690650000 -122.125230000 10.9

T 2017-11-26 20:49:24 37.690697000 -122.125460000 11.0

T 2017-11-26 20:49:25 37.690735000 -122.125680000 13.1

T 2017-11-26 20:49:26 37.690773000 -122.125890000 13.0

T 2017-11-26 20:49:27 37.690807000 -122.126100000 13.1

T 2017-11-26 20:49:28 37.690838000 -122.126305000 13.6

T 2017-11-26 20:49:29 37.690870000 -122.126520000 14.2

T 2017-11-26 20:49:30 37.690895000 -122.126724000 15.0

T 2017-11-26 20:49:32 37.690937000 -122.127170000 15.9

T 2017-11-26 20:49:33 37.690956000 -122.127390000 16.0

T 2017-11-26 20:49:34 37.690980000 -122.127620000 16.1

T 2017-11-26 20:49:35 37.691000000 -122.127850000 16.2

T 2017-11-26 20:49:36 37.691017000 -122.128100000 15.9

T 2017-11-26 20:49:37 37.691036000 -122.128360000 16.4

T 2017-11-26 20:49:38 37.691050000 -122.128620000 16.6

T 2017-11-26 20:49:39 37.691060000 -122.128876000 17.1

T 2017-11-26 20:49:40 37.691070000 -122.129135000 17.2

T 2017-11-26 20:49:41 37.691067000 -122.129380000 16.4

T 2017-11-26 20:49:43 37.691070000 -122.129880000 16.2

T 2017-11-26 20:49:44 37.691074000 -122.130140000 17.1

T 2017-11-26 20:49:45 37.691070000 -122.130410000 17.2

T 2017-11-26 20:49:46 37.691060000 -122.130670000 17.0

T 2017-11-26 20:49:47 37.691040000 -122.130936000 17.3

T 2017-11-26 20:49:48 37.691000000 -122.131200000 17.3

T 2017-11-26 20:49:49 37.690952000 -122.131460000 17.2

T 2017-11-26 20:49:51 37.690800000 -122.131960000 17.8

T 2017-11-26 20:49:52 37.690690000 -122.132195000 18.0

T 2017-11-26 20:49:53 37.690575000 -122.132416000 18.0


T 2017-11-26 20:49:54 37.690445000 -122.132620000 17.4

T 2017-11-26 20:49:55 37.690300000 -122.132810000 17.9

T 2017-11-26 20:49:56 37.690140000 -122.132996000 18.0

T 2017-11-26 20:49:57 37.689964000 -122.133170000 18.4

T 2017-11-26 20:49:58 37.689780000 -122.133316000 18.2

T 2017-11-26 20:49:59 37.689583000 -122.133440000 18.3

T 2017-11-26 20:50:01 37.689163000 -122.133640000 19.4

T 2017-11-26 20:50:02 37.688953000 -122.133720000 19.6

T 2017-11-26 20:50:03 37.688725000 -122.133730000 19.6

T 2017-11-26 20:50:04 37.688496000 -122.133730000 19.9

T 2017-11-26 20:50:06 37.688057000 -122.133690000 18.7

T 2017-11-26 20:50:07 37.687847000 -122.133630000 18.2

T 2017-11-26 20:50:08 37.687634000 -122.133560000 17.8

T 2017-11-26 20:50:09 37.687443000 -122.133460000 16.9

T 2017-11-26 20:50:10 37.687270000 -122.133340000 15.9

T 2017-11-26 20:50:11 37.687100000 -122.133210000 15.3

T 2017-11-26 20:50:12 37.686943000 -122.133070000 15.7

T 2017-11-26 20:50:13 37.686787000 -122.132920000 15.7

T 2017-11-26 20:50:14 37.686653000 -122.132740000 14.7

T 2017-11-26 20:50:15 37.686523000 -122.132545000 14.4

T 2017-11-26 20:50:16 37.686398000 -122.132350000 13.8

T 2017-11-26 20:50:18 37.686160000 -122.131940000 13.7

T 2017-11-26 20:50:19 37.686050000 -122.131740000 13.7

T 2017-11-26 20:50:20 37.685936000 -122.131530000 14.2

T 2017-11-26 20:50:21 37.685818000 -122.131330000 14.9

T 2017-11-26 20:50:22 37.685696000 -122.131150000 14.6

T 2017-11-26 20:50:23 37.685585000 -122.130970000 13.6

T 2017-11-26 20:50:24 37.685474000 -122.130780000 13.7

T 2017-11-26 20:50:25 37.685356000 -122.130590000 13.6

T 2017-11-26 20:50:26 37.685223000 -122.130400000 13.7


T 2017-11-26 20:50:27 37.685097000 -122.130220000 13.4

T 2017-11-26 20:50:28 37.684975000 -122.130030000 13.4

T 2017-11-26 20:50:29 37.684853000 -122.129840000 12.7

T 2017-11-26 20:50:31 37.684597000 -122.129450000 13.1

T 2017-11-26 20:50:32 37.684467000 -122.129260000 12.6

T 2017-11-26 20:50:33 37.684338000 -122.129070000 12.6

T 2017-11-26 20:50:34 37.684208000 -122.128876000 12.2

T 2017-11-26 20:50:35 37.684080000 -122.128685000 12.1

T 2017-11-26 20:50:36 37.683945000 -122.128480000 11.6

T 2017-11-26 20:50:38 37.683674000 -122.128090000 10.6

T 2017-11-26 20:50:39 37.683537000 -122.127890000 9.9

T 2017-11-26 20:50:40 37.683395000 -122.127690000 9.8

T 2017-11-26 20:50:41 37.683258000 -122.127490000 9.7

T 2017-11-26 20:50:42 37.683113000 -122.127290000 9.7

T 2017-11-26 20:50:43 37.682976000 -122.127100000 8.3

T 2017-11-26 20:50:44 37.682835000 -122.126900000 8.0

T 2017-11-26 20:50:45 37.682697000 -122.126700000 7.4

T 2017-11-26 20:50:46 37.682564000 -122.126500000 7.3

T 2017-11-26 20:50:47 37.682430000 -122.126305000 6.5

T 2017-11-26 20:50:48 37.682293000 -122.126110000 6.5

T 2017-11-26 20:50:49 37.682160000 -122.125910000 6.2

T 2017-11-26 20:50:51 37.681890000 -122.125520000 5.6

T 2017-11-26 20:50:52 37.681750000 -122.125320000 5.7

T 2017-11-26 20:50:53 37.681618000 -122.125120000 5.2

T 2017-11-26 20:50:54 37.681484000 -122.124920000 4.7

T 2017-11-26 20:50:55 37.681350000 -122.124725000 4.5

T 2017-11-26 20:50:56 37.681213000 -122.124530000 4.1

T 2017-11-26 20:50:57 37.681080000 -122.124330000 5.8

T 2017-11-26 20:50:58 37.680927000 -122.124120000 5.5


T 2017-11-26 20:50:59 37.680782000 -122.123924000 5.9

T 2017-11-26 20:51:01 37.680510000 -122.123520000 5.7

T 2017-11-26 20:51:02 37.680374000 -122.123314000 5.8

T 2017-11-26 20:51:03 37.680233000 -122.123116000 5.8

T 2017-11-26 20:51:04 37.680088000 -122.122920000 5.8

T 2017-11-26 20:51:05 37.679955000 -122.122720000 5.8

T 2017-11-26 20:51:06 37.679813000 -122.122510000 5.4

T 2017-11-26 20:51:07 37.679672000 -122.122310000 5.7

T 2017-11-26 20:51:08 37.679535000 -122.122110000 5.9

T 2017-11-26 20:51:10 37.679250000 -122.121700000 5.5

T 2017-11-26 20:51:11 37.679100000 -122.121480000 4.8

T 2017-11-26 20:51:12 37.678950000 -122.121270000 4.7

T 2017-11-26 20:51:13 37.678800000 -122.121056000 5.0

T 2017-11-26 20:51:14 37.678646000 -122.120834000 4.7

T 2017-11-26 20:51:15 37.678500000 -122.120620000 4.9

T 2017-11-26 20:51:16 37.678352000 -122.120415000 5.4

T 2017-11-26 20:51:17 37.678215000 -122.120200000 5.3

T 2017-11-26 20:51:18 37.678074000 -122.119995000 5.1

T 2017-11-26 20:51:19 37.677940000 -122.119790000 5.2

T 2017-11-26 20:51:20 37.677800000 -122.119576000 4.9

T 2017-11-26 20:51:21 37.677666000 -122.119360000 4.9

T 2017-11-26 20:51:23 37.677383000 -122.118904000 3.9

T 2017-11-26 20:51:24 37.677240000 -122.118670000 3.1

T 2017-11-26 20:51:25 37.677094000 -122.118430000 2.7

T 2017-11-26 20:51:26 37.676937000 -122.118195000 2.4

T 2017-11-26 20:51:27 37.676785000 -122.117950000 1.8

T 2017-11-26 20:51:28 37.676620000 -122.117700000 1.5

T 2017-11-26 20:51:29 37.676456000 -122.117460000 2.3

T 2017-11-26 20:51:30 37.676292000 -122.117210000 2.9

T 2017-11-26 20:51:31 37.676125000 -122.116974000 3.4


T 2017-11-26 20:51:32 37.675953000 -122.116760000 3.6

T 2017-11-26 20:51:34 37.675613000 -122.116310000 4.1

T 2017-11-26 20:51:35 37.675446000 -122.116090000 4.5

T 2017-11-26 20:51:36 37.675274000 -122.115860000 5.1

T 2017-11-26 20:51:37 37.675102000 -122.115650000 5.8

T 2017-11-26 20:51:38 37.674940000 -122.115430000 6.2

T 2017-11-26 20:51:39 37.674778000 -122.115210000 6.0

T 2017-11-26 20:51:41 37.674465000 -122.114780000 7.1

T 2017-11-26 20:51:42 37.674305000 -122.114555000 6.9

T 2017-11-26 20:51:43 37.674156000 -122.114340000 6.8

T 2017-11-26 20:51:44 37.674015000 -122.114136000 7.2

T 2017-11-26 20:51:45 37.673874000 -122.113914000 7.5

T 2017-11-26 20:51:46 37.673733000 -122.113716000 9.3

T 2017-11-26 20:51:47 37.673600000 -122.113520000 9.4

T 2017-11-26 20:51:48 37.673450000 -122.113310000 9.7

T 2017-11-26 20:51:49 37.673313000 -122.113110000 9.6

T 2017-11-26 20:51:51 37.673010000 -122.112724000 10.3

T 2017-11-26 20:51:52 37.672860000 -122.112530000 10.7

T 2017-11-26 20:51:53 37.672707000 -122.112360000 11.7

T 2017-11-26 20:51:54 37.672550000 -122.112180000 12.0

T 2017-11-26 20:51:55 37.672394000 -122.112015000 13.2

T 2017-11-26 20:51:56 37.672245000 -122.111855000 12.7

T 2017-11-26 20:51:57 37.672085000 -122.111694000 12.9

T 2017-11-26 20:51:58 37.671920000 -122.111540000 13.1

T 2017-11-26 20:51:59 37.671757000 -122.111390000 13.0

T 2017-11-26 20:52:00 37.671593000 -122.111244000 13.2

T 2017-11-26 20:52:01 37.671430000 -122.111090000 12.6

T 2017-11-26 20:52:02 37.671257000 -122.110950000 11.9

T 2017-11-26 20:52:04 37.670902000 -122.110680000 11.5


T 2017-11-26 20:52:05 37.670715000 -122.110550000 11.5

T 2017-11-26 20:52:06 37.670530000 -122.110420000 11.5

T 2017-11-26 20:52:07 37.670340000 -122.110290000 10.8

T 2017-11-26 20:52:08 37.670155000 -122.110170000 10.5

T 2017-11-26 20:52:09 37.669964000 -122.110050000 11.8

T 2017-11-26 20:52:10 37.669773000 -122.109930000 11.7

T 2017-11-26 20:52:11 37.669590000 -122.109825000 12.0

T 2017-11-26 20:52:12 37.669410000 -122.109710000 11.1

T 2017-11-26 20:52:14 37.669040000 -122.109490000 10.5

T 2017-11-26 20:52:15 37.668850000 -122.109375000 10.4

T 2017-11-26 20:52:16 37.668660000 -122.109260000 10.1

T 2017-11-26 20:52:17 37.668465000 -122.109146000 9.8

T 2017-11-26 20:52:18 37.668274000 -122.109040000 9.6

T 2017-11-26 20:52:20 37.667896000 -122.108800000 9.0

T 2017-11-26 20:52:21 37.667700000 -122.108690000 9.6

T 2017-11-26 20:52:22 37.667515000 -122.108574000 10.6

T 2017-11-26 20:52:23 37.667324000 -122.108450000 10.8

T 2017-11-26 20:52:24 37.667130000 -122.108330000 11.1

T 2017-11-26 20:52:25 37.666940000 -122.108215000 11.8

T 2017-11-26 20:52:26 37.666748000 -122.108100000 12.1

T 2017-11-26 20:52:27 37.666560000 -122.107980000 12.7

T 2017-11-26 20:52:29 37.666187000 -122.107750000 13.2

T 2017-11-26 20:52:30 37.666004000 -122.107635000 13.9

T 2017-11-26 20:52:31 37.665817000 -122.107530000 13.7

T 2017-11-26 20:52:32 37.665634000 -122.107414000 13.2

T 2017-11-26 20:52:33 37.665447000 -122.107300000 12.9

T 2017-11-26 20:52:34 37.665257000 -122.107185000 13.0

T 2017-11-26 20:52:35 37.665077000 -122.107070000 11.6

T 2017-11-26 20:52:36 37.664890000 -122.106960000 11.3

T 2017-11-26 20:52:37 37.664707000 -122.106834000 10.8


T 2017-11-26 20:52:38 37.664524000 -122.106730000 10.4

T 2017-11-26 20:52:40 37.664177000 -122.106514000 9.5

T 2017-11-26 20:52:41 37.664000000 -122.106400000 9.1

T 2017-11-26 20:52:42 37.663822000 -122.106290000 9.1

T 2017-11-26 20:52:43 37.663640000 -122.106180000 8.6

T 2017-11-26 20:52:44 37.663445000 -122.106064000 8.6

T 2017-11-26 20:52:45 37.663254000 -122.105940000 9.6

T 2017-11-26 20:52:46 37.663067000 -122.105820000 9.2

T 2017-11-26 20:52:47 37.662880000 -122.105705000 8.8

T 2017-11-26 20:52:48 37.662693000 -122.105590000 8.7

T 2017-11-26 20:52:49 37.662514000 -122.105470000 7.6

T 2017-11-26 20:52:50 37.662327000 -122.105350000 7.2

T 2017-11-26 20:52:51 37.662130000 -122.105225000 7.6

T 2017-11-26 20:52:53 37.661720000 -122.104990000 7.7

T 2017-11-26 20:52:54 37.661503000 -122.104880000 8.2

T 2017-11-26 20:52:55 37.661297000 -122.104750000 8.0

T 2017-11-26 20:52:56 37.661076000 -122.104614000 8.3

T 2017-11-26 20:52:57 37.660854000 -122.104480000 7.8

T 2017-11-26 20:52:58 37.660625000 -122.104340000 8.4

T 2017-11-26 20:52:59 37.660400000 -122.104190000 8.4

T 2017-11-26 20:53:00 37.660183000 -122.104050000 7.8

T 2017-11-26 20:53:01 37.659970000 -122.103920000 7.6

T 2017-11-26 20:53:02 37.659750000 -122.103780000 7.8

T 2017-11-26 20:53:03 37.659542000 -122.103640000 8.3

T 2017-11-26 20:53:04 37.659332000 -122.103510000 8.4

T 2017-11-26 20:53:05 37.659126000 -122.103380000 8.1

T 2017-11-26 20:53:07 37.658722000 -122.103134000 8.9

T 2017-11-26 20:53:08 37.658530000 -122.103010000 9.0

T 2017-11-26 20:53:09 37.658337000 -122.102900000 9.7


T 2017-11-26 20:53:10 37.658154000 -122.102770000 10.0

T 2017-11-26 20:53:11 37.657963000 -122.102660000 10.2

T 2017-11-26 20:53:12 37.657780000 -122.102550000 10.5

T 2017-11-26 20:53:13 37.657600000 -122.102430000 10.4

T 2017-11-26 20:53:14 37.657430000 -122.102325000 10.7

T 2017-11-26 20:53:15 37.657253000 -122.102220000 10.6

T 2017-11-26 20:53:17 37.656906000 -122.102005000 10.5

T 2017-11-26 20:53:18 37.656727000 -122.101890000 10.3

T 2017-11-26 20:53:19 37.656548000 -122.101776000 10.0

T 2017-11-26 20:53:20 37.656370000 -122.101660000 9.8

T 2017-11-26 20:53:21 37.656174000 -122.101540000 10.1

T 2017-11-26 20:53:22 37.655970000 -122.101400000 10.0

T 2017-11-26 20:53:23 37.655770000 -122.101250000 10.3

T 2017-11-26 20:53:24 37.655552000 -122.101105000 10.8

T 2017-11-26 20:53:25 37.655334000 -122.100945000 10.0

T 2017-11-26 20:53:26 37.655100000 -122.100800000 9.9

T 2017-11-26 20:53:28 37.654636000 -122.100500000 10.0

T 2017-11-26 20:53:29 37.654404000 -122.100365000 9.7

T 2017-11-26 20:53:30 37.654167000 -122.100220000 9.7

T 2017-11-26 20:53:31 37.653930000 -122.100070000 9.6

T 2017-11-26 20:53:32 37.653690000 -122.099930000 9.7

T 2017-11-26 20:53:33 37.653458000 -122.099785000 10.1

T 2017-11-26 20:53:34 37.653220000 -122.099640000 10.0

T 2017-11-26 20:53:35 37.652985000 -122.099495000 10.4

T 2017-11-26 20:53:36 37.652750000 -122.099350000 10.4

T 2017-11-26 20:53:37 37.652515000 -122.099205000 10.7

T 2017-11-26 20:53:38 37.652280000 -122.099060000 10.7

T 2017-11-26 20:53:40 37.651817000 -122.098785000 10.6

T 2017-11-26 20:53:41 37.651585000 -122.098640000 11.0

T 2017-11-26 20:53:42 37.651356000 -122.098500000 11.0


T 2017-11-26 20:53:43 37.651123000 -122.098360000 10.9

T 2017-11-26 20:53:44 37.650898000 -122.098210000 11.1

T 2017-11-26 20:53:45 37.650665000 -122.098076000 11.1

T 2017-11-26 20:53:46 37.650433000 -122.097930000 11.2

T 2017-11-26 20:53:47 37.650204000 -122.097786000 11.3

T 2017-11-26 20:53:48 37.649975000 -122.097640000 11.2

T 2017-11-26 20:53:49 37.649750000 -122.097480000 9.4

T 2017-11-26 20:53:50 37.649520000 -122.097330000 9.6

T 2017-11-26 20:53:52 37.649067000 -122.097015000 9.5

T 2017-11-26 20:53:53 37.648838000 -122.096860000 9.0

T 2017-11-26 20:53:54 37.648610000 -122.096700000 8.8

T 2017-11-26 20:53:55 37.648388000 -122.096550000 8.5

T 2017-11-26 20:53:56 37.648163000 -122.096390000 8.4

T 2017-11-26 20:53:57 37.647938000 -122.096220000 8.2

T 2017-11-26 20:53:59 37.647484000 -122.095900000 8.0

T 2017-11-26 20:54:00 37.647260000 -122.095740000 7.8

T 2017-11-26 20:54:01 37.647030000 -122.095580000 6.9

T 2017-11-26 20:54:02 37.646800000 -122.095420000 6.3

T 2017-11-26 20:54:03 37.646576000 -122.095260000 4.9

T 2017-11-26 20:54:04 37.646350000 -122.095090000 3.6

T 2017-11-26 20:54:06 37.645893000 -122.094770000 1.3

T 2017-11-26 20:54:07 37.645664000 -122.094604000 2.2

T 2017-11-26 20:54:08 37.645440000 -122.094444000 2.5

T 2017-11-26 20:54:09 37.645214000 -122.094280000 1.6

T 2017-11-26 20:54:10 37.644993000 -122.094110000 0.4

T 2017-11-26 20:54:11 37.644768000 -122.093960000 -0.5

T 2017-11-26 20:54:12 37.644543000 -122.093810000 -1.3

T 2017-11-26 20:54:13 37.644333000 -122.093650000 -2.5

T 2017-11-26 20:54:14 37.644123000 -122.093480000 -3.0


T 2017-11-26 20:54:15 37.643887000 -122.093340000 -2.8

T 2017-11-26 20:54:17 37.643420000 -122.093040000 3.6

T 2017-11-26 20:54:18 37.643196000 -122.092870000 1.6

T 2017-11-26 20:54:19 37.642982000 -122.092705000 -0.9

T 2017-11-26 20:54:20 37.642760000 -122.092545000 -2.6

T 2017-11-26 20:54:21 37.642536000 -122.092384000 -2.8

T 2017-11-26 20:54:22 37.642310000 -122.092220000 -2.8

T 2017-11-26 20:54:23 37.642090000 -122.092050000 -3.0

T 2017-11-26 20:54:24 37.641865000 -122.091890000 -2.9

T 2017-11-26 20:54:25 37.641636000 -122.091730000 -2.3

T 2017-11-26 20:54:26 37.641407000 -122.091576000 -2.1

T 2017-11-26 20:54:28 37.640957000 -122.091250000 -2.2

T 2017-11-26 20:54:29 37.640730000 -122.091080000 -1.5

T 2017-11-26 20:54:30 37.640507000 -122.090920000 -1.4

T 2017-11-26 20:54:31 37.640285000 -122.090760000 -1.9

T 2017-11-26 20:54:33 37.639835000 -122.090440000 -1.6

T 2017-11-26 20:54:34 37.639614000 -122.090270000 -1.9

T 2017-11-26 20:54:35 37.639390000 -122.090110000 -1.6

T 2017-11-26 20:54:36 37.639168000 -122.089940000 -1.5

T 2017-11-26 20:54:37 37.638940000 -122.089790000 -1.6

T 2017-11-26 20:54:38 37.638714000 -122.089630000 -1.6

T 2017-11-26 20:54:39 37.638493000 -122.089470000 -1.9

T 2017-11-26 20:54:40 37.638268000 -122.089320000 -2.0

T 2017-11-26 20:54:41 37.638040000 -122.089150000 -1.5

T 2017-11-26 20:54:42 37.637814000 -122.088990000 -1.8

T 2017-11-26 20:54:44 37.637363000 -122.088670000 -2.5

T 2017-11-26 20:54:45 37.637142000 -122.088520000 -2.5

T 2017-11-26 20:54:46 37.636920000 -122.088356000 -2.3

T 2017-11-26 20:54:47 37.636692000 -122.088196000 -2.3

T 2017-11-26 20:54:48 37.636467000 -122.088036000 -2.1


T 2017-11-26 20:54:49 37.636246000 -122.087870000 -2.6

T 2017-11-26 20:54:50 37.636017000 -122.087710000 -2.4

T 2017-11-26 20:54:51 37.635788000 -122.087555000 -2.0

T 2017-11-26 20:54:52 37.635555000 -122.087390000 -1.5

T 2017-11-26 20:54:53 37.635326000 -122.087220000 -1.6

T 2017-11-26 20:54:55 37.634890000 -122.086930000 -1.3

T 2017-11-26 20:54:56 37.634686000 -122.086754000 -0.9

T 2017-11-26 20:54:57 37.634476000 -122.086586000 -1.1

T 2017-11-26 20:54:58 37.634270000 -122.086450000 -1.4

T 2017-11-26 20:54:59 37.634045000 -122.086280000 -1.9

T 2017-11-26 20:55:00 37.633823000 -122.086110000 -2.7

T 2017-11-26 20:55:01 37.633600000 -122.085940000 -3.4

T 2017-11-26 20:55:02 37.633373000 -122.085780000 -3.5

T 2017-11-26 20:55:03 37.633144000 -122.085620000 -4.3

T 2017-11-26 20:55:04 37.632915000 -122.085450000 -4.2

T 2017-11-26 20:55:05 37.632687000 -122.085300000 -4.4

T 2017-11-26 20:55:07 37.632230000 -122.084970000 -4.4

T 2017-11-26 20:55:08 37.632000000 -122.084816000 -4.3

T 2017-11-26 20:55:09 37.631775000 -122.084656000 -4.5

T 2017-11-26 20:55:10 37.631540000 -122.084496000 -4.3

T 2017-11-26 20:55:11 37.631306000 -122.084330000 -5.9

T 2017-11-26 20:55:12 37.631090000 -122.084160000 -6.5

T 2017-11-26 20:55:13 37.630863000 -122.084000000 -6.7

T 2017-11-26 20:55:14 37.630642000 -122.083850000 -7.3

T 2017-11-26 20:55:15 37.630413000 -122.083690000 -7.8

T 2017-11-26 20:55:16 37.630196000 -122.083520000 -8.7

T 2017-11-26 20:55:18 37.629753000 -122.083190000 -7.8

T 2017-11-26 20:55:19 37.629528000 -122.083030000 -9.0

T 2017-11-26 20:55:20 37.629307000 -122.082870000 -9.7


T 2017-11-26 20:55:21 37.629080000 -122.082720000 -9.5

T 2017-11-26 20:55:22 37.628853000 -122.082560000 -9.7

T 2017-11-26 20:55:23 37.628628000 -122.082400000 -9.5

T 2017-11-26 20:55:24 37.628407000 -122.082240000 -9.5

T 2017-11-26 20:55:25 37.628180000 -122.082085000 -9.8

T 2017-11-26 20:55:26 37.627956000 -122.081920000 -10.6

T 2017-11-26 20:55:27 37.627735000 -122.081760000 -11.4

T 2017-11-26 20:55:28 37.627510000 -122.081600000 -11.3

T 2017-11-26 20:55:30 37.627060000 -122.081270000 -11.3

T 2017-11-26 20:55:31 37.626840000 -122.081110000 -11.3

T 2017-11-26 20:55:32 37.626606000 -122.080956000 -10.0

T 2017-11-26 20:55:33 37.626380000 -122.080795000 -9.9

T 2017-11-26 20:55:34 37.626156000 -122.080640000 -9.6

T 2017-11-26 20:55:35 37.625940000 -122.080490000 -9.5

T 2017-11-26 20:55:36 37.625717000 -122.080330000 -9.4

T 2017-11-26 20:55:37 37.625496000 -122.080170000 -9.2

T 2017-11-26 20:55:38 37.625280000 -122.080010000 -9.5

T 2017-11-26 20:55:39 37.625053000 -122.079860000 -9.5

T 2017-11-26 20:55:41 37.624596000 -122.079540000 -9.3

T 2017-11-26 20:55:42 37.624370000 -122.079370000 -9.6

T 2017-11-26 20:55:43 37.624140000 -122.079200000 -9.7

T 2017-11-26 20:55:44 37.623913000 -122.079040000 -9.5

T 2017-11-26 20:55:45 37.623684000 -122.078870000 -10.1

T 2017-11-26 20:55:46 37.623447000 -122.078705000 -10.1

T 2017-11-26 20:55:47 37.623215000 -122.078540000 -10.4

T 2017-11-26 20:55:48 37.622974000 -122.078360000 -10.5

T 2017-11-26 20:55:50 37.622498000 -122.078020000 -10.4

T 2017-11-26 20:55:51 37.622253000 -122.077850000 -9.8

T 2017-11-26 20:55:52 37.622017000 -122.077680000 -9.3

T 2017-11-26 20:55:53 37.621780000 -122.077515000 -8.8


T 2017-11-26 20:55:54 37.621548000 -122.077350000 -8.9

T 2017-11-26 20:55:55 37.621323000 -122.077194000 -9.3

T 2017-11-26 20:55:56 37.621098000 -122.077030000 -9.3

T 2017-11-26 20:55:57 37.620865000 -122.076866000 -9.5

T 2017-11-26 20:55:59 37.620410000 -122.076546000 -8.8

T 2017-11-26 20:56:00 37.620180000 -122.076385000 -8.9

T 2017-11-26 20:56:01 37.619950000 -122.076220000 -8.5

T 2017-11-26 20:56:02 37.619720000 -122.076060000 -8.6

T 2017-11-26 20:56:03 37.619490000 -122.075890000 -8.4

T 2017-11-26 20:56:04 37.619263000 -122.075730000 -8.3

T 2017-11-26 20:56:05 37.619030000 -122.075570000 -8.0

T 2017-11-26 20:56:06 37.618800000 -122.075410000 -8.1

T 2017-11-26 20:56:07 37.618572000 -122.075250000 -8.6

T 2017-11-26 20:56:08 37.618340000 -122.075080000 -8.6

T 2017-11-26 20:56:10 37.617870000 -122.074760000 -7.5

T 2017-11-26 20:56:11 37.617640000 -122.074590000 -7.8

T 2017-11-26 20:56:12 37.617420000 -122.074425000 -6.9

T 2017-11-26 20:56:13 37.617188000 -122.074265000 -6.9

T 2017-11-26 20:56:14 37.616950000 -122.074090000 -6.9

T 2017-11-26 20:56:15 37.616720000 -122.073920000 -6.6

T 2017-11-26 20:56:16 37.616490000 -122.073750000 -6.0

T 2017-11-26 20:56:17 37.616260000 -122.073580000 -6.5

T 2017-11-26 20:56:18 37.616035000 -122.073410000 -7.5

T 2017-11-26 20:56:19 37.615803000 -122.073260000 -7.5

T 2017-11-26 20:56:20 37.615570000 -122.073100000 -7.6

T 2017-11-26 20:56:22 37.615105000 -122.072770000 -7.2

T 2017-11-26 20:56:23 37.614880000 -122.072600000 -7.5

T 2017-11-26 20:56:24 37.614650000 -122.072426000 -7.0

T 2017-11-26 20:56:25 37.614426000 -122.072260000 -7.2


T 2017-11-26 20:56:26 37.614197000 -122.072090000 -6.8

T 2017-11-26 20:56:27 37.613970000 -122.071920000 -6.6

T 2017-11-26 20:56:28 37.613740000 -122.071760000 -6.3

T 2017-11-26 20:56:29 37.613506000 -122.071594000 -6.4

T 2017-11-26 20:56:30 37.613277000 -122.071434000 -6.9

T 2017-11-26 20:56:32 37.612812000 -122.071106000 -6.2

T 2017-11-26 20:56:33 37.612583000 -122.070946000 -6.3

T 2017-11-26 20:56:34 37.612354000 -122.070786000 -6.1

T 2017-11-26 20:56:35 37.612120000 -122.070620000 -5.7

T 2017-11-26 20:56:36 37.611890000 -122.070450000 -5.9

T 2017-11-26 20:56:37 37.611656000 -122.070280000 -5.4

T 2017-11-26 20:56:38 37.611427000 -122.070120000 -5.4

T 2017-11-26 20:56:39 37.611202000 -122.069954000 -6.5

T 2017-11-26 20:56:40 37.610977000 -122.069786000 -6.6

T 2017-11-26 20:56:42 37.610520000 -122.069460000 -5.9

T 2017-11-26 20:56:43 37.610290000 -122.069300000 -5.0

T 2017-11-26 20:56:44 37.610060000 -122.069140000 -4.9

T 2017-11-26 20:56:45 37.609833000 -122.068985000 -3.3

T 2017-11-26 20:56:46 37.609604000 -122.068820000 -2.8

T 2017-11-26 20:56:47 37.609375000 -122.068660000 -1.8

T 2017-11-26 20:56:48 37.609142000 -122.068500000 -0.6

T 2017-11-26 20:56:49 37.608913000 -122.068330000 -0.5

T 2017-11-26 20:56:50 37.608680000 -122.068170000 -0.1

T 2017-11-26 20:56:51 37.608450000 -122.068000000 0.0

T 2017-11-26 20:56:52 37.608220000 -122.067830000 -0.0

T 2017-11-26 20:56:54 37.607754000 -122.067500000 -0.2

T 2017-11-26 20:56:55 37.607520000 -122.067330000 -0.6

T 2017-11-26 20:56:56 37.607292000 -122.067154000 -1.7

T 2017-11-26 20:56:57 37.607056000 -122.067000000 -2.3

T 2017-11-26 20:56:58 37.606823000 -122.066830000 -2.8


T 2017-11-26 20:56:59 37.606586000 -122.066666000 -3.2

T 2017-11-26 20:57:00 37.606358000 -122.066500000 -2.6

T 2017-11-26 20:57:01 37.606125000 -122.066330000 -3.8

T 2017-11-26 20:57:02 37.605896000 -122.066160000 -5.0

T 2017-11-26 20:57:03 37.605660000 -122.066000000 -5.8

T 2017-11-26 20:57:04 37.605427000 -122.065834000 -6.6

T 2017-11-26 20:57:05 37.605198000 -122.065670000 -7.2

T 2017-11-26 20:57:07 37.604744000 -122.065330000 -8.8

T 2017-11-26 20:57:08 37.604515000 -122.065170000 -9.0

T 2017-11-26 20:57:10 37.604057000 -122.064850000 -9.0

T 2017-11-26 20:57:11 37.603825000 -122.064690000 -9.1

T 2017-11-26 20:57:12 37.603596000 -122.064530000 -8.8

T 2017-11-26 20:57:13 37.603367000 -122.064360000 -8.3

T 2017-11-26 20:57:14 37.603134000 -122.064200000 -7.8

T 2017-11-26 20:57:15 37.602900000 -122.064040000 -7.7

T 2017-11-26 20:57:16 37.602673000 -122.063870000 -7.7

T 2017-11-26 20:57:17 37.602448000 -122.063705000 -7.7

T 2017-11-26 20:57:19 37.601990000 -122.063380000 -6.9

T 2017-11-26 20:57:20 37.601760000 -122.063210000 -6.6

T 2017-11-26 20:57:21 37.601532000 -122.063050000 -6.7

T 2017-11-26 20:57:22 37.601303000 -122.062880000 -6.6

T 2017-11-26 20:57:23 37.601067000 -122.062720000 -6.6

T 2017-11-26 20:57:24 37.600834000 -122.062560000 -5.7

T 2017-11-26 20:57:25 37.600605000 -122.062400000 -5.7

T 2017-11-26 20:57:26 37.600372000 -122.062240000 -5.9

T 2017-11-26 20:57:27 37.600150000 -122.062070000 -6.2

T 2017-11-26 20:57:28 37.599920000 -122.061905000 -5.7

T 2017-11-26 20:57:29 37.599686000 -122.061740000 -5.2

T 2017-11-26 20:57:30 37.599453000 -122.061570000 -5.0


T 2017-11-26 20:57:31 37.599224000 -122.061400000 -4.8

T 2017-11-26 20:57:33 37.598763000 -122.061080000 -4.3

T 2017-11-26 20:57:34 37.598526000 -122.060900000 -4.6

T 2017-11-26 20:57:35 37.598290000 -122.060740000 -4.3

T 2017-11-26 20:57:36 37.598070000 -122.060585000 -3.4

T 2017-11-26 20:57:37 37.597836000 -122.060425000 -3.2

T 2017-11-26 20:57:38 37.597614000 -122.060260000 -3.9

T 2017-11-26 20:57:39 37.597385000 -122.060100000 -4.0

T 2017-11-26 20:57:40 37.597153000 -122.059930000 -3.9

T 2017-11-26 20:57:41 37.596928000 -122.059750000 -3.7

T 2017-11-26 20:57:42 37.596695000 -122.059590000 -3.5

T 2017-11-26 20:57:43 37.596462000 -122.059430000 -2.7

T 2017-11-26 20:57:45 37.596010000 -122.059105000 -1.9

T 2017-11-26 20:57:46 37.595776000 -122.058940000 -1.1

T 2017-11-26 20:57:47 37.595547000 -122.058770000 -0.8

T 2017-11-26 20:57:48 37.595314000 -122.058600000 -0.5

T 2017-11-26 20:57:49 37.595085000 -122.058450000 -0.5

T 2017-11-26 20:57:50 37.594850000 -122.058290000 -0.7

T 2017-11-26 20:57:51 37.594612000 -122.058120000 -0.6

T 2017-11-26 20:57:52 37.594370000 -122.057950000 -0.3

T 2017-11-26 20:57:53 37.594147000 -122.057785000 -1.2

T 2017-11-26 20:57:55 37.593680000 -122.057460000 -0.7

T 2017-11-26 20:57:56 37.593450000 -122.057290000 -0.5

T 2017-11-26 20:57:57 37.593224000 -122.057120000 -0.9

T 2017-11-26 20:57:58 37.592990000 -122.056960000 -0.4

T 2017-11-26 20:57:59 37.592762000 -122.056790000 -0.6

T 2017-11-26 20:58:00 37.592533000 -122.056630000 -0.8

T 2017-11-26 20:58:01 37.592300000 -122.056470000 -0.3

T 2017-11-26 20:58:02 37.592070000 -122.056310000 -0.4

T 2017-11-26 20:58:03 37.591840000 -122.056145000 -0.5


T 2017-11-26 20:58:05 37.591380000 -122.055820000 -0.4

T 2017-11-26 20:58:06 37.591145000 -122.055650000 0.0

T 2017-11-26 20:58:07 37.590910000 -122.055490000 0.1

T 2017-11-26 20:58:08 37.590683000 -122.055320000 -0.5

T 2017-11-26 20:58:09 37.590450000 -122.055160000 -0.8

T 2017-11-26 20:58:10 37.590220000 -122.054990000 -1.5

T 2017-11-26 20:58:11 37.589993000 -122.054830000 -2.4

T 2017-11-26 20:58:12 37.589760000 -122.054665000 -2.3

T 2017-11-26 20:58:14 37.589302000 -122.054344000 -1.9

T 2017-11-26 20:58:15 37.589073000 -122.054180000 -2.2

T 2017-11-26 20:58:16 37.588837000 -122.054010000 -1.7

T 2017-11-26 20:58:17 37.588608000 -122.053840000 -2.0

T 2017-11-26 20:58:18 37.588375000 -122.053680000 -2.0

T 2017-11-26 20:58:19 37.588146000 -122.053510000 -2.1

T 2017-11-26 20:58:20 37.587914000 -122.053345000 -2.4

T 2017-11-26 20:58:21 37.587690000 -122.053180000 -2.7

T 2017-11-26 20:58:22 37.587456000 -122.053024000 -2.9

T 2017-11-26 20:58:23 37.587227000 -122.052860000 -3.3

T 2017-11-26 20:58:25 37.586760000 -122.052520000 -2.3

T 2017-11-26 20:58:26 37.586533000 -122.052360000 -2.1

T 2017-11-26 20:58:27 37.586304000 -122.052200000 -1.7

T 2017-11-26 20:58:28 37.586070000 -122.052040000 -1.2

T 2017-11-26 20:58:29 37.585840000 -122.051870000 -1.3

T 2017-11-26 20:58:30 37.585610000 -122.051710000 -0.6

T 2017-11-26 20:58:31 37.585384000 -122.051560000 -0.1

T 2017-11-26 20:58:32 37.585150000 -122.051390000 0.2

T 2017-11-26 20:58:33 37.584920000 -122.051230000 1.0

T 2017-11-26 20:58:34 37.584690000 -122.051070000 1.4

T 2017-11-26 20:58:36 37.584217000 -122.050760000 2.3


T 2017-11-26 20:58:37 37.583984000 -122.050610000 2.7

T 2017-11-26 20:58:38 37.583740000 -122.050476000 2.9

T 2017-11-26 20:58:39 37.583500000 -122.050340000 3.0

T 2017-11-26 20:58:40 37.583252000 -122.050210000 3.2

T 2017-11-26 20:58:41 37.583010000 -122.050080000 2.4

T 2017-11-26 20:58:43 37.582520000 -122.049830000 1.7

T 2017-11-26 20:58:44 37.582268000 -122.049706000 1.6

T 2017-11-26 20:58:45 37.582016000 -122.049590000 1.9

T 2017-11-26 20:58:46 37.581768000 -122.049470000 1.6

T 2017-11-26 20:58:47 37.581524000 -122.049355000 1.2

T 2017-11-26 20:58:48 37.581272000 -122.049250000 1.7

T 2017-11-26 20:58:49 37.581017000 -122.049150000 1.9

T 2017-11-26 20:58:50 37.580760000 -122.049050000 1.7

T 2017-11-26 20:58:51 37.580505000 -122.048965000 1.9

T 2017-11-26 20:58:52 37.580246000 -122.048880000 2.2

T 2017-11-26 20:58:53 37.579990000 -122.048800000 2.5

T 2017-11-26 20:58:55 37.579483000 -122.048630000 2.9

T 2017-11-26 20:58:56 37.579227000 -122.048546000 3.2

T 2017-11-26 20:58:57 37.578970000 -122.048460000 3.0

T 2017-11-26 20:58:58 37.578720000 -122.048380000 3.0

T 2017-11-26 20:58:59 37.578470000 -122.048294000 2.8

T 2017-11-26 20:59:00 37.578210000 -122.048200000 2.5

T 2017-11-26 20:59:01 37.577957000 -122.048110000 2.4

T 2017-11-26 20:59:02 37.577705000 -122.048020000 1.8

T 2017-11-26 20:59:03 37.577457000 -122.047930000 1.8

T 2017-11-26 20:59:04 37.577198000 -122.047850000 2.5

T 2017-11-26 20:59:05 37.576942000 -122.047770000 2.8

T 2017-11-26 20:59:06 37.576683000 -122.047680000 3.1

T 2017-11-26 20:59:08 37.576170000 -122.047516000 3.2

T 2017-11-26 20:59:09 37.575924000 -122.047430000 3.0


T 2017-11-26 20:59:10 37.575665000 -122.047340000 3.1

T 2017-11-26 20:59:11 37.575400000 -122.047260000 3.3

T 2017-11-26 20:59:12 37.575140000 -122.047165000 3.1

T 2017-11-26 20:59:13 37.574886000 -122.047070000 3.9

T 2017-11-26 20:59:14 37.574630000 -122.046990000 4.3

T 2017-11-26 20:59:15 37.574380000 -122.046900000 4.2

T 2017-11-26 20:59:16 37.574123000 -122.046814000 4.1

T 2017-11-26 20:59:17 37.573870000 -122.046720000 3.9

T 2017-11-26 20:59:19 37.573353000 -122.046550000 4.2

T 2017-11-26 20:59:20 37.573105000 -122.046455000 3.9

T 2017-11-26 20:59:21 37.572853000 -122.046364000 3.7

T 2017-11-26 20:59:22 37.572598000 -122.046265000 4.1

T 2017-11-26 20:59:23 37.572346000 -122.046170000 3.6

T 2017-11-26 20:59:24 37.572094000 -122.046074000 4.1

T 2017-11-26 20:59:25 37.571842000 -122.045960000 4.3

T 2017-11-26 20:59:26 37.571590000 -122.045845000 4.0

T 2017-11-26 20:59:29 37.570847000 -122.045460000 3.5

T 2017-11-26 20:59:30 37.570602000 -122.045330000 3.8

T 2017-11-26 20:59:31 37.570362000 -122.045204000 3.6

T 2017-11-26 20:59:32 37.570126000 -122.045040000 3.3

T 2017-11-26 20:59:33 37.569890000 -122.044880000 3.2

T 2017-11-26 20:59:34 37.569664000 -122.044716000 2.6

T 2017-11-26 20:59:35 37.569427000 -122.044556000 3.0

T 2017-11-26 20:59:36 37.569200000 -122.044380000 3.1

T 2017-11-26 20:59:37 37.568970000 -122.044200000 3.1

T 2017-11-26 20:59:38 37.568745000 -122.044020000 2.8

T 2017-11-26 20:59:40 37.568306000 -122.043650000 2.7

T 2017-11-26 20:59:41 37.568092000 -122.043440000 2.4

T 2017-11-26 20:59:42 37.567883000 -122.043240000 2.4


T 2017-11-26 20:59:43 37.567677000 -122.043040000 2.1

T 2017-11-26 20:59:44 37.567480000 -122.042816000 1.7

T 2017-11-26 20:59:45 37.567272000 -122.042600000 1.8

T 2017-11-26 20:59:46 37.567070000 -122.042390000 1.8

T 2017-11-26 20:59:47 37.566864000 -122.042175000 1.6

T 2017-11-26 20:59:48 37.566660000 -122.041954000 1.4

T 2017-11-26 20:59:49 37.566456000 -122.041740000 1.2

T 2017-11-26 20:59:50 37.566254000 -122.041530000 1.1

T 2017-11-26 20:59:52 37.565857000 -122.041090000 1.5

T 2017-11-26 20:59:53 37.565655000 -122.040880000 1.4

T 2017-11-26 20:59:54 37.565453000 -122.040660000 1.2

T 2017-11-26 20:59:55 37.565247000 -122.040450000 1.6

T 2017-11-26 20:59:56 37.565050000 -122.040230000 2.0

T 2017-11-26 20:59:57 37.564846000 -122.040016000 2.2

T 2017-11-26 20:59:58 37.564644000 -122.039800000 2.2

T 2017-11-26 20:59:59 37.564445000 -122.039580000 2.8

T 2017-11-26 21:00:01 37.564040000 -122.039154000 2.7

T 2017-11-26 21:00:02 37.563840000 -122.038940000 3.1

T 2017-11-26 21:00:03 37.563630000 -122.038730000 3.2

T 2017-11-26 21:00:04 37.563460000 -122.038506000 1.8

T 2017-11-26 21:00:05 37.563236000 -122.038284000 2.5

T 2017-11-26 21:00:06 37.563038000 -122.038070000 2.5

T 2017-11-26 21:00:07 37.562830000 -122.037850000 3.1

T 2017-11-26 21:00:08 37.562630000 -122.037636000 3.1

T 2017-11-26 21:00:10 37.562218000 -122.037220000 3.6

T 2017-11-26 21:00:11 37.562020000 -122.037000000 4.0

T 2017-11-26 21:00:12 37.561813000 -122.036780000 3.7

T 2017-11-26 21:00:13 37.561610000 -122.036570000 4.2

T 2017-11-26 21:00:14 37.561410000 -122.036354000 4.0

T 2017-11-26 21:00:15 37.561207000 -122.036140000 4.2


T 2017-11-26 21:00:16 37.561005000 -122.035930000 4.1

T 2017-11-26 21:00:17 37.560802000 -122.035710000 4.1

T 2017-11-26 21:00:18 37.560600000 -122.035490000 3.9

T 2017-11-26 21:00:19 37.560394000 -122.035286000 4.0

T 2017-11-26 21:00:20 37.560190000 -122.035070000 4.0

T 2017-11-26 21:00:21 37.559986000 -122.034850000 4.2

T 2017-11-26 21:00:23 37.559574000 -122.034420000 4.3

T 2017-11-26 21:00:24 37.559376000 -122.034195000 3.8

T 2017-11-26 21:00:25 37.559166000 -122.033980000 4.1

T 2017-11-26 21:00:26 37.558964000 -122.033760000 4.6

T 2017-11-26 21:00:27 37.558754000 -122.033554000 4.9

T 2017-11-26 21:00:28 37.558550000 -122.033350000 4.7

T 2017-11-26 21:00:29 37.558357000 -122.033130000 4.3

T 2017-11-26 21:00:30 37.558170000 -122.032900000 4.1

T 2017-11-26 21:00:31 37.557960000 -122.032680000 4.2

T 2017-11-26 21:00:32 37.557777000 -122.032450000 3.5

T 2017-11-26 21:00:34 37.557358000 -122.032040000 2.5

T 2017-11-26 21:00:35 37.557160000 -122.031820000 2.4

T 2017-11-26 21:00:36 37.556957000 -122.031600000 2.4

T 2017-11-26 21:00:37 37.556750000 -122.031380000 2.0

T 2017-11-26 21:00:38 37.556557000 -122.031160000 1.7

T 2017-11-26 21:00:39 37.556355000 -122.030945000 1.6

T 2017-11-26 21:00:40 37.556152000 -122.030740000 2.9

T 2017-11-26 21:00:41 37.555943000 -122.030530000 2.8

T 2017-11-26 21:00:42 37.555740000 -122.030310000 2.8

T 2017-11-26 21:00:43 37.555534000 -122.030106000 3.0

T 2017-11-26 21:00:45 37.555145000 -122.029650000 2.5

T 2017-11-26 21:00:46 37.554943000 -122.029430000 2.0

T 2017-11-26 21:00:47 37.554720000 -122.029236000 4.7


T 2017-11-26 21:00:48 37.554520000 -122.029020000 3.5

T 2017-11-26 21:00:49 37.554310000 -122.028810000 2.1

T 2017-11-26 21:00:50 37.554108000 -122.028610000 1.6

T 2017-11-26 21:00:52 37.553665000 -122.028230000 0.3

T 2017-11-26 21:00:53 37.553436000 -122.028060000 0.3

T 2017-11-26 21:00:54 37.553207000 -122.027890000 1.5

T 2017-11-26 21:00:55 37.552980000 -122.027725000 2.5

T 2017-11-26 21:00:56 37.552753000 -122.027550000 3.0

T 2017-11-26 21:00:57 37.552520000 -122.027380000 3.7

T 2017-11-26 21:00:58 37.552296000 -122.027214000 4.2

T 2017-11-26 21:00:59 37.552070000 -122.027050000 4.7

T 2017-11-26 21:01:00 37.551846000 -122.026870000 4.4

T 2017-11-26 21:01:01 37.551613000 -122.026695000 4.4

T 2017-11-26 21:01:02 37.551384000 -122.026530000 5.1

T 2017-11-26 21:01:04 37.550926000 -122.026184000 5.4

T 2017-11-26 21:01:05 37.550705000 -122.026010000 5.5

T 2017-11-26 21:01:06 37.550476000 -122.025840000 5.4

T 2017-11-26 21:01:07 37.550247000 -122.025665000 5.6

T 2017-11-26 21:01:08 37.550020000 -122.025490000 5.4

T 2017-11-26 21:01:09 37.549790000 -122.025320000 5.0

T 2017-11-26 21:01:10 37.549560000 -122.025160000 5.6

T 2017-11-26 21:01:11 37.549330000 -122.024990000 5.9

T 2017-11-26 21:01:12 37.549103000 -122.024810000 6.4

T 2017-11-26 21:01:13 37.548890000 -122.024630000 4.7

T 2017-11-26 21:01:14 37.548660000 -122.024460000 3.9

T 2017-11-26 21:01:15 37.548430000 -122.024290000 3.1

T 2017-11-26 21:01:17 37.547970000 -122.023950000 2.9

T 2017-11-26 21:01:18 37.547737000 -122.023780000 2.7

T 2017-11-26 21:01:19 37.547510000 -122.023605000 1.5

T 2017-11-26 21:01:20 37.547270000 -122.023440000 0.8


T 2017-11-26 21:01:21 37.547040000 -122.023270000 0.8

T 2017-11-26 21:01:22 37.546814000 -122.023094000 -0.4

T 2017-11-26 21:01:23 37.546593000 -122.022930000 -1.9

T 2017-11-26 21:01:24 37.546368000 -122.022760000 -2.0

T 2017-11-26 21:01:25 37.546140000 -122.022580000 -1.8

T 2017-11-26 21:01:26 37.545910000 -122.022410000 -1.1

T 2017-11-26 21:01:27 37.545685000 -122.022240000 -1.7

T 2017-11-26 21:01:29 37.545235000 -122.021900000 -1.5

T 2017-11-26 21:01:30 37.545006000 -122.021730000 -1.4

T 2017-11-26 21:01:31 37.544785000 -122.021560000 -1.6

T 2017-11-26 21:01:32 37.544560000 -122.021385000 -1.8

T 2017-11-26 21:01:33 37.544330000 -122.021210000 -2.0

T 2017-11-26 21:01:34 37.544100000 -122.021040000 -2.4

T 2017-11-26 21:01:36 37.543648000 -122.020700000 -2.4

T 2017-11-26 21:01:37 37.543420000 -122.020520000 -2.7

T 2017-11-26 21:01:38 37.543190000 -122.020355000 -2.7

T 2017-11-26 21:01:39 37.542960000 -122.020180000 -2.6

T 2017-11-26 21:01:40 37.542740000 -122.020010000 -2.8

T 2017-11-26 21:01:41 37.542515000 -122.019840000 -4.3

T 2017-11-26 21:01:42 37.542290000 -122.019660000 -3.6

T 2017-11-26 21:01:43 37.542060000 -122.019490000 -3.5

T 2017-11-26 21:01:44 37.541832000 -122.019320000 -3.0

T 2017-11-26 21:01:45 37.541595000 -122.019140000 -2.8

T 2017-11-26 21:01:47 37.541140000 -122.018820000 -2.7

T 2017-11-26 21:01:48 37.540910000 -122.018654000 -2.6

T 2017-11-26 21:01:49 37.540680000 -122.018490000 -2.4

T 2017-11-26 21:01:50 37.540450000 -122.018326000 -2.2

T 2017-11-26 21:01:51 37.540222000 -122.018160000 -1.3

T 2017-11-26 21:01:52 37.539990000 -122.017990000 -1.8


T 2017-11-26 21:01:53 37.539760000 -122.017815000 -1.5

T 2017-11-26 21:01:54 37.539528000 -122.017640000 -1.0

T 2017-11-26 21:01:55 37.539300000 -122.017470000 -0.9

T 2017-11-26 21:01:56 37.539085000 -122.017300000 -1.0

T 2017-11-26 21:01:57 37.538857000 -122.017130000 -1.1

T 2017-11-26 21:01:59 37.538430000 -122.016754000 -0.4

T 2017-11-26 21:02:00 37.538220000 -122.016556000 1.9

T 2017-11-26 21:02:01 37.538006000 -122.016360000 2.7

T 2017-11-26 21:02:02 37.537800000 -122.016150000 3.3

T 2017-11-26 21:02:03 37.537598000 -122.015940000 3.6

T 2017-11-26 21:02:04 37.537395000 -122.015730000 4.3

T 2017-11-26 21:02:05 37.537212000 -122.015500000 4.6

T 2017-11-26 21:02:06 37.537020000 -122.015274000 4.2

T 2017-11-26 21:02:07 37.536842000 -122.015045000 4.3

T 2017-11-26 21:02:09 37.536530000 -122.014620000 5.1

T 2017-11-26 21:02:10 37.536380000 -122.014404000 5.9

T 2017-11-26 21:02:11 37.536236000 -122.014180000 6.4

T 2017-11-26 21:02:12 37.536102000 -122.013980000 7.5

T 2017-11-26 21:02:13 37.535980000 -122.013770000 7.4

T 2017-11-26 21:02:14 37.535866000 -122.013565000 7.4

T 2017-11-26 21:02:15 37.535750000 -122.013370000 7.9

T 2017-11-26 21:02:16 37.535640000 -122.013170000 8.3

T 2017-11-26 21:02:17 37.535530000 -122.012970000 8.1

T 2017-11-26 21:02:18 37.535430000 -122.012770000 8.2

T 2017-11-26 21:02:20 37.535244000 -122.012436000 8.5

T 2017-11-26 21:02:21 37.535164000 -122.012276000 9.0

T 2017-11-26 21:02:22 37.535084000 -122.012130000 8.9

T 2017-11-26 21:02:23 37.535000000 -122.011980000 8.6

T 2017-11-26 21:02:24 37.534920000 -122.011826000 8.9

T 2017-11-26 21:02:25 37.534836000 -122.011665000 9.1


T 2017-11-26 21:02:26 37.534748000 -122.011510000 9.0

T 2017-11-26 21:02:27 37.534660000 -122.011345000 9.1

T 2017-11-26 21:02:28 37.534570000 -122.011185000 9.2

T 2017-11-26 21:02:29 37.534485000 -122.011020000 9.5

T 2017-11-26 21:02:30 37.534386000 -122.010840000 9.5

T 2017-11-26 21:02:31 37.534290000 -122.010670000 9.8

T 2017-11-26 21:02:33 37.534103000 -122.010330000 9.4

T 2017-11-26 21:02:34 37.534016000 -122.010170000 10.0

T 2017-11-26 21:02:35 37.533924000 -122.010000000 10.3

T 2017-11-26 21:02:36 37.533833000 -122.009834000 10.7

T 2017-11-26 21:02:37 37.533740000 -122.009660000 10.6

T 2017-11-26 21:02:38 37.533646000 -122.009476000 10.4

T 2017-11-26 21:02:39 37.533546000 -122.009300000 10.5

T 2017-11-26 21:02:40 37.533443000 -122.009120000 10.6

T 2017-11-26 21:02:41 37.533337000 -122.008930000 10.7

T 2017-11-26 21:02:43 37.533123000 -122.008530000 11.1

T 2017-11-26 21:02:44 37.533012000 -122.008320000 11.2

T 2017-11-26 21:02:45 37.532906000 -122.008120000 11.6

T 2017-11-26 21:02:46 37.532790000 -122.007910000 12.1

T 2017-11-26 21:02:47 37.532677000 -122.007706000 12.2

T 2017-11-26 21:02:48 37.532566000 -122.007490000 12.4

T 2017-11-26 21:02:49 37.532455000 -122.007286000 12.3

T 2017-11-26 21:02:50 37.532345000 -122.007070000 12.9

T 2017-11-26 21:02:51 37.532227000 -122.006860000 12.6

T 2017-11-26 21:02:52 37.532112000 -122.006645000 12.5

T 2017-11-26 21:02:54 37.531883000 -122.006210000 12.5

T 2017-11-26 21:02:55 37.531760000 -122.006000000 12.2

T 2017-11-26 21:02:56 37.531643000 -122.005775000 12.2

T 2017-11-26 21:02:57 37.531520000 -122.005550000 11.7


T 2017-11-26 21:02:58 37.531400000 -122.005325000 11.3

T 2017-11-26 21:02:59 37.531277000 -122.005100000 11.5

T 2017-11-26 21:03:00 37.531150000 -122.004860000 11.6

T 2017-11-26 21:03:01 37.531020000 -122.004630000 11.2

T 2017-11-26 21:03:02 37.530890000 -122.004395000 10.7

T 2017-11-26 21:03:03 37.530766000 -122.004150000 10.6

T 2017-11-26 21:03:04 37.530636000 -122.003914000 10.3

T 2017-11-26 21:03:06 37.530376000 -122.003430000 9.7

T 2017-11-26 21:03:07 37.530240000 -122.003190000 9.8

T 2017-11-26 21:03:08 37.530100000 -122.002945000 9.9

T 2017-11-26 21:03:09 37.529970000 -122.002690000 9.7

T 2017-11-26 21:03:10 37.529835000 -122.002430000 9.3

T 2017-11-26 21:03:11 37.529705000 -122.002180000 9.5

T 2017-11-26 21:03:12 37.529580000 -122.001930000 9.4

T 2017-11-26 21:03:13 37.529427000 -122.001670000 8.9

T 2017-11-26 21:03:14 37.529290000 -122.001410000 8.7

T 2017-11-26 21:03:15 37.529150000 -122.001144000 8.7

T 2017-11-26 21:03:17 37.528866000 -122.000620000 8.5

T 2017-11-26 21:03:18 37.528725000 -122.000360000 8.9

T 2017-11-26 21:03:19 37.528576000 -122.000090000 9.2

T 2017-11-26 21:03:20 37.528430000 -121.999830000 9.9

T 2017-11-26 21:03:21 37.528290000 -121.999565000 9.5

T 2017-11-26 21:03:22 37.528150000 -121.999300000 9.5

T 2017-11-26 21:03:23 37.528008000 -121.999030000 9.9

T 2017-11-26 21:03:24 37.527860000 -121.998760000 10.4

T 2017-11-26 21:03:26 37.527584000 -121.998190000 10.3

T 2017-11-26 21:03:27 37.527440000 -121.997910000 10.1

T 2017-11-26 21:03:28 37.527298000 -121.997630000 10.1

T 2017-11-26 21:03:29 37.527153000 -121.997345000 10.3

T 2017-11-26 21:03:30 37.527010000 -121.997055000 11.0


T 2017-11-26 21:03:31 37.526870000 -121.996770000 10.9

T 2017-11-26 21:03:32 37.526733000 -121.996480000 10.6

T 2017-11-26 21:03:33 37.526590000 -121.996200000 10.9

T 2017-11-26 21:03:34 37.526447000 -121.995910000 10.9

T 2017-11-26 21:03:35 37.526306000 -121.995630000 11.3

T 2017-11-26 21:03:36 37.526170000 -121.995340000 11.2

T 2017-11-26 21:03:38 37.525890000 -121.994774000 11.4

T 2017-11-26 21:03:39 37.525750000 -121.994490000 11.9

T 2017-11-26 21:03:40 37.525604000 -121.994200000 12.0

T 2017-11-26 21:03:41 37.525463000 -121.993920000 12.1

T 2017-11-26 21:03:42 37.525326000 -121.993640000 12.1

T 2017-11-26 21:03:43 37.525185000 -121.993350000 12.3

T 2017-11-26 21:03:44 37.525043000 -121.993060000 12.3

T 2017-11-26 21:03:45 37.524906000 -121.992770000 12.5

T 2017-11-26 21:03:46 37.524765000 -121.992485000 12.3

T 2017-11-26 21:03:47 37.524616000 -121.992195000 12.5

T 2017-11-26 21:03:48 37.524480000 -121.991905000 12.2

T 2017-11-26 21:03:50 37.524200000 -121.991325000 12.1

T 2017-11-26 21:03:51 37.524060000 -121.991035000 11.7

T 2017-11-26 21:03:52 37.523920000 -121.990750000 11.9

T 2017-11-26 21:03:53 37.523773000 -121.990470000 12.0

T 2017-11-26 21:03:54 37.523632000 -121.990190000 12.3

T 2017-11-26 21:03:55 37.523495000 -121.989910000 11.5

T 2017-11-26 21:03:56 37.523354000 -121.989624000 12.0

T 2017-11-26 21:03:57 37.523216000 -121.989334000 12.2

T 2017-11-26 21:03:58 37.523075000 -121.989044000 12.6

T 2017-11-26 21:03:59 37.522934000 -121.988770000 12.5

T 2017-11-26 21:04:01 37.522650000 -121.988190000 13.0

T 2017-11-26 21:04:02 37.522503000 -121.987910000 13.1


T 2017-11-26 21:04:03 37.522366000 -121.987620000 12.8

T 2017-11-26 21:04:04 37.522217000 -121.987330000 12.6

T 2017-11-26 21:04:05 37.522080000 -121.987045000 12.5

T 2017-11-26 21:04:06 37.521930000 -121.986770000 12.8

T 2017-11-26 21:04:08 37.521660000 -121.986190000 12.4

T 2017-11-26 21:04:09 37.521520000 -121.985910000 12.4

T 2017-11-26 21:04:10 37.521374000 -121.985620000 12.2

T 2017-11-26 21:04:11 37.521225000 -121.985340000 12.1

T 2017-11-26 21:04:12 37.521084000 -121.985054000 12.7

T 2017-11-26 21:04:13 37.520930000 -121.984780000 12.6

T 2017-11-26 21:04:14 37.520770000 -121.984505000 12.4

T 2017-11-26 21:04:15 37.520610000 -121.984230000 12.2

T 2017-11-26 21:04:16 37.520450000 -121.983955000 11.5

T 2017-11-26 21:04:17 37.520290000 -121.983690000 10.3

T 2017-11-26 21:04:19 37.519940000 -121.983180000 9.5

T 2017-11-26 21:04:20 37.519756000 -121.982925000 9.7

T 2017-11-26 21:04:21 37.519573000 -121.982670000 9.5

T 2017-11-26 21:04:22 37.519390000 -121.982440000 8.9

T 2017-11-26 21:04:23 37.519190000 -121.982200000 8.8

T 2017-11-26 21:04:24 37.518997000 -121.981960000 8.5

T 2017-11-26 21:04:25 37.518814000 -121.981705000 5.8

T 2017-11-26 21:04:26 37.518623000 -121.981470000 5.5

T 2017-11-26 21:04:27 37.518433000 -121.981230000 4.4

T 2017-11-26 21:04:28 37.518240000 -121.980995000 4.5

T 2017-11-26 21:04:29 37.518055000 -121.980740000 2.7

T 2017-11-26 21:04:30 37.517864000 -121.980510000 1.9

T 2017-11-26 21:04:32 37.517475000 -121.980040000 1.3

T 2017-11-26 21:04:33 37.517284000 -121.979810000 1.4

T 2017-11-26 21:04:34 37.517090000 -121.979570000 2.4

T 2017-11-26 21:04:35 37.516900000 -121.979330000 2.2


T 2017-11-26 21:04:36 37.516710000 -121.979095000 2.0

T 2017-11-26 21:04:37 37.516514000 -121.978860000 2.3

T 2017-11-26 21:04:38 37.516327000 -121.978620000 2.4

T 2017-11-26 21:04:39 37.516136000 -121.978386000 1.4

T 2017-11-26 21:04:41 37.515750000 -121.977910000 1.3

T 2017-11-26 21:04:42 37.515556000 -121.977680000 1.3

T 2017-11-26 21:04:43 37.515366000 -121.977450000 1.1

T 2017-11-26 21:04:44 37.515170000 -121.977210000 0.8

T 2017-11-26 21:04:45 37.514988000 -121.976960000 -0.4

T 2017-11-26 21:04:46 37.514793000 -121.976730000 -0.5

T 2017-11-26 21:04:47 37.514603000 -121.976494000 -0.7

T 2017-11-26 21:04:48 37.514410000 -121.976265000 0.4

T 2017-11-26 21:04:49 37.514214000 -121.976030000 0.4

T 2017-11-26 21:04:51 37.513836000 -121.975555000 -0.6

T 2017-11-26 21:04:53 37.513447000 -121.975090000 0.5

T 2017-11-26 21:04:54 37.513256000 -121.974860000 0.7

T 2017-11-26 21:04:55 37.513070000 -121.974620000 0.8

T 2017-11-26 21:04:56 37.512882000 -121.974370000 0.8

T 2017-11-26 21:04:57 37.512690000 -121.974144000 0.2

T 2017-11-26 21:04:59 37.512318000 -121.973660000 -0.8

T 2017-11-26 21:05:00 37.512123000 -121.973430000 -0.8

T 2017-11-26 21:05:01 37.511932000 -121.973190000 0.0

T 2017-11-26 21:05:02 37.511738000 -121.972950000 0.5

T 2017-11-26 21:05:03 37.511547000 -121.972725000 1.0

T 2017-11-26 21:05:04 37.511360000 -121.972490000 1.5

T 2017-11-26 21:05:05 37.511170000 -121.972250000 1.6

T 2017-11-26 21:05:06 37.510980000 -121.972015000 2.3

T 2017-11-26 21:05:07 37.510784000 -121.971780000 2.3

T 2017-11-26 21:05:08 37.510593000 -121.971540000 1.8


T 2017-11-26 21:05:10 37.510212000 -121.971070000 0.9

T 2017-11-26 21:05:11 37.510025000 -121.970830000 0.3

T 2017-11-26 21:05:12 37.509834000 -121.970600000 0.7

T 2017-11-26 21:05:13 37.509640000 -121.970360000 0.7

T 2017-11-26 21:05:14 37.509450000 -121.970120000 0.6

T 2017-11-26 21:05:15 37.509266000 -121.969880000 -0.1

T 2017-11-26 21:05:16 37.509068000 -121.969650000 0.2

T 2017-11-26 21:05:17 37.508873000 -121.969420000 0.3

T 2017-11-26 21:05:18 37.508694000 -121.969180000 -0.7

T 2017-11-26 21:05:20 37.508310000 -121.968700000 -0.4

T 2017-11-26 21:05:21 37.508118000 -121.968460000 -0.4

T 2017-11-26 21:05:22 37.507930000 -121.968220000 -0.0

T 2017-11-26 21:05:23 37.507736000 -121.967980000 -0.3

T 2017-11-26 21:05:24 37.507540000 -121.967750000 0.1

T 2017-11-26 21:05:26 37.507160000 -121.967285000 -1.3

T 2017-11-26 21:05:27 37.506970000 -121.967040000 -1.2

T 2017-11-26 21:05:28 37.506786000 -121.966800000 -2.0

T 2017-11-26 21:05:29 37.506596000 -121.966570000 -2.1

T 2017-11-26 21:05:30 37.506405000 -121.966330000 -2.8

T 2017-11-26 21:05:31 37.506214000 -121.966100000 -2.7

T 2017-11-26 21:05:32 37.506023000 -121.965866000 -2.8

T 2017-11-26 21:05:33 37.505833000 -121.965620000 -2.8

T 2017-11-26 21:05:34 37.505640000 -121.965385000 -2.7

T 2017-11-26 21:05:35 37.505444000 -121.965150000 -2.6

T 2017-11-26 21:05:36 37.505253000 -121.964910000 -3.8

T 2017-11-26 21:05:38 37.504868000 -121.964450000 -3.2

T 2017-11-26 21:05:39 37.504670000 -121.964220000 -2.7

T 2017-11-26 21:05:40 37.504480000 -121.963980000 -2.4

T 2017-11-26 21:05:41 37.504300000 -121.963730000 -2.8

T 2017-11-26 21:05:42 37.504110000 -121.963490000 -2.2


T 2017-11-26 21:05:43 37.503920000 -121.963260000 -2.4

T 2017-11-26 21:05:44 37.503735000 -121.963020000 -2.4

T 2017-11-26 21:05:45 37.503550000 -121.962776000 -2.1

T 2017-11-26 21:05:47 37.503180000 -121.962296000 -1.3

T 2017-11-26 21:05:48 37.502995000 -121.962050000 -1.4

T 2017-11-26 21:05:49 37.502808000 -121.961815000 -1.1

T 2017-11-26 21:05:50 37.502617000 -121.961580000 -0.9

T 2017-11-26 21:05:51 37.502430000 -121.961330000 -1.0

T 2017-11-26 21:05:52 37.502247000 -121.961080000 -0.9

T 2017-11-26 21:05:53 37.502060000 -121.960840000 -1.3

T 2017-11-26 21:05:54 37.501873000 -121.960594000 -1.1

T 2017-11-26 21:05:55 37.501682000 -121.960350000 -0.7

T 2017-11-26 21:05:57 37.501310000 -121.959860000 -0.7

T 2017-11-26 21:05:58 37.501120000 -121.959610000 -1.4

T 2017-11-26 21:05:59 37.500935000 -121.959366000 -1.1

T 2017-11-26 21:06:00 37.500748000 -121.959120000 -1.7

T 2017-11-26 21:06:02 37.500378000 -121.958640000 -1.3

T 2017-11-26 21:06:03 37.500190000 -121.958400000 -1.1

T 2017-11-26 21:06:04 37.500004000 -121.958150000 -0.9

T 2017-11-26 21:06:05 37.499825000 -121.957910000 -0.6

T 2017-11-26 21:06:06 37.499638000 -121.957664000 -0.6

T 2017-11-26 21:06:07 37.499450000 -121.957420000 -0.0

T 2017-11-26 21:06:08 37.499268000 -121.957180000 -0.1

T 2017-11-26 21:06:10 37.498894000 -121.956696000 0.3

T 2017-11-26 21:06:11 37.498707000 -121.956460000 0.1

T 2017-11-26 21:06:12 37.498520000 -121.956215000 0.0

T 2017-11-26 21:06:13 37.498333000 -121.955970000 -0.1

T 2017-11-26 21:06:14 37.498150000 -121.955730000 -0.3

T 2017-11-26 21:06:15 37.497963000 -121.955490000 -0.3


T 2017-11-26 21:06:16 37.497776000 -121.955246000 -0.7

T 2017-11-26 21:06:18 37.497410000 -121.954765000 0.4

T 2017-11-26 21:06:19 37.497220000 -121.954520000 0.2

T 2017-11-26 21:06:20 37.497036000 -121.954285000 0.1

T 2017-11-26 21:06:21 37.496850000 -121.954040000 0.4

T 2017-11-26 21:06:22 37.496660000 -121.953800000 0.0

T 2017-11-26 21:06:23 37.496470000 -121.953560000 0.1

T 2017-11-26 21:06:24 37.496284000 -121.953320000 -0.1

T 2017-11-26 21:06:25 37.496098000 -121.953080000 -0.1

T 2017-11-26 21:06:26 37.495910000 -121.952835000 0.3

T 2017-11-26 21:06:28 37.495544000 -121.952350000 1.1

T 2017-11-26 21:06:29 37.495358000 -121.952100000 1.0

T 2017-11-26 21:06:30 37.495174000 -121.951860000 0.1

T 2017-11-26 21:06:31 37.494987000 -121.951614000 0.1

T 2017-11-26 21:06:32 37.494804000 -121.951370000 -0.1

T 2017-11-26 21:06:33 37.494617000 -121.951126000 -0.2

T 2017-11-26 21:06:34 37.494430000 -121.950890000 -0.2

T 2017-11-26 21:06:35 37.494244000 -121.950645000 -0.6

T 2017-11-26 21:06:36 37.494060000 -121.950400000 -0.7

T 2017-11-26 21:06:37 37.493874000 -121.950160000 -0.7

T 2017-11-26 21:06:38 37.493694000 -121.949905000 -1.0

T 2017-11-26 21:06:39 37.493507000 -121.949670000 -1.4

T 2017-11-26 21:06:41 37.493134000 -121.949190000 -1.5

T 2017-11-26 21:06:42 37.492947000 -121.948944000 -1.8

T 2017-11-26 21:06:43 37.492760000 -121.948700000 -1.9

T 2017-11-26 21:06:44 37.492580000 -121.948460000 -2.4

T 2017-11-26 21:06:45 37.492390000 -121.948210000 -2.7

T 2017-11-26 21:06:46 37.492203000 -121.947975000 -2.2

T 2017-11-26 21:06:47 37.492012000 -121.947730000 -1.7

T 2017-11-26 21:06:48 37.491825000 -121.947490000 -1.2


T 2017-11-26 21:06:49 37.491642000 -121.947250000 -1.1

T 2017-11-26 21:06:50 37.491460000 -121.947010000 -0.7

T 2017-11-26 21:06:51 37.491270000 -121.946770000 0.4

T 2017-11-26 21:06:53 37.490894000 -121.946300000 1.0

T 2017-11-26 21:06:54 37.490704000 -121.946045000 1.1

T 2017-11-26 21:06:55 37.490517000 -121.945800000 1.4

T 2017-11-26 21:06:56 37.490330000 -121.945564000 1.6

T 2017-11-26 21:06:57 37.490143000 -121.945320000 1.6

T 2017-11-26 21:06:58 37.489956000 -121.945080000 2.0

T 2017-11-26 21:06:59 37.489770000 -121.944830000 1.6

T 2017-11-26 21:07:00 37.489586000 -121.944590000 1.5

T 2017-11-26 21:07:01 37.489400000 -121.944340000 1.5

T 2017-11-26 21:07:02 37.489212000 -121.944100000 1.7

T 2017-11-26 21:07:03 37.489025000 -121.943860000 1.7

T 2017-11-26 21:07:04 37.488842000 -121.943620000 1.3

T 2017-11-26 21:07:06 37.488476000 -121.943130000 2.0

T 2017-11-26 21:07:07 37.488290000 -121.942890000 2.0

T 2017-11-26 21:07:08 37.488102000 -121.942650000 1.2

T 2017-11-26 21:07:09 37.487915000 -121.942406000 1.6

T 2017-11-26 21:07:10 37.487730000 -121.942170000 2.1

T 2017-11-26 21:07:11 37.487540000 -121.941925000 2.2

T 2017-11-26 21:07:12 37.487350000 -121.941680000 2.2

T 2017-11-26 21:07:13 37.487164000 -121.941444000 2.0

T 2017-11-26 21:07:14 37.486977000 -121.941200000 2.0

T 2017-11-26 21:07:15 37.486790000 -121.940956000 2.4

T 2017-11-26 21:07:17 37.486416000 -121.940470000 2.9

T 2017-11-26 21:07:18 37.486233000 -121.940220000 3.0

T 2017-11-26 21:07:19 37.486046000 -121.939990000 4.2

T 2017-11-26 21:07:20 37.485863000 -121.939735000 5.0


T 2017-11-26 21:07:21 37.485680000 -121.939500000 5.7

T 2017-11-26 21:07:22 37.485497000 -121.939260000 6.1

T 2017-11-26 21:07:23 37.485310000 -121.939020000 5.8

T 2017-11-26 21:07:24 37.485123000 -121.938774000 6.1

T 2017-11-26 21:07:25 37.484936000 -121.938540000 6.1

T 2017-11-26 21:07:26 37.484750000 -121.938290000 6.2

T 2017-11-26 21:07:27 37.484566000 -121.938060000 6.3

T 2017-11-26 21:07:29 37.484177000 -121.937590000 6.0

T 2017-11-26 21:07:30 37.483986000 -121.937360000 6.0

T 2017-11-26 21:07:31 37.483784000 -121.937140000 5.7

T 2017-11-26 21:07:32 37.483585000 -121.936930000 6.0

T 2017-11-26 21:07:33 37.483368000 -121.936720000 5.9

T 2017-11-26 21:07:34 37.483147000 -121.936510000 5.8

T 2017-11-26 21:07:35 37.482918000 -121.936320000 5.7

T 2017-11-26 21:07:37 37.482456000 -121.935950000 5.1

T 2017-11-26 21:07:38 37.482224000 -121.935790000 5.8

T 2017-11-26 21:07:39 37.481987000 -121.935620000 5.9

T 2017-11-26 21:07:40 37.481747000 -121.935470000 6.3

T 2017-11-26 21:07:41 37.481506000 -121.935326000 6.1

T 2017-11-26 21:07:42 37.481266000 -121.935180000 5.8

T 2017-11-26 21:07:43 37.481018000 -121.935050000 5.2

T 2017-11-26 21:07:44 37.480766000 -121.934920000 5.3

T 2017-11-26 21:07:46 37.480267000 -121.934660000 4.5

T 2017-11-26 21:07:47 37.480010000 -121.934550000 4.7

T 2017-11-26 21:07:48 37.479763000 -121.934425000 4.7

T 2017-11-26 21:07:49 37.479510000 -121.934300000 4.6

T 2017-11-26 21:07:50 37.479260000 -121.934180000 4.6

T 2017-11-26 21:07:51 37.479008000 -121.934074000 4.0

T 2017-11-26 21:07:52 37.478752000 -121.933945000 3.5

T 2017-11-26 21:07:53 37.478504000 -121.933820000 3.7


T 2017-11-26 21:07:54 37.478270000 -121.933680000 0.1

T 2017-11-26 21:07:55 37.478024000 -121.933550000 -1.0

T 2017-11-26 21:07:56 37.477776000 -121.933426000 -1.0

T 2017-11-26 21:07:58 37.477276000 -121.933190000 -0.5

T 2017-11-26 21:07:59 37.477028000 -121.933075000 -1.4

T 2017-11-26 21:08:00 37.476776000 -121.932950000 -1.8

T 2017-11-26 21:08:01 37.476530000 -121.932830000 -2.1

T 2017-11-26 21:08:02 37.476273000 -121.932710000 -2.2

T 2017-11-26 21:08:03 37.476020000 -121.932590000 -2.9

T 2017-11-26 21:08:04 37.475770000 -121.932465000 -2.7

T 2017-11-26 21:08:05 37.475520000 -121.932335000 -2.6

T 2017-11-26 21:08:06 37.475273000 -121.932210000 -2.7

T 2017-11-26 21:08:07 37.475020000 -121.932080000 -2.9

T 2017-11-26 21:08:08 37.474770000 -121.931960000 -3.0

T 2017-11-26 21:08:09 37.474514000 -121.931850000 -1.9

T 2017-11-26 21:08:11 37.474020000 -121.931600000 -2.4

T 2017-11-26 21:08:12 37.473774000 -121.931470000 -2.8

T 2017-11-26 21:08:13 37.473522000 -121.931340000 -2.5

T 2017-11-26 21:08:14 37.473274000 -121.931220000 -2.3

T 2017-11-26 21:08:16 37.472767000 -121.930984000 -1.6

T 2017-11-26 21:08:17 37.472515000 -121.930870000 -2.9

T 2017-11-26 21:08:18 37.472260000 -121.930740000 -2.9

T 2017-11-26 21:08:19 37.472015000 -121.930620000 -2.9

T 2017-11-26 21:08:20 37.471764000 -121.930500000 -1.9

T 2017-11-26 21:08:21 37.471520000 -121.930360000 -1.9

T 2017-11-26 21:08:22 37.471268000 -121.930240000 -1.9

T 2017-11-26 21:08:23 37.471027000 -121.930100000 -4.6

T 2017-11-26 21:08:24 37.470783000 -121.929985000 -4.7

T 2017-11-26 21:08:26 37.470280000 -121.929750000 -4.7


T 2017-11-26 21:08:27 37.470036000 -121.929620000 -3.9

T 2017-11-26 21:08:28 37.469800000 -121.929500000 -4.4

T 2017-11-26 21:08:29 37.469547000 -121.929370000 -4.9

T 2017-11-26 21:08:30 37.469300000 -121.929245000 -5.0

T 2017-11-26 21:08:31 37.469048000 -121.929115000 -5.4

T 2017-11-26 21:08:32 37.468810000 -121.928980000 -5.4

T 2017-11-26 21:08:33 37.468563000 -121.928856000 -4.5

T 2017-11-26 21:08:34 37.468307000 -121.928750000 -4.5

T 2017-11-26 21:08:36 37.467800000 -121.928500000 -3.9

T 2017-11-26 21:08:37 37.467545000 -121.928380000 -4.2

T 2017-11-26 21:08:38 37.467293000 -121.928270000 -4.4

T 2017-11-26 21:08:39 37.467050000 -121.928150000 -3.7

T 2017-11-26 21:08:40 37.466800000 -121.928024000 -4.4

T 2017-11-26 21:08:41 37.466545000 -121.927910000 -3.3

T 2017-11-26 21:08:42 37.466290000 -121.927790000 -3.2

T 2017-11-26 21:08:43 37.466038000 -121.927666000 -3.4

T 2017-11-26 21:08:44 37.465790000 -121.927550000 3.4

T 2017-11-26 21:08:45 37.465538000 -121.927420000 1.6

T 2017-11-26 21:08:46 37.465290000 -121.927300000 0.4

T 2017-11-26 21:08:48 37.464794000 -121.927055000 0.0

T 2017-11-26 21:08:49 37.464542000 -121.926930000 -0.7

T 2017-11-26 21:08:50 37.464300000 -121.926800000 -1.5

T 2017-11-26 21:08:51 37.464050000 -121.926680000 -2.0

T 2017-11-26 21:08:52 37.463800000 -121.926560000 -2.0

T 2017-11-26 21:08:53 37.463547000 -121.926430000 -2.7

T 2017-11-26 21:08:54 37.463306000 -121.926290000 -2.7

T 2017-11-26 21:08:56 37.462820000 -121.926040000 -1.7

T 2017-11-26 21:08:57 37.462560000 -121.925930000 -2.1

T 2017-11-26 21:08:58 37.462303000 -121.925810000 -1.8

T 2017-11-26 21:08:59 37.462050000 -121.925690000 -1.8


T 2017-11-26 21:09:00 37.461810000 -121.925560000 -2.4

T 2017-11-26 21:09:01 37.461563000 -121.925430000 -1.6

T 2017-11-26 21:09:02 37.461315000 -121.925310000 -0.4

T 2017-11-26 21:09:03 37.461067000 -121.925180000 -0.1

T 2017-11-26 21:09:05 37.460567000 -121.924934000 -0.5

T 2017-11-26 21:09:06 37.460323000 -121.924810000 -1.2

T 2017-11-26 21:09:07 37.460080000 -121.924680000 -1.9

T 2017-11-26 21:09:08 37.459827000 -121.924560000 -2.4

T 2017-11-26 21:09:09 37.459570000 -121.924446000 -2.6

T 2017-11-26 21:09:10 37.459320000 -121.924320000 -2.7

T 2017-11-26 21:09:11 37.459070000 -121.924210000 -3.4

T 2017-11-26 21:09:12 37.458797000 -121.924126000 -1.6

T 2017-11-26 21:09:13 37.458540000 -121.924030000 -1.7

T 2017-11-26 21:09:14 37.458280000 -121.923950000 -2.3

T 2017-11-26 21:09:15 37.458020000 -121.923860000 -2.5

T 2017-11-26 21:09:16 37.457764000 -121.923775000 -2.6

T 2017-11-26 21:09:18 37.457237000 -121.923630000 -2.5

T 2017-11-26 21:09:19 37.456978000 -121.923570000 -2.7

T 2017-11-26 21:09:20 37.456710000 -121.923510000 -2.1

T 2017-11-26 21:09:21 37.456444000 -121.923450000 -1.5

T 2017-11-26 21:09:22 37.456190000 -121.923390000 -1.3

T 2017-11-26 21:09:23 37.455917000 -121.923330000 -1.2

T 2017-11-26 21:09:24 37.455654000 -121.923280000 -0.9

T 2017-11-26 21:09:25 37.455390000 -121.923225000 0.3

T 2017-11-26 21:09:27 37.454857000 -121.923120000 1.4

T 2017-11-26 21:09:28 37.454590000 -121.923070000 1.8

T 2017-11-26 21:09:29 37.454315000 -121.923020000 1.3

T 2017-11-26 21:09:30 37.454052000 -121.922970000 1.1

T 2017-11-26 21:09:31 37.453793000 -121.922910000 0.2


T 2017-11-26 21:09:32 37.453518000 -121.922860000 0.7

T 2017-11-26 21:09:33 37.453250000 -121.922810000 1.0

T 2017-11-26 21:09:34 37.452984000 -121.922760000 1.2

T 2017-11-26 21:09:35 37.452717000 -121.922710000 1.3

T 2017-11-26 21:09:36 37.452450000 -121.922660000 1.6

T 2017-11-26 21:09:37 37.452198000 -121.922590000 0.4

T 2017-11-26 21:09:38 37.451935000 -121.922540000 0.1

T 2017-11-26 21:09:40 37.451397000 -121.922430000 -0.2

T 2017-11-26 21:09:41 37.451134000 -121.922380000 -1.1

T 2017-11-26 21:09:42 37.450870000 -121.922325000 -0.7

T 2017-11-26 21:09:43 37.450607000 -121.922270000 -0.8

T 2017-11-26 21:09:44 37.450344000 -121.922220000 -0.8

T 2017-11-26 21:09:45 37.450077000 -121.922165000 -1.0

T 2017-11-26 21:09:46 37.449814000 -121.922130000 -0.8

T 2017-11-26 21:09:47 37.449547000 -121.922066000 -0.8

T 2017-11-26 21:09:48 37.449287000 -121.922005000 -1.2

T 2017-11-26 21:09:49 37.449024000 -121.921950000 -1.5

T 2017-11-26 21:09:50 37.448760000 -121.921900000 -1.4

T 2017-11-26 21:09:52 37.448227000 -121.921800000 -1.6

T 2017-11-26 21:09:53 37.447960000 -121.921750000 -1.3

T 2017-11-26 21:09:54 37.447697000 -121.921700000 -1.3

T 2017-11-26 21:09:55 37.447430000 -121.921660000 -1.2

T 2017-11-26 21:09:56 37.447163000 -121.921600000 -1.5

T 2017-11-26 21:09:57 37.446903000 -121.921540000 -2.2

T 2017-11-26 21:09:59 37.446377000 -121.921450000 -1.8

T 2017-11-26 21:10:00 37.446106000 -121.921400000 -2.0

T 2017-11-26 21:10:01 37.445835000 -121.921340000 -2.4

T 2017-11-26 21:10:02 37.445568000 -121.921290000 -2.6

T 2017-11-26 21:10:03 37.445310000 -121.921234000 -4.2

T 2017-11-26 21:10:04 37.445040000 -121.921180000 -4.1


T 2017-11-26 21:10:05 37.444782000 -121.921130000 -4.1

T 2017-11-26 21:10:06 37.444520000 -121.921074000 -4.0

T 2017-11-26 21:10:08 37.443993000 -121.920975000 -3.8

T 2017-11-26 21:10:09 37.443726000 -121.920920000 -3.8

T 2017-11-26 21:10:10 37.443462000 -121.920870000 -3.7

T 2017-11-26 21:10:11 37.443190000 -121.920815000 -3.4

T 2017-11-26 21:10:12 37.442930000 -121.920750000 -3.4

T 2017-11-26 21:10:14 37.442400000 -121.920650000 -3.5

T 2017-11-26 21:10:15 37.442140000 -121.920590000 -3.0

T 2017-11-26 21:10:16 37.441883000 -121.920540000 -2.3

T 2017-11-26 21:10:17 37.441620000 -121.920470000 -2.5

T 2017-11-26 21:10:18 37.441353000 -121.920425000 -2.6

T 2017-11-26 21:10:19 37.441090000 -121.920370000 -2.3

T 2017-11-26 21:10:20 37.440826000 -121.920330000 -2.1

T 2017-11-26 21:10:22 37.440300000 -121.920220000 -2.4

T 2017-11-26 21:10:23 37.440037000 -121.920166000 -2.3

T 2017-11-26 21:10:24 37.439774000 -121.920105000 -3.0

T 2017-11-26 21:10:25 37.439510000 -121.920050000 -3.4

T 2017-11-26 21:10:26 37.439240000 -121.920000000 -3.2

T 2017-11-26 21:10:27 37.438972000 -121.919950000 -3.2

T 2017-11-26 21:10:28 37.438700000 -121.919900000 -3.5

T 2017-11-26 21:10:29 37.438435000 -121.919850000 -3.6

T 2017-11-26 21:10:30 37.438168000 -121.919810000 -3.8

T 2017-11-26 21:10:31 37.437900000 -121.919770000 -4.0

T 2017-11-26 21:10:32 37.437637000 -121.919730000 -3.6

T 2017-11-26 21:10:33 37.437370000 -121.919680000 -3.7

T 2017-11-26 21:10:35 37.436836000 -121.919570000 -3.0

T 2017-11-26 21:10:36 37.436573000 -121.919510000 -2.2

T 2017-11-26 21:10:37 37.436310000 -121.919464000 -2.0


T 2017-11-26 21:10:38 37.436043000 -121.919420000 -2.1

T 2017-11-26 21:10:39 37.435776000 -121.919380000 -1.8

T 2017-11-26 21:10:40 37.435513000 -121.919340000 -1.4

T 2017-11-26 21:10:41 37.435250000 -121.919310000 -1.0

T 2017-11-26 21:10:43 37.434723000 -121.919240000 -0.9

T 2017-11-26 21:10:44 37.434460000 -121.919220000 -0.9

T 2017-11-26 21:10:45 37.434193000 -121.919190000 -1.0

T 2017-11-26 21:10:46 37.433930000 -121.919170000 -0.7

T 2017-11-26 21:10:47 37.433662000 -121.919136000 -0.5

T 2017-11-26 21:10:49 37.433125000 -121.919075000 0.6

T 2017-11-26 21:10:50 37.432854000 -121.919044000 0.8

T 2017-11-26 21:10:51 37.432583000 -121.919000000 1.1

T 2017-11-26 21:10:52 37.432316000 -121.918950000 0.8

T 2017-11-26 21:10:53 37.432040000 -121.918910000 0.7

T 2017-11-26 21:10:54 37.431780000 -121.918850000 1.0

T 2017-11-26 21:10:55 37.431515000 -121.918800000 0.5

T 2017-11-26 21:10:56 37.431248000 -121.918755000 0.5

T 2017-11-26 21:10:57 37.430992000 -121.918690000 -0.6

T 2017-11-26 21:10:58 37.430725000 -121.918640000 -0.3

T 2017-11-26 21:11:00 37.430206000 -121.918495000 -1.2

T 2017-11-26 21:11:01 37.429947000 -121.918420000 -1.1

T 2017-11-26 21:11:02 37.429688000 -121.918340000 -0.7

T 2017-11-26 21:11:03 37.429436000 -121.918250000 0.1

T 2017-11-26 21:11:04 37.429184000 -121.918160000 0.7

T 2017-11-26 21:11:05 37.428955000 -121.918060000 1.7

T 2017-11-26 21:11:06 37.428740000 -121.917970000 2.2

T 2017-11-26 21:11:07 37.428524000 -121.917880000 2.7

T 2017-11-26 21:11:08 37.428337000 -121.917786000 2.2

T 2017-11-26 21:11:09 37.428140000 -121.917694000 2.4

T 2017-11-26 21:11:10 37.427980000 -121.917650000 3.9


T 2017-11-26 21:11:11 37.427790000 -121.917580000 4.9

T 2017-11-26 21:11:13 37.427430000 -121.917530000 5.7

T 2017-11-26 21:11:14 37.427235000 -121.917534000 5.7

T 2017-11-26 21:11:15 37.427040000 -121.917540000 5.9

T 2017-11-26 21:11:16 37.426853000 -121.917570000 5.9

T 2017-11-26 21:11:17 37.426662000 -121.917610000 6.2

T 2017-11-26 21:11:18 37.426476000 -121.917670000 6.6

T 2017-11-26 21:11:19 37.426285000 -121.917740000 6.4

T 2017-11-26 21:11:20 37.426100000 -121.917830000 6.1

T 2017-11-26 21:11:21 37.425920000 -121.917920000 6.9

T 2017-11-26 21:11:22 37.425740000 -121.918060000 6.2

T 2017-11-26 21:11:24 37.425400000 -121.918365000 5.6

T 2017-11-26 21:11:25 37.425230000 -121.918550000 5.4

T 2017-11-26 21:11:26 37.425076000 -121.918750000 4.7

T 2017-11-26 21:11:27 37.424920000 -121.918970000 4.9

T 2017-11-26 21:11:28 37.424780000 -121.919205000 3.3

T 2017-11-26 21:11:29 37.424652000 -121.919460000 3.1

T 2017-11-26 21:11:30 37.424538000 -121.919740000 2.3

T 2017-11-26 21:11:31 37.424423000 -121.920030000 2.1

T 2017-11-26 21:11:32 37.424320000 -121.920320000 2.0

T 2017-11-26 21:11:33 37.424217000 -121.920590000 0.9

T 2017-11-26 21:11:34 37.424114000 -121.920890000 0.9

T 2017-11-26 21:11:36 37.423950000 -121.921490000 -0.1

T 2017-11-26 21:11:37 37.423870000 -121.921800000 -0.8

T 2017-11-26 21:11:38 37.423794000 -121.922104000 -1.1

T 2017-11-26 21:11:39 37.423717000 -121.922400000 -1.4

T 2017-11-26 21:11:40 37.423640000 -121.922700000 -1.9

T 2017-11-26 21:11:41 37.423560000 -121.922980000 -1.4

T 2017-11-26 21:11:42 37.423470000 -121.923270000 -1.0


T 2017-11-26 21:11:43 37.423378000 -121.923540000 -0.4

T 2017-11-26 21:11:44 37.423294000 -121.923810000 -0.8

T 2017-11-26 21:11:46 37.423134000 -121.924360000 -0.7

T 2017-11-26 21:11:47 37.423065000 -121.924640000 -0.2

T 2017-11-26 21:11:48 37.423000000 -121.924930000 -0.8

T 2017-11-26 21:11:49 37.422930000 -121.925220000 -0.6

T 2017-11-26 21:11:50 37.422867000 -121.925514000 -0.4

T 2017-11-26 21:11:51 37.422802000 -121.925804000 -0.8

T 2017-11-26 21:11:52 37.422756000 -121.926100000 -0.4

T 2017-11-26 21:11:53 37.422720000 -121.926420000 0.1

T 2017-11-26 21:11:54 37.422690000 -121.926735000 0.5

T 2017-11-26 21:11:55 37.422665000 -121.927040000 0.3

T 2017-11-26 21:11:57 37.422604000 -121.927670000 0.6

T 2017-11-26 21:11:58 37.422573000 -121.928000000 0.5

T 2017-11-26 21:11:59 37.422543000 -121.928330000 0.1

T 2017-11-26 21:12:00 37.422520000 -121.928650000 -0.6

T 2017-11-26 21:12:01 37.422485000 -121.928986000 -0.5

T 2017-11-26 21:12:02 37.422443000 -121.929330000 -0.7

T 2017-11-26 21:12:03 37.422400000 -121.929670000 -0.8

T 2017-11-26 21:12:04 37.422360000 -121.930016000 -0.7

T 2017-11-26 21:12:05 37.422318000 -121.930370000 -0.4

T 2017-11-26 21:12:06 37.422276000 -121.930720000 -0.8

T 2017-11-26 21:12:08 37.422160000 -121.931435000 -1.2

T 2017-11-26 21:12:10 37.422030000 -121.932160000 -1.6

T 2017-11-26 21:12:11 37.421963000 -121.932520000 -1.6

T 2017-11-26 21:12:12 37.421894000 -121.932880000 -1.8

T 2017-11-26 21:12:13 37.421810000 -121.933240000 -2.2

T 2017-11-26 21:12:14 37.421734000 -121.933600000 -2.5

T 2017-11-26 21:12:15 37.421646000 -121.933970000 -2.2

T 2017-11-26 21:12:16 37.421570000 -121.934320000 -2.5


T 2017-11-26 21:12:17 37.421490000 -121.934670000 -2.7

T 2017-11-26 21:12:18 37.421410000 -121.935010000 -2.7

T 2017-11-26 21:12:19 37.421333000 -121.935356000 -2.8

T 2017-11-26 21:12:20 37.421253000 -121.935710000 -2.8

T 2017-11-26 21:12:21 37.421170000 -121.936060000 -2.8

T 2017-11-26 21:12:23 37.421010000 -121.936770000 -2.7

T 2017-11-26 21:12:24 37.420930000 -121.937110000 -2.6

T 2017-11-26 21:12:25 37.420850000 -121.937460000 -2.4

T 2017-11-26 21:12:26 37.420770000 -121.937805000 -2.0

T 2017-11-26 21:12:27 37.420692000 -121.938156000 -2.7

T 2017-11-26 21:12:28 37.420616000 -121.938490000 -2.6

T 2017-11-26 21:12:29 37.420536000 -121.938830000 -2.3

T 2017-11-26 21:12:30 37.420460000 -121.939170000 -2.4

T 2017-11-26 21:12:31 37.420383000 -121.939514000 -2.3

T 2017-11-26 21:12:32 37.420303000 -121.939860000 -2.1

T 2017-11-26 21:12:33 37.420223000 -121.940210000 -2.0

T 2017-11-26 21:12:35 37.420067000 -121.940900000 -3.0

T 2017-11-26 21:12:36 37.419987000 -121.941250000 -3.2

T 2017-11-26 21:12:37 37.419910000 -121.941600000 -2.9

T 2017-11-26 21:12:38 37.419827000 -121.941930000 -2.3

T 2017-11-26 21:12:39 37.419750000 -121.942270000 -2.1

T 2017-11-26 21:12:40 37.419680000 -121.942604000 -3.0

T 2017-11-26 21:12:41 37.419613000 -121.942924000 -3.7

T 2017-11-26 21:12:42 37.419537000 -121.943250000 -2.9

T 2017-11-26 21:12:43 37.419483000 -121.943570000 -3.8

T 2017-11-26 21:12:44 37.419420000 -121.943890000 -3.8

T 2017-11-26 21:12:45 37.419407000 -121.944214000 -4.3

T 2017-11-26 21:12:46 37.419400000 -121.944550000 -4.6

T 2017-11-26 21:12:48 37.419400000 -121.945220000 -3.7


T 2017-11-26 21:12:49 37.419400000 -121.945550000 -3.4

T 2017-11-26 21:12:50 37.419395000 -121.945885000 -3.2

T 2017-11-26 21:12:51 37.419395000 -121.946220000 -2.0

T 2017-11-26 21:12:52 37.419403000 -121.946550000 -2.3

T 2017-11-26 21:12:53 37.419403000 -121.946884000 -2.1

T 2017-11-26 21:12:54 37.419403000 -121.947220000 -2.2

T 2017-11-26 21:12:55 37.419403000 -121.947556000 -2.1

T 2017-11-26 21:12:57 37.419403000 -121.948220000 -1.8

T 2017-11-26 21:12:58 37.419403000 -121.948550000 -1.3

T 2017-11-26 21:12:59 37.419403000 -121.948875000 -0.8

T 2017-11-26 21:13:00 37.419395000 -121.949196000 -0.3

T 2017-11-26 21:13:01 37.419400000 -121.949520000 -0.5

T 2017-11-26 21:13:02 37.419400000 -121.949830000 -0.2

T 2017-11-26 21:13:03 37.419400000 -121.950160000 -0.4

T 2017-11-26 21:13:05 37.419390000 -121.950800000 0.2

T 2017-11-26 21:13:06 37.419390000 -121.951120000 0.0

T 2017-11-26 21:13:07 37.419395000 -121.951450000 0.7

T 2017-11-26 21:13:08 37.419395000 -121.951780000 1.4

T 2017-11-26 21:13:09 37.419400000 -121.952110000 0.9

T 2017-11-26 21:13:10 37.419400000 -121.952446000 0.9

T 2017-11-26 21:13:11 37.419407000 -121.952774000 2.0

T 2017-11-26 21:13:12 37.419403000 -121.953100000 2.5

T 2017-11-26 21:13:14 37.419395000 -121.953750000 3.1

T 2017-11-26 21:13:15 37.419395000 -121.954070000 2.9

T 2017-11-26 21:13:16 37.419395000 -121.954400000 3.2

T 2017-11-26 21:13:17 37.419403000 -121.954735000 3.5

T 2017-11-26 21:13:18 37.419403000 -121.955070000 3.5

T 2017-11-26 21:13:19 37.419403000 -121.955410000 4.0

T 2017-11-26 21:13:20 37.419410000 -121.955750000 4.1

T 2017-11-26 21:13:21 37.419407000 -121.956100000 4.0


T 2017-11-26 21:13:22 37.419407000 -121.956436000 4.3

T 2017-11-26 21:13:23 37.419410000 -121.956780000 2.9

T 2017-11-26 21:13:25 37.419400000 -121.957480000 3.6

T 2017-11-26 21:13:26 37.419384000 -121.957830000 3.9

T 2017-11-26 21:13:27 37.419365000 -121.958190000 4.1

T 2017-11-26 21:13:28 37.419342000 -121.958540000 4.2

T 2017-11-26 21:13:29 37.419320000 -121.958900000 4.3

T 2017-11-26 21:13:30 37.419300000 -121.959260000 4.4

T 2017-11-26 21:13:31 37.419300000 -121.959610000 5.4

T 2017-11-26 21:13:32 37.419277000 -121.959950000 5.4

T 2017-11-26 21:13:33 37.419247000 -121.960300000 5.2

T 2017-11-26 21:13:35 37.419216000 -121.961006000 5.2

T 2017-11-26 21:13:36 37.419193000 -121.961365000 5.3

T 2017-11-26 21:13:37 37.419178000 -121.961720000 5.0

T 2017-11-26 21:13:38 37.419160000 -121.962080000 5.3

T 2017-11-26 21:13:39 37.419147000 -121.962450000 5.0

T 2017-11-26 21:13:40 37.419130000 -121.962814000 6.5

T 2017-11-26 21:13:41 37.419117000 -121.963165000 6.7

T 2017-11-26 21:13:42 37.419100000 -121.963520000 7.3

T 2017-11-26 21:13:43 37.419098000 -121.963870000 7.6

T 2017-11-26 21:13:44 37.419086000 -121.964220000 7.9

T 2017-11-26 21:13:46 37.419056000 -121.964935000 6.0

T 2017-11-26 21:13:48 37.419033000 -121.965650000 8.6

T 2017-11-26 21:13:49 37.419025000 -121.966000000 9.1

T 2017-11-26 21:13:50 37.419014000 -121.966350000 9.2

T 2017-11-26 21:13:51 37.419003000 -121.966700000 9.4

T 2017-11-26 21:13:52 37.418990000 -121.967050000 9.2

T 2017-11-26 21:13:53 37.418980000 -121.967384000 9.1

T 2017-11-26 21:13:54 37.418972000 -121.967730000 9.2


T 2017-11-26 21:13:55 37.418957000 -121.968070000 9.1

T 2017-11-26 21:13:56 37.418940000 -121.968414000 8.7

T 2017-11-26 21:13:57 37.418926000 -121.968760000 8.7

T 2017-11-26 21:13:58 37.418910000 -121.969110000 8.8

T 2017-11-26 21:13:59 37.418865000 -121.969440000 7.0

T 2017-11-26 21:14:01 37.418770000 -121.970116000 7.5

T 2017-11-26 21:14:02 37.418690000 -121.970440000 6.4

T 2017-11-26 21:14:03 37.418606000 -121.970770000 5.7

T 2017-11-26 21:14:04 37.418514000 -121.971100000 7.3

T 2017-11-26 21:14:05 37.418407000 -121.971420000 7.2

T 2017-11-26 21:14:06 37.418300000 -121.971740000 7.1

T 2017-11-26 21:14:08 37.418050000 -121.972374000 7.4

T 2017-11-26 21:14:09 37.417915000 -121.972690000 7.9

T 2017-11-26 21:14:10 37.417786000 -121.972990000 8.5

T 2017-11-26 21:14:11 37.417660000 -121.973290000 7.2

T 2017-11-26 21:14:12 37.417534000 -121.973595000 6.6

T 2017-11-26 21:14:13 37.417404000 -121.973890000 7.9

T 2017-11-26 21:14:14 37.417280000 -121.974190000 8.3

T 2017-11-26 21:14:16 37.417030000 -121.974770000 8.3

T 2017-11-26 21:14:17 37.416904000 -121.975060000 8.1

T 2017-11-26 21:14:18 37.416775000 -121.975350000 7.6

T 2017-11-26 21:14:19 37.416650000 -121.975640000 7.6

T 2017-11-26 21:14:20 37.416527000 -121.975930000 6.4

T 2017-11-26 21:14:21 37.416400000 -121.976230000 6.4

T 2017-11-26 21:14:22 37.416283000 -121.976524000 5.3

T 2017-11-26 21:14:23 37.416160000 -121.976820000 5.1

T 2017-11-26 21:14:24 37.416035000 -121.977120000 4.6

T 2017-11-26 21:14:26 37.415783000 -121.977730000 5.0

T 2017-11-26 21:14:27 37.415653000 -121.978030000 4.6

T 2017-11-26 21:14:28 37.415524000 -121.978325000 4.5


T 2017-11-26 21:14:29 37.415390000 -121.978630000 3.8

T 2017-11-26 21:14:30 37.415264000 -121.978935000 3.3

T 2017-11-26 21:14:31 37.415134000 -121.979256000 2.1

T 2017-11-26 21:14:32 37.415005000 -121.979560000 1.8

T 2017-11-26 21:14:33 37.414870000 -121.979866000 1.3

T 2017-11-26 21:14:34 37.414740000 -121.980180000 1.8

T 2017-11-26 21:14:35 37.414610000 -121.980484000 1.8

T 2017-11-26 21:14:36 37.414482000 -121.980790000 1.4

T 2017-11-26 21:14:38 37.414215000 -121.981415000 2.3

T 2017-11-26 21:14:39 37.414080000 -121.981730000 2.1

T 2017-11-26 21:14:40 37.413950000 -121.982030000 1.9

T 2017-11-26 21:14:41 37.413822000 -121.982346000 2.6

T 2017-11-26 21:14:42 37.413692000 -121.982640000 2.2

T 2017-11-26 21:14:43 37.413570000 -121.982940000 1.6

T 2017-11-26 21:14:44 37.413437000 -121.983246000 1.0

T 2017-11-26 21:14:45 37.413307000 -121.983560000 1.2

T 2017-11-26 21:14:46 37.413174000 -121.983864000 1.9

T 2017-11-26 21:14:48 37.412907000 -121.984480000 2.3

T 2017-11-26 21:14:49 37.412777000 -121.984790000 2.5

T 2017-11-26 21:14:50 37.412650000 -121.985090000 2.2

T 2017-11-26 21:14:51 37.412520000 -121.985400000 1.9

T 2017-11-26 21:14:52 37.412400000 -121.985710000 1.8

T 2017-11-26 21:14:53 37.412280000 -121.986020000 2.0

T 2017-11-26 21:14:54 37.412170000 -121.986336000 2.1

T 2017-11-26 21:14:55 37.412067000 -121.986664000 1.5

T 2017-11-26 21:14:56 37.411970000 -121.986984000 0.5

T 2017-11-26 21:14:57 37.411873000 -121.987310000 1.4

T 2017-11-26 21:14:59 37.411674000 -121.987970000 -0.4

T 2017-11-26 21:15:00 37.411583000 -121.988304000 -0.7


T 2017-11-26 21:15:01 37.411490000 -121.988640000 -1.2

T 2017-11-26 21:15:02 37.411407000 -121.988970000 -1.7

T 2017-11-26 21:15:03 37.411327000 -121.989300000 -2.0

T 2017-11-26 21:15:04 37.411247000 -121.989640000 -2.5

T 2017-11-26 21:15:05 37.411170000 -121.989970000 -2.8

T 2017-11-26 21:15:06 37.411095000 -121.990300000 -2.6

T 2017-11-26 21:15:07 37.411022000 -121.990630000 -2.4

T 2017-11-26 21:15:08 37.410954000 -121.990974000 -2.1

T 2017-11-26 21:15:10 37.410805000 -121.991640000 -1.8

T 2017-11-26 21:15:11 37.410736000 -121.991970000 -2.4

T 2017-11-26 21:15:12 37.410664000 -121.992300000 -2.4

T 2017-11-26 21:15:13 37.410595000 -121.992640000 -1.9

T 2017-11-26 21:15:14 37.410522000 -121.992970000 -2.1

T 2017-11-26 21:15:15 37.410450000 -121.993300000 -1.8

T 2017-11-26 21:15:16 37.410378000 -121.993645000 -1.9

T 2017-11-26 21:15:17 37.410305000 -121.993970000 -1.7

T 2017-11-26 21:15:18 37.410236000 -121.994310000 -1.6

T 2017-11-26 21:15:19 37.410164000 -121.994644000 -1.5

T 2017-11-26 21:15:21 37.410020000 -121.995316000 -1.2

T 2017-11-26 21:15:22 37.409943000 -121.995650000 -1.2

T 2017-11-26 21:15:23 37.409870000 -121.995990000 -1.0

T 2017-11-26 21:15:24 37.409798000 -121.996320000 -1.0

T 2017-11-26 21:15:25 37.409725000 -121.996660000 -1.1

T 2017-11-26 21:15:26 37.409653000 -121.996994000 -1.0

T 2017-11-26 21:15:27 37.409580000 -121.997330000 -0.9

T 2017-11-26 21:15:28 37.409508000 -121.997665000 -0.4

T 2017-11-26 21:15:29 37.409435000 -121.998000000 -0.4

T 2017-11-26 21:15:31 37.409286000 -121.998670000 -0.1

T 2017-11-26 21:15:32 37.409214000 -121.999016000 -0.2

T 2017-11-26 21:15:33 37.409138000 -121.999350000 -0.1


T 2017-11-26 21:15:34 37.409065000 -121.999690000 0.6

T 2017-11-26 21:15:35 37.408993000 -122.000020000 0.9

T 2017-11-26 21:15:36 37.408924000 -122.000360000 0.9

T 2017-11-26 21:15:37 37.408850000 -122.000694000 0.9

T 2017-11-26 21:15:38 37.408780000 -122.001020000 0.9

T 2017-11-26 21:15:39 37.408700000 -122.001360000 1.0

T 2017-11-26 21:15:40 37.408627000 -122.001700000 1.4

T 2017-11-26 21:15:41 37.408554000 -122.002040000 1.5

T 2017-11-26 21:15:42 37.408478000 -122.002365000 1.9

T 2017-11-26 21:15:44 37.408330000 -122.003044000 2.3

T 2017-11-26 21:15:45 37.408260000 -122.003380000 2.1

T 2017-11-26 21:15:46 37.408188000 -122.003716000 1.8

T 2017-11-26 21:15:47 37.408120000 -122.004050000 1.6

T 2017-11-26 21:15:48 37.408050000 -122.004390000 1.4

T 2017-11-26 21:15:49 37.407974000 -122.004720000 1.9

T 2017-11-26 21:15:50 37.407900000 -122.005060000 2.5

T 2017-11-26 21:15:51 37.407830000 -122.005390000 2.7

T 2017-11-26 21:15:52 37.407753000 -122.005720000 2.7

T 2017-11-26 21:15:53 37.407680000 -122.006060000 3.1

T 2017-11-26 21:15:54 37.407604000 -122.006390000 3.3

T 2017-11-26 21:15:56 37.407460000 -122.007060000 2.7

T 2017-11-26 21:15:57 37.407383000 -122.007390000 2.8

T 2017-11-26 21:15:58 37.407307000 -122.007740000 2.5

T 2017-11-26 21:15:59 37.407230000 -122.008070000 2.3

T 2017-11-26 21:16:00 37.407154000 -122.008410000 1.7

T 2017-11-26 21:16:01 37.407080000 -122.008750000 1.5

T 2017-11-26 21:16:02 37.407000000 -122.009090000 1.6

T 2017-11-26 21:16:03 37.406925000 -122.009415000 1.2

T 2017-11-26 21:16:04 37.406853000 -122.009740000 1.1


T 2017-11-26 21:16:05 37.406784000 -122.010070000 1.1

T 2017-11-26 21:16:07 37.406628000 -122.010740000 1.1

T 2017-11-26 21:16:08 37.406555000 -122.011080000 1.2

T 2017-11-26 21:16:09 37.406475000 -122.011410000 1.3

T 2017-11-26 21:16:10 37.406387000 -122.011750000 2.3

T 2017-11-26 21:16:11 37.406307000 -122.012080000 2.6

T 2017-11-26 21:16:12 37.406235000 -122.012410000 2.2

T 2017-11-26 21:16:13 37.406170000 -122.012740000 0.3

T 2017-11-26 21:16:14 37.406094000 -122.013080000 0.3

T 2017-11-26 21:16:15 37.406017000 -122.013410000 0.6

T 2017-11-26 21:16:16 37.405937000 -122.013750000 0.8

T 2017-11-26 21:16:17 37.405860000 -122.014080000 0.5

T 2017-11-26 21:16:18 37.405780000 -122.014410000 0.4

T 2017-11-26 21:16:20 37.405630000 -122.015080000 1.1

T 2017-11-26 21:16:21 37.405552000 -122.015420000 1.0

T 2017-11-26 21:16:22 37.405476000 -122.015755000 1.5

T 2017-11-26 21:16:23 37.405396000 -122.016090000 1.2

T 2017-11-26 21:16:24 37.405320000 -122.016426000 1.8

T 2017-11-26 21:16:25 37.405247000 -122.016770000 2.2

T 2017-11-26 21:16:26 37.405174000 -122.017105000 2.2

T 2017-11-26 21:16:27 37.405094000 -122.017440000 2.3

T 2017-11-26 21:16:28 37.405020000 -122.017770000 2.3

T 2017-11-26 21:16:29 37.404950000 -122.018105000 2.6

T 2017-11-26 21:16:30 37.404877000 -122.018440000 2.6

T 2017-11-26 21:16:32 37.404728000 -122.019110000 2.5

T 2017-11-26 21:16:33 37.404650000 -122.019440000 1.5

T 2017-11-26 21:16:34 37.404580000 -122.019775000 1.3

T 2017-11-26 21:16:35 37.404503000 -122.020100000 1.6

T 2017-11-26 21:16:36 37.404423000 -122.020440000 1.7

T 2017-11-26 21:16:37 37.404343000 -122.020775000 1.0


T 2017-11-26 21:16:38 37.404266000 -122.021110000 1.0

T 2017-11-26 21:16:40 37.404114000 -122.021780000 0.3

T 2017-11-26 21:16:41 37.404030000 -122.022110000 0.2

T 2017-11-26 21:16:42 37.403957000 -122.022446000 0.8

T 2017-11-26 21:16:43 37.403890000 -122.022780000 0.5

T 2017-11-26 21:16:44 37.403820000 -122.023125000 0.6

T 2017-11-26 21:16:46 37.403700000 -122.023796000 1.6

T 2017-11-26 21:16:47 37.403650000 -122.024140000 2.2

T 2017-11-26 21:16:48 37.403590000 -122.024475000 3.0

T 2017-11-26 21:16:49 37.403538000 -122.024810000 4.2

T 2017-11-26 21:16:50 37.403480000 -122.025150000 5.4

T 2017-11-26 21:16:51 37.403430000 -122.025480000 5.7

T 2017-11-26 21:16:52 37.403374000 -122.025820000 5.6

T 2017-11-26 21:16:53 37.403320000 -122.026150000 5.7

T 2017-11-26 21:16:54 37.403260000 -122.026500000 6.2

T 2017-11-26 21:16:55 37.403194000 -122.026840000 6.4

T 2017-11-26 21:16:56 37.403120000 -122.027180000 6.1

T 2017-11-26 21:16:57 37.403046000 -122.027530000 5.9

T 2017-11-26 21:16:58 37.402960000 -122.027860000 4.8

T 2017-11-26 21:17:00 37.402794000 -122.028550000 1.5

T 2017-11-26 21:17:01 37.402710000 -122.028885000 0.5

T 2017-11-26 21:17:02 37.402630000 -122.029220000 -0.2

T 2017-11-26 21:17:03 37.402550000 -122.029560000 -0.3

T 2017-11-26 21:17:04 37.402466000 -122.029884000 0.1

T 2017-11-26 21:17:05 37.402380000 -122.030210000 0.2

T 2017-11-26 21:17:06 37.402298000 -122.030540000 0.6

T 2017-11-26 21:17:07 37.402214000 -122.030870000 0.8

T 2017-11-26 21:17:09 37.402054000 -122.031525000 1.2

T 2017-11-26 21:17:10 37.401970000 -122.031850000 1.3


T 2017-11-26 21:17:12 37.401802000 -122.032520000 2.3

T 2017-11-26 21:17:13 37.401710000 -122.032840000 2.5

T 2017-11-26 21:17:14 37.401620000 -122.033165000 1.7

T 2017-11-26 21:17:15 37.401516000 -122.033485000 3.4

T 2017-11-26 21:17:16 37.401417000 -122.033806000 4.9

T 2017-11-26 21:17:17 37.401314000 -122.034120000 6.1

T 2017-11-26 21:17:18 37.401207000 -122.034430000 6.8

T 2017-11-26 21:17:19 37.401093000 -122.034744000 7.2

T 2017-11-26 21:17:20 37.400970000 -122.035060000 8.0

T 2017-11-26 21:17:21 37.400852000 -122.035370000 8.3

T 2017-11-26 21:17:22 37.400723000 -122.035680000 8.4

T 2017-11-26 21:17:23 37.400590000 -122.035995000 8.7

T 2017-11-26 21:17:25 37.400307000 -122.036606000 8.7

T 2017-11-26 21:17:26 37.400158000 -122.036900000 7.4

T 2017-11-26 21:17:27 37.400000000 -122.037200000 6.5

T 2017-11-26 21:17:28 37.399845000 -122.037500000 5.4

T 2017-11-26 21:17:29 37.399690000 -122.037796000 4.1

T 2017-11-26 21:17:30 37.399530000 -122.038090000 3.4

T 2017-11-26 21:17:31 37.399376000 -122.038390000 2.8

T 2017-11-26 21:17:32 37.399227000 -122.038680000 2.6

T 2017-11-26 21:17:33 37.399082000 -122.038970000 3.0

T 2017-11-26 21:17:34 37.398933000 -122.039260000 2.7

T 2017-11-26 21:17:36 37.398632000 -122.039830000 3.3

T 2017-11-26 21:17:37 37.398495000 -122.040115000 5.2

T 2017-11-26 21:17:38 37.398342000 -122.040400000 5.1

T 2017-11-26 21:17:39 37.398197000 -122.040690000 5.4

T 2017-11-26 21:17:40 37.398050000 -122.040980000 6.2

T 2017-11-26 21:17:41 37.397896000 -122.041270000 6.2

T 2017-11-26 21:17:42 37.397743000 -122.041560000 6.2

T 2017-11-26 21:17:43 37.397594000 -122.041850000 6.3


T 2017-11-26 21:17:44 37.397440000 -122.042145000 6.4

T 2017-11-26 21:17:45 37.397290000 -122.042440000 6.5

T 2017-11-26 21:17:47 37.396957000 -122.043040000 6.0

T 2017-11-26 21:17:48 37.396840000 -122.043330000 6.6

T 2017-11-26 21:17:49 37.396690000 -122.043610000 6.9

T 2017-11-26 21:17:50 37.396540000 -122.043910000 7.3

T 2017-11-26 21:17:51 37.396390000 -122.044190000 8.3

T 2017-11-26 21:17:52 37.396240000 -122.044480000 8.3

T 2017-11-26 21:17:53 37.396084000 -122.044754000 10.1

T 2017-11-26 21:17:54 37.395924000 -122.045030000 11.0

T 2017-11-26 21:17:55 37.395763000 -122.045300000 11.5

T 2017-11-26 21:17:57 37.395420000 -122.045850000 14.3

T 2017-11-26 21:17:58 37.395245000 -122.046120000 14.8

T 2017-11-26 21:17:59 37.395054000 -122.046380000 16.0

T 2017-11-26 21:18:00 37.394870000 -122.046646000 16.5

T 2017-11-26 21:18:01 37.394680000 -122.046906000 18.0

T 2017-11-26 21:18:02 37.394493000 -122.047170000 18.0

T 2017-11-26 21:18:03 37.394310000 -122.047440000 18.0

T 2017-11-26 21:18:04 37.394123000 -122.047700000 18.4

T 2017-11-26 21:18:05 37.393936000 -122.047966000 18.8

T 2017-11-26 21:18:06 37.393750000 -122.048225000 18.4

T 2017-11-26 21:18:08 37.393375000 -122.048760000 19.1

T 2017-11-26 21:18:09 37.393192000 -122.049020000 19.3

T 2017-11-26 21:18:10 37.393010000 -122.049286000 19.3

T 2017-11-26 21:18:11 37.392826000 -122.049560000 19.5

T 2017-11-26 21:18:12 37.392643000 -122.049830000 20.1

T 2017-11-26 21:18:13 37.392467000 -122.050095000 20.8

T 2017-11-26 21:18:14 37.392292000 -122.050370000 20.9

T 2017-11-26 21:18:15 37.392117000 -122.050644000 20.7


T 2017-11-26 21:18:16 37.391945000 -122.050920000 20.4

T 2017-11-26 21:18:18 37.391594000 -122.051450000 20.1

T 2017-11-26 21:18:19 37.391422000 -122.051730000 19.6

T 2017-11-26 21:18:20 37.391254000 -122.051994000 19.3

T 2017-11-26 21:18:21 37.391083000 -122.052250000 19.7

T 2017-11-26 21:18:22 37.390920000 -122.052510000 20.1

T 2017-11-26 21:18:23 37.390755000 -122.052765000 20.0

T 2017-11-26 21:18:24 37.390590000 -122.053024000 20.1

T 2017-11-26 21:18:25 37.390453000 -122.053280000 20.1

T 2017-11-26 21:18:26 37.390305000 -122.053540000 20.2

T 2017-11-26 21:18:27 37.390160000 -122.053790000 19.1

T 2017-11-26 21:18:28 37.390010000 -122.054020000 19.1

T 2017-11-26 21:18:29 37.389862000 -122.054260000 19.2

T 2017-11-26 21:18:31 37.389570000 -122.054720000 20.6

T 2017-11-26 21:18:32 37.389423000 -122.054940000 21.6

T 2017-11-26 21:18:33 37.389280000 -122.055160000 22.4

T 2017-11-26 21:18:34 37.389137000 -122.055374000 22.9

T 2017-11-26 21:18:35 37.389000000 -122.055590000 23.9

T 2017-11-26 21:18:36 37.388863000 -122.055800000 24.7

T 2017-11-26 21:18:37 37.388730000 -122.056015000 25.7

T 2017-11-26 21:18:38 37.388590000 -122.056230000 26.2

T 2017-11-26 21:18:39 37.388450000 -122.056440000 26.9

T 2017-11-26 21:18:40 37.388313000 -122.056656000 27.8

T 2017-11-26 21:18:41 37.388172000 -122.056870000 28.3

T 2017-11-26 21:18:42 37.388030000 -122.057080000 28.6

T 2017-11-26 21:18:44 37.387760000 -122.057510000 29.3

T 2017-11-26 21:18:46 37.387480000 -122.057945000 29.9

T 2017-11-26 21:18:47 37.387344000 -122.058136000 29.4

T 2017-11-26 21:18:48 37.387210000 -122.058340000 29.0

T 2017-11-26 21:18:49 37.387093000 -122.058556000 28.2


T 2017-11-26 21:18:50 37.386967000 -122.058754000 27.8

T 2017-11-26 21:18:51 37.386837000 -122.058960000 27.9

T 2017-11-26 21:18:52 37.386720000 -122.059170000 27.4

T 2017-11-26 21:18:53 37.386604000 -122.059400000 27.8

T 2017-11-26 21:18:55 37.386402000 -122.059890000 26.5

T 2017-11-26 21:18:56 37.386307000 -122.060150000 27.9

T 2017-11-26 21:18:57 37.386234000 -122.060400000 26.7

T 2017-11-26 21:18:58 37.386170000 -122.060660000 25.7

T 2017-11-26 21:18:59 37.386120000 -122.060910000 25.2

T 2017-11-26 21:19:00 37.386078000 -122.061170000 24.8

T 2017-11-26 21:19:01 37.386055000 -122.061424000 24.6

T 2017-11-26 21:19:02 37.386040000 -122.061680000 24.0

T 2017-11-26 21:19:03 37.386030000 -122.061935000 24.8

T 2017-11-26 21:19:04 37.386017000 -122.062190000 25.1

T 2017-11-26 21:19:06 37.385998000 -122.062690000 24.4

T 2017-11-26 21:19:07 37.385986000 -122.062935000 24.5

T 2017-11-26 21:19:08 37.385983000 -122.063190000 24.3

T 2017-11-26 21:19:09 37.385967000 -122.063446000 23.8

T 2017-11-26 21:19:10 37.385952000 -122.063705000 23.7

T 2017-11-26 21:19:11 37.385930000 -122.063970000 23.0

T 2017-11-26 21:19:12 37.385900000 -122.064240000 22.1

T 2017-11-26 21:19:13 37.385857000 -122.064514000 21.9

T 2017-11-26 21:19:14 37.385815000 -122.064790000 21.8

T 2017-11-26 21:19:15 37.385760000 -122.065060000 21.5

T 2017-11-26 21:19:17 37.385628000 -122.065580000 21.5

T 2017-11-26 21:19:18 37.385544000 -122.065834000 21.8

T 2017-11-26 21:19:19 37.385456000 -122.066070000 22.2

T 2017-11-26 21:19:20 37.385365000 -122.066300000 22.5

T 2017-11-26 21:19:21 37.385270000 -122.066520000 22.5


T 2017-11-26 21:19:22 37.385166000 -122.066734000 22.8

T 2017-11-26 21:19:23 37.385063000 -122.066940000 22.8

T 2017-11-26 21:19:24 37.384945000 -122.067140000 22.1

T 2017-11-26 21:19:25 37.384850000 -122.067330000 21.3

T 2017-11-26 21:19:26 37.384754000 -122.067535000 20.9

T 2017-11-26 21:19:27 37.384670000 -122.067726000 22.2

T 2017-11-26 21:19:29 37.384506000 -122.068115000 23.0

T 2017-11-26 21:19:30 37.384415000 -122.068300000 23.9

T 2017-11-26 21:19:31 37.384330000 -122.068460000 22.6

T 2017-11-26 21:19:32 37.384235000 -122.068600000 22.3

T 2017-11-26 21:19:33 37.384148000 -122.068756000 21.3

T 2017-11-26 21:19:34 37.384098000 -122.068924000 20.6

T 2017-11-26 21:19:35 37.384094000 -122.069070000 19.9

T 2017-11-26 21:19:37 37.384140000 -122.069340000 20.1

T 2017-11-26 21:19:38 37.384205000 -122.069460000 20.9

T 2017-11-26 21:19:39 37.384293000 -122.069540000 21.6

T 2017-11-26 21:19:40 37.384410000 -122.069590000 22.4

T 2017-11-26 21:19:41 37.384533000 -122.069595000 23.1

T 2017-11-26 21:19:42 37.384647000 -122.069550000 24.0

T 2017-11-26 21:19:43 37.384750000 -122.069460000 25.0

T 2017-11-26 21:19:44 37.384827000 -122.069340000 26.3

T 2017-11-26 21:19:45 37.384865000 -122.069200000 26.0

T 2017-11-26 21:19:46 37.384872000 -122.069046000 26.2

T 2017-11-26 21:19:48 37.384770000 -122.068760000 26.3

T 2017-11-26 21:19:49 37.384680000 -122.068665000 26.7

T 2017-11-26 21:19:50 37.384598000 -122.068570000 26.9

T 2017-11-26 21:19:51 37.384500000 -122.068510000 27.6

T 2017-11-26 21:19:52 37.384323000 -122.068540000 28.0

T 2017-11-26 21:19:53 37.384180000 -122.068530000 28.7

T 2017-11-26 21:19:54 37.384040000 -122.068504000 28.7


T 2017-11-26 21:19:55 37.383850000 -122.068480000 28.8

T 2017-11-26 21:19:57 37.383488000 -122.068420000 28.8

T 2017-11-26 21:19:59 37.383095000 -122.068375000 29.9

T 2017-11-26 21:20:00 37.382896000 -122.068350000 28.8

T 2017-11-26 21:20:01 37.382698000 -122.068330000 29.0

T 2017-11-26 21:20:02 37.382500000 -122.068306000 28.7

T 2017-11-26 21:20:03 37.382298000 -122.068275000 29.4

T 2017-11-26 21:20:04 37.382095000 -122.068250000 29.2

T 2017-11-26 21:20:05 37.381890000 -122.068230000 29.6

T 2017-11-26 21:20:07 37.381480000 -122.068184000 28.9

T 2017-11-26 21:20:08 37.381275000 -122.068170000 29.4

T 2017-11-26 21:20:09 37.381070000 -122.068140000 28.8

T 2017-11-26 21:20:10 37.380863000 -122.068115000 27.8

T 2017-11-26 21:20:11 37.380665000 -122.068090000 27.7

T 2017-11-26 21:20:12 37.380463000 -122.068070000 27.2

T 2017-11-26 21:20:13 37.380272000 -122.068040000 27.1

T 2017-11-26 21:20:14 37.380074000 -122.068010000 26.7

T 2017-11-26 21:20:15 37.379860000 -122.067980000 25.6

T 2017-11-26 21:20:17 37.379448000 -122.067920000 24.9

T 2017-11-26 21:20:18 37.379227000 -122.067890000 25.2

T 2017-11-26 21:20:19 37.379010000 -122.067860000 24.8

T 2017-11-26 21:20:20 37.378784000 -122.067840000 25.0

T 2017-11-26 21:20:21 37.378563000 -122.067820000 25.0

T 2017-11-26 21:20:22 37.378340000 -122.067790000 24.8

T 2017-11-26 21:20:24 37.377890000 -122.067764000 25.0

T 2017-11-26 21:20:25 37.377666000 -122.067764000 24.8

T 2017-11-26 21:20:26 37.377438000 -122.067770000 25.9

T 2017-11-26 21:20:27 37.377216000 -122.067780000 27.7

T 2017-11-26 21:20:28 37.376990000 -122.067800000 28.5


T 2017-11-26 21:20:29 37.376766000 -122.067825000 28.3

T 2017-11-26 21:20:30 37.376545000 -122.067856000 28.4

T 2017-11-26 21:20:31 37.376328000 -122.067880000 29.1

T 2017-11-26 21:20:33 37.375890000 -122.067940000 30.2

T 2017-11-26 21:20:34 37.375668000 -122.067960000 30.4

T 2017-11-26 21:20:35 37.375443000 -122.067990000 30.4

T 2017-11-26 21:20:36 37.375220000 -122.068016000 30.3

T 2017-11-26 21:20:37 37.375000000 -122.068030000 31.5

T 2017-11-26 21:20:38 37.374775000 -122.068040000 31.9

T 2017-11-26 21:20:39 37.374542000 -122.068020000 31.4

T 2017-11-26 21:20:40 37.374310000 -122.068010000 31.0

T 2017-11-26 21:20:41 37.374084000 -122.067980000 31.2

T 2017-11-26 21:20:42 37.373856000 -122.067930000 31.8

T 2017-11-26 21:20:43 37.373634000 -122.067880000 32.5

T 2017-11-26 21:20:44 37.373417000 -122.067820000 32.2

T 2017-11-26 21:20:46 37.372982000 -122.067650000 31.1

T 2017-11-26 21:20:47 37.372776000 -122.067540000 30.9

T 2017-11-26 21:20:48 37.372570000 -122.067440000 31.2

T 2017-11-26 21:20:49 37.372364000 -122.067314000 30.1

T 2017-11-26 21:20:50 37.372158000 -122.067184000 31.1

T 2017-11-26 21:20:51 37.371950000 -122.067060000 31.5

T 2017-11-26 21:20:52 37.371750000 -122.066940000 31.8

T 2017-11-26 21:20:53 37.371544000 -122.066820000 32.0

T 2017-11-26 21:20:54 37.371340000 -122.066690000 32.2

T 2017-11-26 21:20:55 37.371136000 -122.066570000 32.6

T 2017-11-26 21:20:57 37.370730000 -122.066330000 33.5

T 2017-11-26 21:20:58 37.370530000 -122.066200000 33.7

T 2017-11-26 21:20:59 37.370327000 -122.066086000 33.6

T 2017-11-26 21:21:00 37.370120000 -122.065960000 33.6

T 2017-11-26 21:21:01 37.369915000 -122.065840000 34.2


T 2017-11-26 21:21:02 37.369713000 -122.065720000 34.8

T 2017-11-26 21:21:04 37.369305000 -122.065470000 35.0

T 2017-11-26 21:21:05 37.369106000 -122.065346000 35.3

T 2017-11-26 21:21:06 37.368904000 -122.065216000 35.3

T 2017-11-26 21:21:07 37.368702000 -122.065094000 35.7

T 2017-11-26 21:21:08 37.368504000 -122.064980000 35.8

T 2017-11-26 21:21:09 37.368305000 -122.064860000 35.1

T 2017-11-26 21:21:10 37.368100000 -122.064730000 35.7

T 2017-11-26 21:21:11 37.367897000 -122.064606000 35.8

T 2017-11-26 21:21:12 37.367695000 -122.064480000 36.5

T 2017-11-26 21:21:14 37.367290000 -122.064240000 36.5

T 2017-11-26 21:21:15 37.367092000 -122.064110000 34.8

T 2017-11-26 21:21:16 37.366886000 -122.063990000 35.7

T 2017-11-26 21:21:17 37.366688000 -122.063866000 35.7

T 2017-11-26 21:21:18 37.366480000 -122.063750000 36.2

T 2017-11-26 21:21:19 37.366272000 -122.063640000 36.0

T 2017-11-26 21:21:20 37.366055000 -122.063520000 36.5

T 2017-11-26 21:21:21 37.365840000 -122.063430000 36.2

T 2017-11-26 21:21:22 37.365627000 -122.063340000 36.2

T 2017-11-26 21:21:23 37.365406000 -122.063260000 36.7

T 2017-11-26 21:21:24 37.365190000 -122.063200000 36.8

T 2017-11-26 21:21:25 37.364967000 -122.063150000 37.4

T 2017-11-26 21:21:27 37.364517000 -122.063065000 36.9

T 2017-11-26 21:21:28 37.364296000 -122.063034000 37.4

T 2017-11-26 21:21:29 37.364075000 -122.063020000 37.9

T 2017-11-26 21:21:30 37.363850000 -122.063010000 38.2

T 2017-11-26 21:21:31 37.363630000 -122.063000000 37.9

T 2017-11-26 21:21:32 37.363403000 -122.063010000 38.3

T 2017-11-26 21:21:33 37.363180000 -122.063020000 38.7


T 2017-11-26 21:21:34 37.362950000 -122.063030000 38.8

T 2017-11-26 21:21:35 37.362730000 -122.063030000 38.0

T 2017-11-26 21:21:36 37.362503000 -122.063030000 38.7

T 2017-11-26 21:21:37 37.362274000 -122.063030000 39.3

T 2017-11-26 21:21:39 37.361820000 -122.063030000 39.9

T 2017-11-26 21:21:40 37.361595000 -122.063030000 39.8

T 2017-11-26 21:21:41 37.361374000 -122.063040000 38.7

T 2017-11-26 21:21:42 37.361150000 -122.063040000 38.4

T 2017-11-26 21:21:43 37.360920000 -122.063040000 39.1

T 2017-11-26 21:21:44 37.360700000 -122.063050000 38.5

T 2017-11-26 21:21:45 37.360474000 -122.063065000 38.0

T 2017-11-26 21:21:46 37.360250000 -122.063070000 37.7

T 2017-11-26 21:21:47 37.360023000 -122.063070000 36.2

T 2017-11-26 21:21:48 37.359802000 -122.063080000 37.1

T 2017-11-26 21:21:50 37.359352000 -122.063070000 37.5

T 2017-11-26 21:21:51 37.359130000 -122.063065000 37.9

T 2017-11-26 21:21:52 37.358906000 -122.063060000 38.1

T 2017-11-26 21:21:54 37.358456000 -122.063010000 37.9

T 2017-11-26 21:21:55 37.358230000 -122.062990000 37.9

T 2017-11-26 21:21:56 37.358010000 -122.062960000 37.7

T 2017-11-26 21:21:57 37.357784000 -122.062930000 37.5

T 2017-11-26 21:21:58 37.357563000 -122.062880000 37.6

T 2017-11-26 21:21:59 37.357338000 -122.062840000 37.9

T 2017-11-26 21:22:00 37.357113000 -122.062800000 38.3

T 2017-11-26 21:22:01 37.356888000 -122.062744000 38.6

T 2017-11-26 21:22:02 37.356663000 -122.062680000 39.2

T 2017-11-26 21:22:03 37.356440000 -122.062614000 39.8

T 2017-11-26 21:22:04 37.356220000 -122.062546000 40.1

T 2017-11-26 21:22:06 37.355790000 -122.062390000 40.2

T 2017-11-26 21:22:07 37.355568000 -122.062320000 40.6


T 2017-11-26 21:22:08 37.355354000 -122.062240000 41.5

T 2017-11-26 21:22:09 37.355145000 -122.062140000 40.9

T 2017-11-26 21:22:10 37.354935000 -122.062060000 40.8

T 2017-11-26 21:22:11 37.354755000 -122.061930000 40.2

T 2017-11-26 21:22:13 37.354336000 -122.061714000 42.2

T 2017-11-26 21:22:14 37.354126000 -122.061615000 42.7

T 2017-11-26 21:22:15 37.353924000 -122.061510000 45.0

T 2017-11-26 21:22:16 37.353720000 -122.061400000 45.8

T 2017-11-26 21:22:17 37.353508000 -122.061300000 46.6

T 2017-11-26 21:22:18 37.353302000 -122.061195000 47.0

T 2017-11-26 21:22:19 37.353092000 -122.061100000 47.5

T 2017-11-26 21:22:20 37.352880000 -122.061005000 47.8

T 2017-11-26 21:22:21 37.352665000 -122.060905000 47.7

T 2017-11-26 21:22:23 37.352230000 -122.060720000 47.2

T 2017-11-26 21:22:24 37.352010000 -122.060640000 46.6

T 2017-11-26 21:22:25 37.351788000 -122.060560000 46.4

T 2017-11-26 21:22:26 37.351570000 -122.060486000 47.0

T 2017-11-26 21:22:27 37.351350000 -122.060420000 48.0

T 2017-11-26 21:22:28 37.351128000 -122.060350000 48.3

T 2017-11-26 21:22:29 37.350900000 -122.060295000 48.9

T 2017-11-26 21:22:30 37.350674000 -122.060250000 49.3

T 2017-11-26 21:22:31 37.350450000 -122.060200000 49.7

T 2017-11-26 21:22:32 37.350216000 -122.060165000 50.8

T 2017-11-26 21:22:33 37.349987000 -122.060130000 51.3

T 2017-11-26 21:22:35 37.349550000 -122.060070000 52.3

T 2017-11-26 21:22:36 37.349327000 -122.060036000 52.7

T 2017-11-26 21:22:37 37.349102000 -122.060020000 53.2

T 2017-11-26 21:22:38 37.348877000 -122.060005000 53.8

T 2017-11-26 21:22:39 37.348656000 -122.059990000 54.1


T 2017-11-26 21:22:40 37.348427000 -122.059980000 54.5

T 2017-11-26 21:22:41 37.348200000 -122.059975000 54.5

T 2017-11-26 21:22:42 37.347984000 -122.059970000 54.4

T 2017-11-26 21:22:43 37.347763000 -122.059970000 54.7

T 2017-11-26 21:22:44 37.347540000 -122.059970000 55.5

T 2017-11-26 21:22:46 37.347090000 -122.059975000 55.3

T 2017-11-26 21:22:47 37.346870000 -122.059975000 56.3

T 2017-11-26 21:22:48 37.346645000 -122.059975000 56.3

T 2017-11-26 21:22:49 37.346413000 -122.059970000 56.9

T 2017-11-26 21:22:50 37.346184000 -122.059975000 57.4

T 2017-11-26 21:22:51 37.345963000 -122.059970000 57.1

T 2017-11-26 21:22:52 37.345757000 -122.059960000 56.7

T 2017-11-26 21:22:54 37.345303000 -122.059950000 57.0

T 2017-11-26 21:22:55 37.345078000 -122.059950000 57.3

T 2017-11-26 21:22:56 37.344856000 -122.059944000 57.2

T 2017-11-26 21:22:57 37.344630000 -122.059950000 57.8

T 2017-11-26 21:22:58 37.344410000 -122.059944000 58.3

T 2017-11-26 21:22:59 37.344180000 -122.059944000 59.0

T 2017-11-26 21:23:00 37.343952000 -122.059940000 58.8

T 2017-11-26 21:23:01 37.343727000 -122.059930000 58.7

T 2017-11-26 21:23:02 37.343502000 -122.059930000 58.6

T 2017-11-26 21:23:03 37.343273000 -122.059920000 58.6

T 2017-11-26 21:23:04 37.343044000 -122.059910000 58.7

T 2017-11-26 21:23:06 37.342580000 -122.059920000 57.1

T 2017-11-26 21:23:07 37.342354000 -122.059920000 56.5

T 2017-11-26 21:23:08 37.342130000 -122.059920000 56.4

T 2017-11-26 21:23:09 37.341904000 -122.059920000 57.1

T 2017-11-26 21:23:10 37.341682000 -122.059920000 56.9

T 2017-11-26 21:23:11 37.341454000 -122.059920000 55.5

T 2017-11-26 21:23:12 37.341230000 -122.059920000 55.3


T 2017-11-26 21:23:13 37.341000000 -122.059930000 56.1

T 2017-11-26 21:23:14 37.340780000 -122.059920000 56.7

T 2017-11-26 21:23:15 37.340557000 -122.059920000 57.2

T 2017-11-26 21:23:16 37.340332000 -122.059920000 57.6

T 2017-11-26 21:23:17 37.340115000 -122.059920000 58.2

T 2017-11-26 21:23:18 37.339890000 -122.059910000 57.4

T 2017-11-26 21:23:20 37.339440000 -122.059910000 58.3

T 2017-11-26 21:23:21 37.339210000 -122.059920000 58.6

T 2017-11-26 21:23:22 37.338985000 -122.059920000 58.7

T 2017-11-26 21:23:23 37.338760000 -122.059906000 58.4

T 2017-11-26 21:23:24 37.338535000 -122.059890000 58.5

T 2017-11-26 21:23:25 37.338310000 -122.059870000 58.8

T 2017-11-26 21:23:27 37.337864000 -122.059800000 59.4

T 2017-11-26 21:23:28 37.337643000 -122.059740000 58.8

T 2017-11-26 21:23:29 37.337425000 -122.059685000 59.3

T 2017-11-26 21:23:30 37.337193000 -122.059616000 59.7

T 2017-11-26 21:23:31 37.336998000 -122.059530000 60.2

T 2017-11-26 21:23:32 37.336780000 -122.059456000 61.4

T 2017-11-26 21:23:33 37.336563000 -122.059370000 62.0

T 2017-11-26 21:23:35 37.336150000 -122.059170000 62.9

T 2017-11-26 21:23:36 37.335945000 -122.059060000 64.3

T 2017-11-26 21:23:37 37.335743000 -122.058940000 65.2

T 2017-11-26 21:23:38 37.335550000 -122.058810000 59.6

T 2017-11-26 21:23:39 37.335346000 -122.058680000 63.2

T 2017-11-26 21:23:41 37.334957000 -122.058395000 68.4

T 2017-11-26 21:23:42 37.334766000 -122.058250000 69.5

T 2017-11-26 21:23:43 37.334583000 -122.058090000 70.6

T 2017-11-26 21:23:44 37.334408000 -122.057920000 71.7

T 2017-11-26 21:23:45 37.334232000 -122.057750000 73.0


T 2017-11-26 21:23:46 37.334064000 -122.057570000 74.6

T 2017-11-26 21:23:47 37.333890000 -122.057400000 75.1

T 2017-11-26 21:23:48 37.333710000 -122.057220000 75.7

T 2017-11-26 21:23:49 37.333534000 -122.057045000 76.2

T 2017-11-26 21:23:50 37.333360000 -122.056870000 77.4

T 2017-11-26 21:23:51 37.333187000 -122.056690000 78.4

T 2017-11-26 21:23:53 37.332844000 -122.056330000 78.8

T 2017-11-26 21:23:54 37.332664000 -122.056150000 79.3

T 2017-11-26 21:23:55 37.332493000 -122.055970000 79.8

T 2017-11-26 21:23:56 37.332314000 -122.055790000 80.4

T 2017-11-26 21:23:57 37.332140000 -122.055610000 79.6

T 2017-11-26 21:23:58 37.331966000 -122.055435000 75.9

T 2017-11-26 21:23:59 37.331790000 -122.055250000 78.3

T 2017-11-26 21:24:00 37.331610000 -122.055070000 79.5

T 2017-11-26 21:24:02 37.331260000 -122.054700000 80.1

T 2017-11-26 21:24:03 37.331085000 -122.054520000 79.9

T 2017-11-26 21:24:04 37.330906000 -122.054344000 80.3

T 2017-11-26 21:24:05 37.330730000 -122.054170000 80.0

T 2017-11-26 21:24:06 37.330555000 -122.053986000 79.6

T 2017-11-26 21:24:07 37.330376000 -122.053800000 79.8

T 2017-11-26 21:24:08 37.330200000 -122.053620000 80.4

T 2017-11-26 21:24:09 37.330025000 -122.053440000 80.3

T 2017-11-26 21:24:10 37.329853000 -122.053250000 79.7

T 2017-11-26 21:24:12 37.329494000 -122.052910000 80.1

T 2017-11-26 21:24:13 37.329310000 -122.052750000 79.9

T 2017-11-26 21:24:14 37.329130000 -122.052590000 80.0

T 2017-11-26 21:24:15 37.328940000 -122.052440000 80.1

T 2017-11-26 21:24:16 37.328750000 -122.052284000 79.9

T 2017-11-26 21:24:17 37.328560000 -122.052140000 79.3

T 2017-11-26 21:24:18 37.328365000 -122.051994000 78.6


T 2017-11-26 21:24:19 37.328160000 -122.051860000 78.3

T 2017-11-26 21:24:21 37.327750000 -122.051620000 78.2

T 2017-11-26 21:24:22 37.327545000 -122.051506000 78.9

T 2017-11-26 21:24:23 37.327335000 -122.051390000 78.1

T 2017-11-26 21:24:24 37.327120000 -122.051290000 77.8

T 2017-11-26 21:24:25 37.326900000 -122.051210000 78.1

T 2017-11-26 21:24:26 37.326683000 -122.051130000 77.6

T 2017-11-26 21:24:27 37.326460000 -122.051050000 77.2

T 2017-11-26 21:24:28 37.326240000 -122.050970000 76.9

T 2017-11-26 21:24:29 37.326027000 -122.050896000 77.4

T 2017-11-26 21:24:30 37.325806000 -122.050820000 77.4

T 2017-11-26 21:24:32 37.325348000 -122.050730000 77.2

T 2017-11-26 21:24:33 37.325130000 -122.050674000 77.5

T 2017-11-26 21:24:34 37.324910000 -122.050620000 77.5

T 2017-11-26 21:24:35 37.324684000 -122.050580000 78.1

T 2017-11-26 21:24:36 37.324460000 -122.050540000 78.1

T 2017-11-26 21:24:37 37.324238000 -122.050490000 77.7

T 2017-11-26 21:24:38 37.324013000 -122.050440000 77.5

T 2017-11-26 21:24:39 37.323795000 -122.050385000 77.8

T 2017-11-26 21:24:40 37.323574000 -122.050340000 77.8

T 2017-11-26 21:24:41 37.323353000 -122.050285000 78.2

T 2017-11-26 21:24:42 37.323140000 -122.050230000 77.9

T 2017-11-26 21:24:44 37.322690000 -122.050130000 78.0

T 2017-11-26 21:24:45 37.322464000 -122.050090000 77.5

T 2017-11-26 21:24:46 37.322254000 -122.050030000 77.8

T 2017-11-26 21:24:47 37.322037000 -122.049965000 78.3

T 2017-11-26 21:24:48 37.321820000 -122.049900000 78.7

T 2017-11-26 21:24:49 37.321606000 -122.049820000 79.1

T 2017-11-26 21:24:50 37.321392000 -122.049736000 79.3


T 2017-11-26 21:24:51 37.321175000 -122.049660000 79.1

T 2017-11-26 21:24:52 37.320960000 -122.049570000 78.3

T 2017-11-26 21:24:54 37.320538000 -122.049385000 78.9

T 2017-11-26 21:24:55 37.320340000 -122.049270000 78.7

T 2017-11-26 21:24:56 37.320130000 -122.049170000 78.8

T 2017-11-26 21:24:57 37.319916000 -122.049065000 79.2

T 2017-11-26 21:24:58 37.319710000 -122.048960000 81.3

T 2017-11-26 21:24:59 37.319500000 -122.048860000 81.6

T 2017-11-26 21:25:00 37.319286000 -122.048760000 81.5

T 2017-11-26 21:25:01 37.319073000 -122.048660000 81.1

T 2017-11-26 21:25:02 37.318860000 -122.048550000 80.8

T 2017-11-26 21:25:03 37.318645000 -122.048450000 80.8

T 2017-11-26 21:25:04 37.318436000 -122.048350000 80.9

T 2017-11-26 21:25:06 37.318016000 -122.048140000 80.9

T 2017-11-26 21:25:07 37.317800000 -122.048035000 81.2

T 2017-11-26 21:25:08 37.317596000 -122.047935000 80.8

T 2017-11-26 21:25:09 37.317383000 -122.047840000 80.5

T 2017-11-26 21:25:10 37.317173000 -122.047740000 80.3

T 2017-11-26 21:25:11 37.316967000 -122.047630000 78.7

T 2017-11-26 21:25:12 37.316757000 -122.047530000 78.3

T 2017-11-26 21:25:13 37.316544000 -122.047424000 77.9

T 2017-11-26 21:25:14 37.316334000 -122.047325000 77.8

T 2017-11-26 21:25:16 37.315914000 -122.047110000 77.1

T 2017-11-26 21:25:17 37.315700000 -122.047010000 76.8

T 2017-11-26 21:25:19 37.315292000 -122.046810000 75.4

T 2017-11-26 21:25:20 37.315080000 -122.046700000 75.6

T 2017-11-26 21:25:21 37.314865000 -122.046600000 75.5

T 2017-11-26 21:25:22 37.314655000 -122.046500000 75.4

T 2017-11-26 21:25:23 37.314445000 -122.046410000 75.6

T 2017-11-26 21:25:24 37.314230000 -122.046295000 75.6


T 2017-11-26 21:25:25 37.314022000 -122.046196000 76.0

T 2017-11-26 21:25:26 37.313824000 -122.046100000 75.6

T 2017-11-26 21:25:28 37.313404000 -122.045900000 76.1

T 2017-11-26 21:25:29 37.313194000 -122.045800000 77.2

T 2017-11-26 21:25:30 37.312984000 -122.045700000 77.2

T 2017-11-26 21:25:31 37.312780000 -122.045586000 77.2

T 2017-11-26 21:25:32 37.312570000 -122.045470000 77.7

T 2017-11-26 21:25:33 37.312366000 -122.045350000 77.9

T 2017-11-26 21:25:35 37.311962000 -122.045090000 79.1

T 2017-11-26 21:25:36 37.311764000 -122.044950000 79.1

T 2017-11-26 21:25:37 37.311584000 -122.044790000 79.6

T 2017-11-26 21:25:38 37.311394000 -122.044640000 79.6

T 2017-11-26 21:25:39 37.311214000 -122.044470000 80.5

T 2017-11-26 21:25:40 37.311035000 -122.044310000 81.2

T 2017-11-26 21:25:41 37.310860000 -122.044136000 81.3

T 2017-11-26 21:25:42 37.310690000 -122.043950000 81.1

T 2017-11-26 21:25:43 37.310524000 -122.043760000 81.8

T 2017-11-26 21:25:44 37.310360000 -122.043580000 82.6

T 2017-11-26 21:25:46 37.310030000 -122.043190000 82.9

T 2017-11-26 21:25:47 37.309868000 -122.042990000 82.6

T 2017-11-26 21:25:48 37.309708000 -122.042790000 82.2

T 2017-11-26 21:25:49 37.309547000 -122.042595000 81.7

T 2017-11-26 21:25:50 37.309383000 -122.042400000 81.8

T 2017-11-26 21:25:51 37.309220000 -122.042206000 81.9

T 2017-11-26 21:25:52 37.309050000 -122.042010000 82.0

T 2017-11-26 21:25:53 37.308887000 -122.041810000 82.8

T 2017-11-26 21:25:54 37.308723000 -122.041620000 82.0

T 2017-11-26 21:25:56 37.308384000 -122.041220000 82.3

T 2017-11-26 21:25:57 37.308216000 -122.041040000 82.4


T 2017-11-26 21:25:58 37.308050000 -122.040840000 82.6

T 2017-11-26 21:25:59 37.307880000 -122.040650000 82.1

T 2017-11-26 21:26:00 37.307716000 -122.040450000 81.9

T 2017-11-26 21:26:01 37.307564000 -122.040250000 79.7

T 2017-11-26 21:26:02 37.307400000 -122.040060000 79.7

T 2017-11-26 21:26:03 37.307236000 -122.039870000 79.7

T 2017-11-26 21:26:05 37.306904000 -122.039480000 80.1

T 2017-11-26 21:26:07 37.306580000 -122.039090000 80.7

T 2017-11-26 21:26:08 37.306420000 -122.038900000 81.8

T 2017-11-26 21:26:09 37.306260000 -122.038704000 82.2

T 2017-11-26 21:26:10 37.306095000 -122.038510000 82.4

T 2017-11-26 21:26:11 37.305940000 -122.038320000 82.3

T 2017-11-26 21:26:12 37.305775000 -122.038130000 82.1

T 2017-11-26 21:26:13 37.305610000 -122.037940000 82.3

T 2017-11-26 21:26:14 37.305447000 -122.037750000 83.0

T 2017-11-26 21:26:15 37.305286000 -122.037560000 82.5

T 2017-11-26 21:26:17 37.304960000 -122.037170000 80.8

T 2017-11-26 21:26:18 37.304790000 -122.036980000 81.9

T 2017-11-26 21:26:19 37.304630000 -122.036790000 82.2

T 2017-11-26 21:26:20 37.304466000 -122.036590000 82.2

T 2017-11-26 21:26:21 37.304302000 -122.036400000 82.6

T 2017-11-26 21:26:22 37.304140000 -122.036200000 82.7

T 2017-11-26 21:26:23 37.303978000 -122.036010000 82.8

T 2017-11-26 21:26:24 37.303810000 -122.035810000 83.0

T 2017-11-26 21:26:25 37.303642000 -122.035620000 83.1

T 2017-11-26 21:26:26 37.303470000 -122.035440000 82.8

T 2017-11-26 21:26:27 37.303295000 -122.035260000 81.6

T 2017-11-26 21:26:29 37.302960000 -122.034910000 79.3

T 2017-11-26 21:26:30 37.302784000 -122.034744000 79.5

T 2017-11-26 21:26:31 37.302612000 -122.034580000 78.8


T 2017-11-26 21:26:32 37.302440000 -122.034410000 78.6

T 2017-11-26 21:26:33 37.302273000 -122.034240000 77.4

T 2017-11-26 21:26:34 37.302113000 -122.034090000 77.7

T 2017-11-26 21:26:35 37.301964000 -122.033936000 77.5

T 2017-11-26 21:26:36 37.301823000 -122.033800000 77.3

T 2017-11-26 21:26:37 37.301697000 -122.033670000 76.8

T 2017-11-26 21:26:38 37.301580000 -122.033554000 76.7

T 2017-11-26 21:26:40 37.301353000 -122.033330000 76.9

T 2017-11-26 21:26:41 37.301247000 -122.033240000 77.1

T 2017-11-26 21:26:42 37.301144000 -122.033134000 76.9

T 2017-11-26 21:26:43 37.301044000 -122.033050000 77.7

T 2017-11-26 21:26:44 37.300953000 -122.032970000 77.6

T 2017-11-26 21:26:45 37.300865000 -122.032890000 77.7

T 2017-11-26 21:26:46 37.300790000 -122.032830000 77.7

T 2017-11-26 21:26:47 37.300724000 -122.032780000 77.4

T 2017-11-26 21:26:48 37.300670000 -122.032745000 77.3

T 2017-11-26 21:26:49 37.300636000 -122.032700000 78.4

T 2017-11-26 21:26:51 37.300594000 -122.032660000 78.1

T 2017-11-26 21:26:56 37.300620000 -122.032660000 81.3

T 2017-11-26 21:27:22 37.300617000 -122.032646000 84.4

T 2017-11-26 21:27:23 37.300600000 -122.032616000 84.5

T 2017-11-26 21:27:24 37.300575000 -122.032590000 84.1

T 2017-11-26 21:27:25 37.300552000 -122.032560000 85.6

T 2017-11-26 21:27:26 37.300530000 -122.032520000 85.0

T 2017-11-26 21:27:27 37.300503000 -122.032470000 86.1

T 2017-11-26 21:27:28 37.300476000 -122.032420000 86.7

T 2017-11-26 21:27:29 37.300460000 -122.032364000 86.6

T 2017-11-26 21:27:30 37.300453000 -122.032290000 86.7

T 2017-11-26 21:27:32 37.300500000 -122.032160000 86.9


T 2017-11-26 21:27:33 37.300556000 -122.032110000 85.1

T 2017-11-26 21:27:34 37.300617000 -122.032080000 85.3

T 2017-11-26 21:27:35 37.300686000 -122.032074000 85.9

T 2017-11-26 21:27:36 37.300750000 -122.032074000 85.5

T 2017-11-26 21:27:37 37.300816000 -122.032074000 85.6

T 2017-11-26 21:27:38 37.300880000 -122.032074000 85.3

T 2017-11-26 21:27:39 37.300945000 -122.032070000 85.9

T 2017-11-26 21:27:41 37.301044000 -122.032070000 86.9

T 2017-11-26 21:27:42 37.301098000 -122.032070000 86.8

T 2017-11-26 21:27:43 37.301144000 -122.032070000 86.9

T 2017-11-26 21:27:44 37.301190000 -122.032070000 86.9

T 2017-11-26 21:27:45 37.301228000 -122.032070000 86.2

T 2017-11-26 21:27:46 37.301266000 -122.032070000 85.0

T 2017-11-26 21:27:48 37.301296000 -122.032074000 84.1

T 2017-11-26 21:27:50 37.301340000 -122.032074000 84.4

T 2017-11-26 21:27:54 37.301370000 -122.032074000 86.0

T 2017-11-26 21:27:57 37.301420000 -122.032080000 86.4

T 2017-11-26 21:27:59 37.301487000 -122.032080000 86.7

T 2017-11-26 21:28:00 37.301548000 -122.032080000 87.1

T 2017-11-26 21:28:01 37.301632000 -122.032090000 87.6

T 2017-11-26 21:28:03 37.301807000 -122.032080000 88.8

T 2017-11-26 21:28:04 37.301895000 -122.032090000 88.7

T 2017-11-26 21:28:05 37.301975000 -122.032080000 87.4

T 2017-11-26 21:28:06 37.302040000 -122.032070000 88.0

T 2017-11-26 21:28:07 37.302086000 -122.032030000 88.1

T 2017-11-26 21:28:08 37.302113000 -122.031975000 86.7

T 2017-11-26 21:28:09 37.302110000 -122.031906000 86.4

T 2017-11-26 21:28:10 37.302090000 -122.031850000 85.5

T 2017-11-26 21:28:12 37.301970000 -122.031770000 84.6

T 2017-11-26 21:28:13 37.301884000 -122.031730000 84.3


T 2017-11-26 21:28:14 37.301807000 -122.031700000 84.1

T 2017-11-26 21:28:15 37.301693000 -122.031650000 83.8

T 2017-11-26 21:28:16 37.301594000 -122.031610000 83.6

T 2017-11-26 21:28:17 37.301468000 -122.031560000 83.3

T 2017-11-26 21:28:18 37.301357000 -122.031520000 83.3

T 2017-11-26 21:28:19 37.301230000 -122.031480000 82.4

T 2017-11-26 21:28:20 37.301120000 -122.031430000 82.5

T 2017-11-26 21:28:21 37.301010000 -122.031380000 81.8

T 2017-11-26 21:28:22 37.300907000 -122.031310000 81.5

T 2017-11-26 21:28:23 37.300800000 -122.031240000 81.4

T 2017-11-26 21:28:25 37.300632000 -122.031044000 81.0

T 2017-11-26 21:28:26 37.300556000 -122.030930000 80.4

T 2017-11-26 21:28:27 37.300484000 -122.030810000 80.6

T 2017-11-26 21:28:28 37.300430000 -122.030670000 79.9

T 2017-11-26 21:28:29 37.300400000 -122.030520000 79.5

T 2017-11-26 21:28:30 37.300380000 -122.030360000 79.4

T 2017-11-26 21:28:31 37.300370000 -122.030200000 79.6

T 2017-11-26 21:28:32 37.300370000 -122.030030000 79.7

T 2017-11-26 21:28:33 37.300370000 -122.029860000 80.0

T 2017-11-26 21:28:35 37.300370000 -122.029526000 79.8

T 2017-11-26 21:28:36 37.300370000 -122.029360000 79.9

T 2017-11-26 21:28:37 37.300373000 -122.029200000 79.8

T 2017-11-26 21:28:38 37.300373000 -122.029030000 79.8

T 2017-11-26 21:28:39 37.300377000 -122.028880000 80.4

T 2017-11-26 21:28:40 37.300380000 -122.028720000 80.1

T 2017-11-26 21:28:41 37.300385000 -122.028560000 79.1

T 2017-11-26 21:28:42 37.300392000 -122.028404000 79.0

T 2017-11-26 21:28:43 37.300396000 -122.028250000 79.4

T 2017-11-26 21:28:45 37.300420000 -122.027950000 80.2


T 2017-11-26 21:28:46 37.300450000 -122.027810000 80.5

T 2017-11-26 21:28:47 37.300484000 -122.027680000 79.6

T 2017-11-26 21:28:48 37.300518000 -122.027570000 79.5

T 2017-11-26 21:28:49 37.300550000 -122.027490000 79.2

T 2017-11-26 21:28:50 37.300564000 -122.027435000 78.6

T 2017-11-26 21:28:51 37.300583000 -122.027405000 78.4

T 2017-11-26 21:28:53 37.300613000 -122.027336000 78.9

T 2017-11-26 21:28:55 37.300630000 -122.027300000 78.6

T 2017-11-26 21:28:57 37.300655000 -122.027260000 78.0

T 2017-11-26 21:28:58 37.300680000 -122.027240000 78.3

T 2017-11-26 21:29:00 37.300740000 -122.027176000 78.5

T 2017-11-26 21:29:02 37.300835000 -122.027020000 78.2

T 2017-11-26 21:29:03 37.300890000 -122.026924000 78.2

T 2017-11-26 21:29:04 37.300930000 -122.026810000 78.3

T 2017-11-26 21:29:06 37.301018000 -122.026550000 78.6

T 2017-11-26 21:29:07 37.301056000 -122.026410000 79.2

T 2017-11-26 21:29:08 37.301086000 -122.026276000 78.9

T 2017-11-26 21:29:09 37.301100000 -122.026130000 78.5

T 2017-11-26 21:29:10 37.301113000 -122.025986000 79.1

T 2017-11-26 21:29:11 37.301117000 -122.025830000 79.7

T 2017-11-26 21:29:12 37.301120000 -122.025670000 79.6

T 2017-11-26 21:29:13 37.301120000 -122.025520000 80.0

T 2017-11-26 21:29:14 37.301136000 -122.025360000 78.3

T 2017-11-26 21:29:15 37.301132000 -122.025200000 78.4

T 2017-11-26 21:29:16 37.301132000 -122.025040000 78.1

T 2017-11-26 21:29:17 37.301130000 -122.024880000 78.2

T 2017-11-26 21:29:18 37.301130000 -122.024730000 77.7

T 2017-11-26 21:29:19 37.301125000 -122.024574000 77.7

T 2017-11-26 21:29:20 37.301125000 -122.024430000 77.7

T 2017-11-26 21:29:21 37.301120000 -122.024290000 77.9


T 2017-11-26 21:29:23 37.301110000 -122.024070000 78.0

T 2017-11-26 21:29:24 37.301110000 -122.023994000 78.8

T 2017-11-26 21:29:25 37.301113000 -122.023930000 77.7

T 2017-11-26 21:29:26 37.301110000 -122.023895000 77.6

T 2017-11-26 21:29:35 37.301100000 -122.023834000 75.8

T 2017-11-26 21:29:36 37.301105000 -122.023760000 75.5

T 2017-11-26 21:29:37 37.301105000 -122.023670000 75.5

T 2017-11-26 21:29:38 37.301105000 -122.023550000 76.0

T 2017-11-26 21:29:40 37.301113000 -122.023290000 75.9

T 2017-11-26 21:29:41 37.301117000 -122.023140000 76.3

T 2017-11-26 21:29:42 37.301117000 -122.022990000 76.5

T 2017-11-26 21:29:44 37.301120000 -122.022670000 76.4

T 2017-11-26 21:29:45 37.301130000 -122.022510000 75.4

T 2017-11-26 21:29:46 37.301132000 -122.022330000 75.7

T 2017-11-26 21:29:47 37.301132000 -122.022160000 75.9

T 2017-11-26 21:29:48 37.301136000 -122.021990000 76.3

T 2017-11-26 21:29:49 37.301136000 -122.021810000 76.7

T 2017-11-26 21:29:50 37.301140000 -122.021645000 76.8

T 2017-11-26 21:29:51 37.301140000 -122.021480000 77.4

T 2017-11-26 21:29:52 37.301140000 -122.021310000 77.9

T 2017-11-26 21:29:54 37.301144000 -122.020970000 78.5

T 2017-11-26 21:29:55 37.301144000 -122.020805000 78.6

T 2017-11-26 21:29:56 37.301144000 -122.020645000 78.5

T 2017-11-26 21:29:57 37.301147000 -122.020480000 78.4

T 2017-11-26 21:29:58 37.301150000 -122.020310000 78.6

T 2017-11-26 21:29:59 37.301155000 -122.020140000 79.0

T 2017-11-26 21:30:00 37.301155000 -122.019980000 78.6

T 2017-11-26 21:30:01 37.301155000 -122.019830000 76.6

T 2017-11-26 21:30:02 37.301160000 -122.019660000 77.1


T 2017-11-26 21:30:03 37.301155000 -122.019490000 76.3

T 2017-11-26 21:30:04 37.301155000 -122.019330000 75.7

T 2017-11-26 21:30:05 37.301155000 -122.019170000 75.2

T 2017-11-26 21:30:06 37.301155000 -122.019030000 75.4

T 2017-11-26 21:30:08 37.301155000 -122.018810000 74.5

T 2017-11-26 21:30:10 37.301155000 -122.018700000 74.9

T 2017-11-26 21:30:12 37.301155000 -122.018650000 75.3

T 2017-11-26 21:30:13 37.301155000 -122.018590000 75.7

T 2017-11-26 21:30:14 37.301160000 -122.018520000 75.5

T 2017-11-26 21:30:15 37.301160000 -122.018420000 75.8

T 2017-11-26 21:30:16 37.301163000 -122.018300000 75.8

T 2017-11-26 21:30:17 37.301167000 -122.018166000 76.0

T 2017-11-26 21:30:18 37.301167000 -122.018010000 76.6

T 2017-11-26 21:30:20 37.301170000 -122.017700000 76.5

T 2017-11-26 21:30:21 37.301174000 -122.017525000 76.7

T 2017-11-26 21:30:22 37.301174000 -122.017350000 76.8

T 2017-11-26 21:30:23 37.301178000 -122.017170000 77.0

T 2017-11-26 21:30:24 37.301178000 -122.017000000 76.9

T 2017-11-26 21:30:25 37.301178000 -122.016815000 77.0

T 2017-11-26 21:30:26 37.301180000 -122.016630000 77.2

T 2017-11-26 21:30:27 37.301180000 -122.016460000 77.1

T 2017-11-26 21:30:28 37.301180000 -122.016280000 77.1

T 2017-11-26 21:30:29 37.301180000 -122.016120000 76.2

T 2017-11-26 21:30:31 37.301178000 -122.015790000 75.7

T 2017-11-26 21:30:32 37.301178000 -122.015640000 76.8

T 2017-11-26 21:30:33 37.301178000 -122.015500000 77.2

T 2017-11-26 21:30:34 37.301178000 -122.015380000 77.7

T 2017-11-26 21:30:35 37.301174000 -122.015280000 78.6

T 2017-11-26 21:30:36 37.301163000 -122.015210000 78.0

T 2017-11-26 21:30:38 37.301130000 -122.015150000 76.7


T 2017-11-26 21:30:39 37.301110000 -122.015120000 77.3

T 2017-11-26 21:30:40 37.301080000 -122.015090000 77.1

T 2017-11-26 21:30:42 37.300957000 -122.015040000 76.5

T 2017-11-26 21:30:43 37.300873000 -122.015030000 76.8

T 2017-11-26 21:30:45 37.300610000 -122.015045000 78.1

T 2017-11-26 21:30:46 37.300472000 -122.015050000 76.9

T 2017-11-26 21:30:47 37.300297000 -122.015076000 76.2

T 2017-11-26 21:30:48 37.300144000 -122.015070000 77.2

T 2017-11-26 21:30:49 37.299980000 -122.015070000 76.3

T 2017-11-26 21:30:50 37.299830000 -122.015060000 75.5

T 2017-11-26 21:30:51 37.299686000 -122.015050000 75.4

T 2017-11-26 21:30:52 37.299553000 -122.015045000 73.3

T 2017-11-26 21:30:53 37.299458000 -122.015040000 73.6

T 2017-11-26 21:30:55 37.299290000 -122.015030000 73.2

T 2017-11-26 21:30:56 37.299213000 -122.015020000 72.0

T 2017-11-26 21:30:57 37.299156000 -122.015010000 71.9

T 2017-11-26 21:30:58 37.299118000 -122.014950000 71.5

T 2017-11-26 21:30:59 37.299100000 -122.014885000 71.8

T 2017-11-26 21:31:00 37.299084000 -122.014800000 72.8

T 2017-11-26 21:31:01 37.299100000 -122.014700000 73.4

T 2017-11-26 21:31:02 37.299107000 -122.014595000 73.6

T 2017-11-26 21:31:03 37.299114000 -122.014490000 73.6

T 2017-11-26 21:31:04 37.299114000 -122.014390000 73.6

T 2017-11-26 21:31:06 37.299118000 -122.014210000 72.6

T 2017-11-26 21:31:07 37.299118000 -122.014130000 72.9

T 2017-11-26 21:31:08 37.299110000 -122.014060000 73.1

T 2017-11-26 21:31:10 37.299057000 -122.013940000 74.2

T 2017-11-26 21:31:11 37.299004000 -122.013920000 72.5

T 2017-11-26 21:31:12 37.298935000 -122.013916000 71.8


T 2017-11-26 21:31:13 37.298862000 -122.013910000 72.0

T 2017-11-26 21:31:14 37.298790000 -122.013910000 71.7

T 2017-11-26 21:31:15 37.298706000 -122.013910000 72.2

T 2017-11-26 21:31:17 37.298530000 -122.013916000 72.7

T 2017-11-26 21:31:18 37.298443000 -122.013920000 72.5

T 2017-11-26 21:31:19 37.298355000 -122.013930000 72.0

T 2017-11-26 21:31:21 37.298160000 -122.013950000 72.8

T 2017-11-26 21:31:22 37.298073000 -122.013950000 74.1

T 2017-11-26 21:31:23 37.297977000 -122.013954000 73.4

T 2017-11-26 21:31:24 37.297886000 -122.013950000 75.5

T 2017-11-26 21:31:25 37.297783000 -122.013954000 75.5

T 2017-11-26 21:31:26 37.297676000 -122.013954000 75.2

T 2017-11-26 21:31:27 37.297577000 -122.013970000 75.9

T 2017-11-26 21:31:28 37.297485000 -122.013980000 76.8

T 2017-11-26 21:31:30 37.297270000 -122.013985000 76.5

T 2017-11-26 21:31:31 37.297195000 -122.013990000 78.2

T 2017-11-26 21:31:32 37.297085000 -122.014000000 77.7

T 2017-11-26 21:31:33 37.296974000 -122.013990000 76.9

T 2017-11-26 21:31:34 37.296856000 -122.014000000 74.2

T 2017-11-26 21:31:35 37.296772000 -122.014000000 75.0

T 2017-11-26 21:31:36 37.296688000 -122.014020000 75.4

T 2017-11-26 21:31:37 37.296616000 -122.014030000 74.8

T 2017-11-26 21:31:38 37.296562000 -122.013985000 74.3

T 2017-11-26 21:31:39 37.296520000 -122.013930000 74.8

T 2017-11-26 21:31:41 37.296535000 -122.013770000 76.4

T 2017-11-26 21:31:42 37.296535000 -122.013710000 76.1

T 2017-11-26 21:31:43 37.296530000 -122.013660000 75.9

T 2017-11-26 21:31:44 37.296516000 -122.013610000 75.8

T 2017-11-26 21:31:46 37.296480000 -122.013590000 75.9

T 2017-11-26 21:31:48 37.296450000 -122.013590000 75.3


T 2017-11-26 21:31:50 37.296413000 -122.013590000 72.3